[[{"header":{"parameterUnit":"m.s-1","parameterCategory":1,"la1":30.6,"la2":28.766,"lo1":-90.7593,"lo2":-88.6598,"dy":0.0162,"dx":0.0183,"nx":116,"ny":114,"refTime":"2023-03-18T06:00:00:Z","depth":0,"parameterNumber":2,"parameterNumberName":"U-component_of_WINDS"},"data":[0.0,0.0,0.0,0.0,0.0,0.0,0.0,0.0,0.0,0.0,0.0,0.0,0.0,0.0,0.0,0.0,0.0,0.0,0.0,0.0,0.0,0.0,0.0,0.0,0.0,0.0,0.0,0.0,0.0,0.0,0.0,0.0,0.0,0.0,0.0,0.0,0.0,0.0,0.0,0.0,0.0,0.0,0.0,0.0,0.0,0.0,0.0,0.0,0.0,0.0,0.0,0.0,0.0,0.0,0.0,0.0,0.0,0.0,0.0,0.0,0.0,0.0,0.0,0.0,0.0,0.0,0.0,0.0,0.0,0.0,0.0,0.0,0.0,0.0,0.0,0.0,0.0,0.0,0.0,0.0,0.0,0.0,0.0,0.0,0.0,0.0,0.0,0.0,0.0,0.0,0.0,0.0,0.0,0.0,0.0,0.0,0.0,0.0,0.0,0.0,0.0,0.0,0.0,0.0,0.0,0.0,0.0,0.0,0.0,0.0,0.0,0.0,0.0,0.0,0.0,0.0,0.0,0.0,0.0,0.0,0.0,0.0,0.0,0.0,0.0,0.0,0.0,0.0,0.0,0.0,0.0,0.0,0.0,0.0,0.0,0.0,0.0,0.0,0.0,0.0,0.0,0.0,0.0,0.0,0.0,0.0,0.0,0.0,0.0,0.0,0.0,0.0,0.0,0.0,0.0,0.0,0.0,0.0,0.0,0.0,0.0,0.0,0.0,0.0,0.0,0.0,0.0,0.0,0.0,0.0,0.0,0.0,0.0,0.0,0.0,0.0,0.0,0.0,0.0,0.0,0.0,0.0,0.0,0.0,0.0,0.0,0.0,0.0,0.0,0.0,0.0,0.0,0.0,0.0,0.0,0.0,0.0,0.0,0.0,0.0,0.0,0.0,0.0,0.0,0.0,0.0,0.0,0.0,0.0,0.0,0.0,0.0,0.0,0.0,0.0,0.0,0.0,0.0,0.0,0.0,0.0,0.0,0.0,0.0,0.0,0.0,0.0,0.0,0.0,0.0,0.0,0.0,0.0,0.0,0.0,0.0,0.0,0.0,0.0,0.0,0.0,0.0,0.0,0.0,0.0,0.0,0.0,0.0,0.0,0.0,0.0,0.0,0.0,0.0,0.0,0.0,0.0,0.0,0.0,0.0,0.0,0.0,0.0,0.0,0.0,0.0,0.0,0.0,0.0,0.0,0.0,0.0,0.0,0.0,0.0,0.0,0.0,0.0,0.0,0.0,0.0,0.0,0.0,0.0,0.0,0.0,0.0,0.0,0.0,0.0,0.0,0.0,0.0,0.0,0.0,0.0,0.0,0.0,0.0,0.0,0.0,0.0,0.0,0.0,0.0,0.0,0.0,0.0,0.0,0.0,0.0,0.0,0.0,0.0,0.0,0.0,0.0,0.0,0.0,0.0,0.0,0.0,0.0,0.0,0.0,0.0,0.0,0.0,0.0,0.0,0.0,0.0,0.0,0.0,0.0,0.0,0.0,0.0,0.0,0.0,0.0,0.0,0.0,0.0,0.0,0.0,0.0,0.0,0.0,0.0,0.0,0.0,0.0,0.0,0.0,0.0,0.0,0.0,0.0,0.0,0.0,0.0,0.0,0.0,0.0,0.0,0.0,0.0,0.0,0.0,0.0,0.0,0.0,0.0,0.0,0.0,0.0,0.0,0.0,0.0,0.0,0.0,0.0,0.0,0.0,0.0,0.0,0.0,0.0,0.0,0.0,0.0,0.0,0.0,0.0,0.0,0.0,0.0,0.0,0.0,0.0,0.0,0.0,0.0,0.0,0.0,0.0,0.0,0.0,0.0,0.0,0.0,0.0,0.0,0.0,0.0,0.0,0.0,0.0,0.0,0.0,0.0,0.0,0.0,0.0,0.0,0.0,0.0,0.0,0.0,0.0,0.0,0.0,0.0,0.0,0.0,0.0,0.0,0.0,0.0,0.0,0.0,0.0,0.0,0.0,0.0,0.0,0.0,0.0,0.0,0.0,0.0,0.0,0.0,0.0,0.0,0.0,0.0,0.0,0.0,0.0,0.0,0.0,0.0,0.0,0.0,0.0,0.0,0.0,0.0,0.0,0.0,0.0,0.0,0.0,0.0,0.0,0.0,0.0,0.0,0.0,0.0,0.0,0.0,0.0,0.0,0.0,0.0,0.0,0.0,0.0,0.0,0.0,0.0,0.0,0.0,0.0,0.0,0.0,0.0,0.0,0.0,0.0,0.0,0.0,0.0,0.0,0.0,0.0,0.0,0.0,0.0,0.0,0.0,0.0,0.0,0.0,0.0,0.0,0.0,0.0,0.0,0.0,0.0,0.0,0.0,0.0,0.0,0.0,0.0,0.0,0.0,0.0,0.0,0.0,0.0,0.0,0.0,0.0,0.0,0.0,0.0,0.0,0.0,0.0,0.0,0.0,0.0,0.0,0.0,0.0,0.0,0.0,0.0,0.0,0.0,0.0,0.0,0.0,0.0,0.0,0.0,0.0,0.0,0.0,0.0,0.0,0.0,0.0,0.0,0.0,0.0,0.0,0.0,0.0,0.0,0.0,0.0,0.0,0.0,0.0,0.0,0.0,0.0,0.0,0.0,0.0,0.0,0.0,0.0,0.0,0.0,0.0,0.0,0.0,0.0,0.0,0.0,0.0,0.0,0.0,0.0,0.0,0.0,0.0,0.0,0.0,0.0,0.0,0.0,0.0,0.0,0.0,0.0,0.0,0.0,0.0,0.0,0.0,0.0,0.0,0.0,0.0,0.0,0.0,0.0,0.0,0.0,0.0,0.0,0.0,0.0,0.0,0.0,0.0,0.0,0.0,0.0,0.0,0.0,0.0,0.0,0.0,0.0,0.0,0.0,0.0,0.0,0.0,0.0,0.0,0.0,0.0,0.0,0.0,0.0,0.0,0.0,0.0,0.0,0.0,0.0,0.0,0.0,0.0,0.0,0.0,0.0,0.0,0.0,0.0,0.0,0.0,0.0,0.0,0.0,0.0,0.0,0.0,0.0,0.0,0.0,0.0,0.0,0.0,0.0,0.0,0.0,0.0,0.0,0.0,0.0,0.0,0.0,0.0,0.0,0.0,0.0,0.0,0.0,0.0,0.0,0.0,0.0,0.0,0.0,0.0,0.0,0.0,0.0,0.0,0.0,0.0,0.0,0.0,0.0,0.0,0.0,0.0,0.0,0.0,0.0,0.0,0.0,0.0,0.0,0.0,0.0,0.0,0.0,0.0,0.0,0.0,0.0,0.0,0.0,0.0,0.0,0.0,0.0,0.0,0.0,0.0,0.0,0.0,0.0,0.0,0.0,0.0,0.0,0.0,0.0,0.0,0.0,0.0,0.0,0.0,0.0,0.0,0.0,0.0,0.0,0.0,0.0,0.0,0.0,0.0,0.0,0.0,0.0,0.0,0.0,0.0,0.0,0.0,0.0,0.0,0.0,0.0,0.0,0.0,0.0,0.0,0.0,0.0,0.0,0.0,0.0,0.0,0.0,0.0,0.0,0.0,0.0,0.0,0.0,0.0,0.0,0.0,0.0,0.0,0.0,0.0,0.0,0.0,0.0,0.0,0.0,0.0,0.0,0.0,0.0,0.0,0.0,0.0,0.0,0.0,0.0,0.0,0.0,0.0,0.0,0.0,0.0,0.0,0.0,0.0,0.0,0.0,0.0,0.0,0.0,0.0,0.0,0.0,0.0,0.0,0.0,0.0,0.0,0.0,0.0,0.0,0.0,0.0,0.0,0.0,0.0,0.0,0.0,0.0,0.0,0.0,0.0,0.0,0.0,0.0,0.0,0.0,0.0,0.0,0.0,0.0,0.0,0.0,0.0,0.0,0.0,0.0,0.0,0.0,0.0,0.0,0.0,0.0,0.0,0.0,0.0,0.0,0.0,0.0,0.0,0.0,0.0,0.0,0.0,0.0,0.0,0.0,0.0,0.0,0.0,0.0,0.0,0.0,0.0,0.0,0.0,0.0,0.0,0.0,0.0,0.0,0.0,0.0,0.0,0.0,0.0,0.0,0.0,0.0,0.0,0.0,0.0,0.0,0.0,0.0,0.0,0.0,0.0,0.0,0.0,0.0,0.0,0.0,0.0,0.0,0.0,0.0,0.0,0.0,0.0,0.0,0.0,0.0,0.0,0.0,0.0,0.0,0.0,0.0,0.0,0.0,0.0,0.0,0.0,0.0,0.0,0.0,0.0,0.0,0.0,0.0,0.0,0.0,0.0,0.0,0.0,0.0,0.0,0.0,0.0,0.0,0.0,0.0,0.0,0.0,0.0,0.0,0.0,0.0,0.0,0.0,0.0,0.0,0.0,0.0,0.0,0.0,0.0,0.0,0.0,0.0,0.0,0.0,0.0,0.0,0.0,0.0,0.0,0.0,0.0,0.0,0.0,0.0,0.0,0.0,0.0,0.0,0.0,0.0,0.0,0.0,0.0,0.0,0.0,0.0,0.0,0.0,0.0,0.0,0.0,0.0,0.0,0.0,0.0,0.0,0.0,0.0,0.0,0.0,0.0,0.0,0.0,0.0,0.0,0.0,0.0,0.0,0.0,0.0,0.0,0.0,0.0,0.0,0.0,0.0,0.0,0.0,0.0,0.0,0.0,0.0,0.0,0.0,0.0,0.0,0.0,0.0,0.0,0.0,0.0,0.0,0.0,0.0,0.0,0.0,0.0,0.0,0.0,0.0,0.0,0.0,0.0,0.0,0.0,0.0,0.0,0.0,0.0,0.0,0.0,0.0,0.0,0.0,0.0,0.0,0.0,0.0,0.0,0.0,0.0,0.0,0.0,0.0,0.0,0.0,0.0,0.0,0.0,0.0,0.0,0.0,0.0,0.0,0.0,0.0,0.0,0.0,0.0,0.0,0.0,0.0,0.0,0.0,0.0,0.0,0.0,0.0,0.0,0.0,0.0,0.0,0.0,0.0,0.0,0.0,0.0,0.0,0.0,0.0,0.0,0.0,0.0,0.0,0.0,0.0,0.0,0.0,0.0,0.0,0.0,0.0,0.0,0.0,0.0,0.0,0.0,0.0,0.0,0.0,0.0,0.0,0.0,0.0,0.0,0.0,0.0,0.0,0.0,0.0,0.0,0.0,0.0,0.0,0.0,0.0,0.0,0.0,0.0,0.0,0.0,0.0,0.0,0.0,0.0,0.0,0.0,0.0,0.0,0.0,0.0,0.0,0.0,0.0,0.0,0.0,0.0,0.0,0.0,0.0,0.0,0.0,0.0,0.0,0.0,0.0,0.0,0.0,0.0,0.0,0.0,0.0,0.0,0.0,0.0,0.0,0.0,0.0,0.0,0.0,0.0,0.0,0.0,0.0,0.0,0.0,0.0,0.0,0.0,0.0,0.0,0.0,0.0,0.0,0.0,0.0,0.0,0.0,0.0,0.0,0.0,0.0,0.0,0.0,0.0,0.0,0.0,0.0,0.0,0.0,0.0,0.0,0.0,0.0,0.0,0.0,0.0,0.0,0.0,0.0,0.0,0.0,0.0,0.0,0.0,0.0,0.0,0.0,0.0,0.0,0.0,0.0,0.0,0.0,0.0,0.0,0.0,0.0,0.0,0.0,0.0,0.0,0.0,0.0,0.0,0.0,0.0,0.0,0.0,0.0,0.0,0.0,0.0,0.0,0.0,0.0,0.0,0.0,0.0,0.0,0.0,0.0,0.0,0.0,0.0,0.0,0.0,0.0,0.0,0.0,0.0,0.0,0.0,0.0,0.0,0.0,0.0,0.0,0.0,0.0,0.0,0.0,0.0,0.0,0.0,0.0,0.0,0.0,0.0,0.0,0.0,0.0,0.0,0.0,0.0,0.0,0.0,0.0,0.0,0.0,0.0,0.0,0.0,0.0,0.0,0.0,0.0,0.0,0.0,0.0,0.0,0.0,0.0,0.0,0.0,0.0,0.0,0.0,0.0,0.0,0.0,0.0,0.0,0.0,0.0,0.0,0.0,0.0,0.0,0.0,0.0,0.0,0.0,0.0,0.0,0.0,0.0,0.0,0.0,0.0,0.0,0.0,0.0,0.0,0.0,0.0,0.0,0.0,0.0,0.0,0.0,0.0,0.0,0.0,0.0,0.0,0.0,0.0,0.0,5.6584,0.0,0.0,0.0,0.0,0.0,0.0,0.0,0.0,0.0,0.0,0.0,0.0,0.0,0.0,0.0,0.0,0.0,0.0,0.0,0.0,0.0,0.0,0.0,0.0,0.0,0.0,0.0,0.0,0.0,0.0,0.0,0.0,0.0,0.0,0.0,0.0,0.0,0.0,0.0,0.0,0.0,0.0,0.0,0.0,0.0,0.0,0.0,0.0,0.0,0.0,0.0,0.0,0.0,0.0,0.0,0.0,0.0,0.0,0.0,0.0,0.0,0.0,0.0,0.0,0.0,0.0,0.0,0.0,0.0,0.0,0.0,0.0,0.0,0.0,0.0,0.0,0.0,0.0,0.0,0.0,0.0,0.0,0.0,0.0,0.0,0.0,0.0,0.0,0.0,0.0,0.0,0.0,0.0,0.0,0.0,0.0,0.0,0.0,0.0,0.0,0.0,0.0,0.0,0.0,0.0,0.0,0.0,0.0,0.0,0.0,0.0,0.0,0.0,0.0,0.0,0.0,5.7263,0.0,0.0,0.0,0.0,0.0,0.0,0.0,0.0,0.0,0.0,0.0,0.0,0.0,0.0,0.0,0.0,0.0,0.0,0.0,0.0,0.0,0.0,0.0,0.0,0.0,0.0,0.0,0.0,0.0,0.0,0.0,0.0,0.0,0.0,0.0,0.0,0.0,0.0,0.0,0.0,0.0,0.0,0.0,0.0,0.0,0.0,0.0,0.0,0.0,0.0,0.0,0.0,0.0,0.0,0.0,0.0,0.0,0.0,0.0,0.0,0.0,0.0,0.0,0.0,0.0,0.0,0.0,0.0,0.0,0.0,0.0,0.0,0.0,0.0,0.0,0.0,0.0,0.0,0.0,0.0,0.0,0.0,0.0,0.0,0.0,0.0,0.0,0.0,0.0,0.0,0.0,0.0,0.0,0.0,0.0,0.0,0.0,0.0,0.0,0.0,0.0,0.0,0.0,0.0,0.0,0.0,0.0,0.0,6.195,6.2716,6.3576,6.3399,6.3341,6.3188,6.0255,5.8781,5.8374,0.0,0.0,0.0,0.0,0.0,0.0,0.0,0.0,0.0,0.0,0.0,0.0,0.0,0.0,0.0,0.0,0.0,0.0,0.0,0.0,0.0,0.0,0.0,0.0,0.0,0.0,0.0,0.0,0.0,0.0,0.0,0.0,0.0,0.0,0.0,0.0,0.0,0.0,0.0,5.9468,6.0282,6.0555,6.0307,0.0,0.0,0.0,0.0,0.0,0.0,0.0,0.0,0.0,0.0,0.0,0.0,0.0,0.0,0.0,0.0,0.0,0.0,0.0,0.0,0.0,0.0,0.0,0.0,0.0,0.0,0.0,0.0,0.0,0.0,0.0,0.0,0.0,0.0,0.0,0.0,0.0,0.0,0.0,0.0,0.0,0.0,0.0,0.0,5.2436,5.2361,0.0,0.0,0.0,0.0,0.0,0.0,0.0,0.0,0.0,0.0,0.0,0.0,0.0,5.9644,6.1096,6.1333,6.2268,6.3882,6.3997,6.455,6.5448,6.5245,6.515,6.5082,6.3876,0.0,6.0135,5.9332,0.0,0.0,0.0,0.0,0.0,0.0,0.0,0.0,0.0,0.0,0.0,0.0,0.0,0.0,0.0,0.0,0.0,0.0,0.0,0.0,0.0,0.0,0.0,0.0,0.0,0.0,0.0,0.0,0.0,0.0,0.0,0.0,0.0,0.0,0.0,0.0,5.9881,6.102,6.249,6.2898,6.3097,6.3102,6.2411,6.0887,5.8755,5.7848,0.0,0.0,0.0,0.0,0.0,0.0,0.0,0.0,0.0,0.0,0.0,0.0,0.0,0.0,0.0,0.0,0.0,0.0,0.0,0.0,0.0,0.0,0.0,0.0,0.0,0.0,0.0,0.0,0.0,0.0,0.0,0.0,0.0,0.0,0.0,0.0,0.0,0.0,0.0,5.3416,5.4231,5.4154,5.4509,5.4787,0.0,0.0,0.0,0.0,0.0,0.0,0.0,0.0,0.0,6.0485,6.1496,6.2366,6.3131,6.4172,6.5071,6.5855,6.6381,6.6803,6.7176,6.7065,6.7007,6.6949,6.6476,6.5138,6.3102,6.0862,5.9818,5.9504,0.0,0.0,0.0,0.0,5.8374,5.9121,0.0,0.0,0.0,0.0,0.0,0.0,0.0,0.0,0.0,0.0,0.0,0.0,0.0,0.0,0.0,5.372,0.0,0.0,0.0,0.0,0.0,0.0,0.0,0.0,0.0,0.0,0.0,0.0,6.1666,6.3113,6.5048,6.5471,6.5688,6.5759,6.5759,6.3934,6.0751,5.9688,5.8353,0.0,0.0,0.0,0.0,0.0,0.0,0.0,0.0,0.0,0.0,0.0,0.0,0.0,0.0,0.0,0.0,0.0,0.0,0.0,0.0,0.0,0.0,0.0,0.0,0.0,0.0,0.0,0.0,0.0,0.0,0.0,0.0,0.0,0.0,0.0,0.0,0.0,0.0,5.4753,5.5835,5.6229,5.6622,5.6872,0.0,0.0,0.0,0.0,0.0,0.0,5.9748,6.0846,6.1764,6.2605,6.4154,6.5092,6.5322,6.6605,6.7418,6.7675,6.8356,6.8779,6.8971,6.8887,6.8799,6.874,6.838,6.7515,6.6139,6.3026,6.1605,6.116,5.9734,5.9386,5.9665,5.9412,5.9854,6.068,0.0,0.0,0.0,0.0,0.0,0.0,0.0,0.0,0.0,0.0,0.0,0.0,0.0,0.0,5.4708,5.5594,5.6502,5.7332,0.0,0.0,0.0,0.0,0.0,0.0,0.0,0.0,0.0,6.0781,6.4051,6.5705,6.5859,6.7475,6.8232,6.8308,6.8308,6.6491,6.3281,6.1597,6.0403,5.9493,0.0,0.0,0.0,0.0,0.0,0.0,0.0,0.0,0.0,0.0,0.0,0.0,0.0,0.0,0.0,0.0,0.0,0.0,0.0,0.0,0.0,0.0,0.0,0.0,0.0,0.0,0.0,0.0,0.0,0.0,0.0,0.0,0.0,0.0,0.0,0.0,0.0,0.0,0.0,5.8727,5.8214,0.0,0.0,0.0,0.0,5.8911,5.9824,6.0748,6.1628,6.328,6.4573,6.5378,6.6298,6.7142,6.7985,6.8147,6.8636,6.9481,6.9602,7.0052,7.0783,7.0643,7.0554,7.0516,6.9527,6.9082,6.8814,6.6307,6.4336,6.2885,6.2117,6.2344,6.303,6.2221,6.2452,6.3222,0.0,0.0,0.0,0.0,0.0,0.0,0.0,0.0,0.0,0.0,0.0,0.0,0.0,5.4978,5.6154,5.8161,5.8124,5.8394,5.9244,0.0,0.0,0.0,0.0,0.0,0.0,0.0,6.132,6.2397,6.4743,6.6436,6.7552,6.8706,6.9244,6.9271,6.9271,6.8321,6.6646,6.4949,6.2832,6.048,5.8993,5.7062,0.0,0.0,0.0,0.0,0.0,0.0,0.0,0.0,0.0,0.0,0.0,0.0,0.0,0.0,0.0,0.0,0.0,0.0,0.0,0.0,0.0,0.0,0.0,0.0,0.0,0.0,0.0,0.0,0.0,0.0,0.0,0.0,0.0,0.0,0.0,0.0,0.0,6.1363,6.1258,0.0,6.1488,6.1258,6.122,6.1545,6.2404,6.334,6.42,6.5378,6.6403,6.7257,6.8157,6.8761,6.903,6.9662,7.014,7.0448,7.0475,7.0629,7.0898,7.0758,7.0708,7.0669,7.0178,6.9693,6.912,6.8234,6.6613,6.4566,6.3833,6.3412,6.3218,6.2974,6.3421,6.4152,0.0,0.0,0.0,0.0,0.0,0.0,0.0,0.0,0.0,0.0,0.0,5.3551,5.5594,5.6868,5.8297,6.0035,5.9959,6.0075,6.0635,0.0,0.0,0.0,0.0,0.0,0.0,6.1512,6.2781,6.4166,6.5897,6.7475,6.8859,6.9706,7.009,7.009,7.009,6.9809,6.9246,6.7807,6.5465,6.2579,6.1439,5.9433,5.7062,0.0,0.0,0.0,0.0,0.0,0.0,0.0,0.0,0.0,0.0,0.0,0.0,0.0,0.0,0.0,0.0,0.0,0.0,0.0,0.0,0.0,0.0,0.0,0.0,0.0,0.0,0.0,0.0,0.0,0.0,0.0,0.0,0.0,0.0,0.0,6.1211,6.3465,6.3503,6.3579,6.4153,6.3923,6.3876,6.4269,6.4834,6.558,6.6469,6.7379,6.8109,6.8685,6.9585,7.0162,7.0392,7.1025,7.1475,7.1783,7.1783,7.1783,7.1783,7.1641,7.1458,7.1159,7.0968,7.0413,6.9649,6.9616,6.8502,6.6689,6.5963,6.5394,6.491,6.4987,6.5397,6.5897,0.0,0.0,0.0,0.0,0.0,0.0,0.0,0.0,0.0,0.0,5.2955,5.4862,5.5845,5.9011,6.1118,6.1195,6.193,6.2433,6.2433,6.1621,0.0,0.0,0.0,0.0,6.2113,6.3782,6.5051,6.5897,6.7628,6.8859,6.9706,7.0514,7.0898,7.0898,7.0937,7.0937,7.0898,7.0129,6.8398,6.599,6.4185,6.2012,5.9626,0.0,0.0,0.0,0.0,0.0,0.0,0.0,0.0,0.0,0.0,0.0,0.0,0.0,0.0,0.0,0.0,0.0,0.0,0.0,0.0,0.0,0.0,0.0,0.0,0.0,0.0,0.0,0.0,0.0,0.0,0.0,0.0,0.0,6.0207,6.0512,6.1784,6.5031,6.4764,6.4955,6.6598,6.5987,6.5864,6.6757,6.696,6.7362,6.829,6.9256,6.9783,6.9783,7.0552,7.1398,7.2206,7.2245,7.2668,7.3514,7.3514,7.3514,7.3514,7.3351,7.2861,7.2131,7.1904,7.1351,7.0662,7.0451,6.9922,6.919,6.8502,6.8272,6.8328,6.8371,6.8398,6.8398,0.0,0.0,0.0,0.0,0.0,0.0,0.0,0.0,0.0,0.0,5.3706,5.5557,5.8414,6.0132,6.1872,6.3767,6.3013,6.2665,6.3284,0.0,0.0,0.0,0.0,0.0,6.2159,6.4383,6.5692,6.5972,6.8232,6.9475,6.9706,7.0514,7.0898,7.0937,7.1552,7.1822,7.186,7.2283,7.1321,6.9217,6.6359,6.4037,6.2136,0.0,0.0,0.0,0.0,0.0,0.0,0.0,0.0,0.0,0.0,0.0,0.0,0.0,0.0,0.0,0.0,0.0,0.0,0.0,0.0,0.0,0.0,0.0,0.0,0.0,0.0,0.0,0.0,0.0,0.0,0.0,0.0,6.0173,6.1256,6.2995,6.4719,6.623,6.6766,6.7156,6.7515,6.7362,6.7386,6.7803,6.8369,6.8887,6.9294,7.0706,7.1514,7.1514,7.236,7.2899,7.3129,7.3129,7.3283,7.3514,7.3514,7.3514,7.3514,7.3351,7.3168,7.2937,7.2241,7.1758,7.1427,7.0783,7.0369,6.9999,6.9344,6.8743,6.8234,6.8345,6.8398,6.8513,0.0,0.0,0.0,0.0,0.0,0.0,0.0,0.0,0.0,0.0,5.413,5.631,5.9457,6.1215,6.2955,6.4831,6.3748,6.3168,6.3671,0.0,0.0,0.0,0.0,6.3075,6.3808,6.5572,6.6844,6.7576,6.9027,6.9886,7.0206,7.0667,7.0898,7.0937,7.1822,7.2399,7.2783,7.3255,7.3005,7.2131,6.9097,6.6446,6.4103,6.2848,6.1296,5.9765,5.8963,5.8158,5.7369,5.6888,0.0,0.0,0.0,0.0,0.0,0.0,0.0,0.0,0.0,0.0,0.0,0.0,0.0,0.0,0.0,0.0,0.0,0.0,0.0,0.0,0.0,0.0,0.0,0.0,6.0545,6.2475,6.3345,6.4688,6.6183,6.7697,6.8318,6.8748,6.8992,6.8999,6.903,6.9251,6.9672,7.0153,7.0744,7.1668,7.236,7.2745,7.3245,7.3668,7.4014,7.4014,7.4207,7.4553,7.4553,7.4553,7.4553,7.4456,7.4072,0.0,7.2793,7.2088,7.1298,7.0776,7.0522,0.0,0.0,0.0,0.0,0.0,6.9436,6.9513,0.0,0.0,0.0,0.0,0.0,0.0,0.0,0.0,0.0,0.0,0.0,5.6964,5.9553,6.2066,6.3903,6.4793,6.4058,6.3555,0.0,0.0,0.0,6.2393,6.3317,6.4508,6.6074,6.7078,6.8304,6.981,6.9887,7.0285,7.0898,7.0898,7.0898,7.0937,7.1898,7.2783,7.3486,7.3581,7.3944,7.4367,7.205,6.9106,6.6068,6.501,6.3693,6.2298,6.1458,6.0657,6.0003,5.9991,0.0,0.0,0.0,0.0,0.0,0.0,0.0,0.0,0.0,0.0,0.0,0.0,0.0,0.0,0.0,0.0,0.0,0.0,0.0,0.0,0.0,0.0,0.0,0.0,6.2322,6.4934,6.5974,6.6074,6.6901,6.9136,6.9421,6.9743,7.0547,7.0451,7.0483,7.0669,7.0708,7.1142,7.2168,0.0,0.0,0.0,0.0,7.413,7.4861,7.4861,7.5245,7.6015,7.6015,7.6015,7.6015,7.6015,7.513,7.363,7.3389,7.237,7.0853,7.0769,7.0636,7.0533,7.0592,7.0647,7.0737,7.0843,7.0898,7.0898,0.0,0.0,0.0,0.0,0.0,0.0,0.0,0.0,0.0,5.172,5.4378,5.7003,5.9591,6.1543,6.3013,6.3864,6.3129,6.2665,0.0,0.0,6.2472,6.332,6.4767,6.5732,6.6102,6.8297,6.9562,6.9885,7.0491,7.0825,7.0898,7.0898,7.0898,7.0975,7.2552,7.3293,7.3428,7.4819,7.4964,7.4231,7.3734,7.2001,6.9404,6.649,6.5186,6.4715,6.3258,6.2656,6.2425,6.1843,6.152,6.1135,5.9727,0.0,0.0,0.0,0.0,0.0,0.0,0.0,0.0,0.0,0.0,0.0,0.0,0.0,0.0,0.0,0.0,0.0,0.0,0.0,0.0,6.121,6.3706,6.6089,6.7679,6.8487,6.9075,6.9414,7.0047,7.0455,7.0585,7.0451,7.0483,7.0669,7.0708,7.1142,7.2168,7.286,0.0,7.4437,7.5168,7.5592,7.5745,7.5745,7.5822,7.6015,0.0,0.0,7.6015,7.6015,7.5438,7.4437,7.3755,7.2842,7.1794,7.1705,7.1542,7.1407,7.0846,7.0737,7.0787,7.0871,7.0898,7.0898,0.0,0.0,0.0,0.0,0.0,0.0,0.0,0.0,0.0,0.0,5.352,5.6222,5.8402,6.0166,6.1697,6.2974,6.2684,0.0,0.0,6.2394,6.3149,6.483,6.5719,6.6763,6.8,6.9292,7.0135,7.0488,7.0863,7.1005,7.0898,7.0898,7.0898,7.0975,7.2283,7.2996,7.3398,7.4612,7.502,7.4813,7.4287,7.3105,7.1374,6.8495,6.6842,6.5953,6.4803,6.4128,6.3744,6.3374,6.2977,6.2502,6.1618,6.108,6.058,0.0,0.0,0.0,0.0,0.0,0.0,0.0,0.0,0.0,0.0,0.0,0.0,0.0,0.0,5.7748,0.0,0.0,6.2164,6.3537,6.5613,6.7511,6.8859,6.9783,7.0283,7.019,7.0527,7.0708,7.0647,7.0483,7.0451,7.0647,7.0678,7.1304,7.2688,7.3217,7.4091,7.5322,7.5784,7.6015,7.6015,7.6015,7.6015,7.6015,7.6015,7.6015,7.6015,7.6015,7.5515,7.4668,7.4284,7.3572,7.2707,7.2548,7.2193,7.1675,7.1382,7.1053,7.0758,7.0871,7.0898,7.0898,0.0,0.0,0.0,0.0,0.0,0.0,0.0,0.0,0.0,0.0,5.2771,5.5413,5.6978,5.8668,6.0222,0.0,0.0,0.0,0.0,6.2704,6.398,6.634,6.6766,6.7887,6.9938,7.017,7.0551,7.113,7.1106,7.103,7.0925,7.0898,7.0898,7.0937,7.1822,7.2611,7.333,7.3986,7.4733,7.5354,7.4447,7.3535,7.2432,7.0366,6.8444,6.6751,6.6059,6.5312,6.4622,6.4649,6.4178,6.3617,6.3463,6.3002,6.2273,6.1428,6.0329,0.0,0.0,0.0,0.0,0.0,0.0,0.0,0.0,0.0,5.8169,5.8425,5.9117,5.9892,6.0666,6.2185,6.3789,6.5339,6.711,6.8652,6.959,7.0398,7.0898,7.0898,7.0758,7.0708,7.0708,7.0515,7.0451,7.0585,7.0678,7.1466,7.3206,7.3418,7.4284,7.5938,7.6015,7.6015,7.6015,7.6015,7.6015,7.6015,7.6015,7.6015,7.6015,7.6015,7.5515,7.4707,7.4553,7.411,7.3522,7.3246,7.2734,7.2176,7.2084,7.1688,7.1168,7.1122,7.1245,7.1398,0.0,0.0,0.0,0.0,0.0,0.0,0.0,0.0,0.0,0.0,0.0,5.5273,5.6218,5.7831,0.0,0.0,0.0,0.0,6.2317,6.3864,6.5489,6.7268,6.8777,6.9705,6.9976,7.075,7.1192,7.1201,7.113,7.1056,7.0979,7.0925,7.0898,7.0937,7.1766,7.2524,7.3277,7.3925,7.4593,7.5209,7.498,7.3876,7.2318,7.1408,6.9652,6.7572,6.6889,6.6106,6.5408,6.5465,6.5416,6.5186,6.4496,6.4216,6.3959,6.3023,0.0,6.03,6.0084,5.9367,5.8774,5.9231,5.9917,6.0672,0.0,0.0,6.1713,6.1977,6.2216,6.2391,6.2595,6.3504,6.4534,6.5454,6.7176,6.8706,6.959,7.0398,7.0898,7.0898,7.0758,7.0708,7.0708,7.0515,7.0451,7.0585,7.0678,7.1466,7.3206,7.3418,7.4284,7.5938,7.6015,7.6015,7.6015,7.6015,7.6015,7.6015,7.6015,7.6015,7.6015,7.6015,7.5515,7.4668,7.3937,7.3927,7.4274,7.3507,7.3488,7.3858,7.3232,7.2882,7.2761,7.2178,7.2496,7.3206,0.0,0.0,0.0,0.0,0.0,0.0,0.0,0.0,0.0,0.0,0.0,5.3585,5.3948,0.0,0.0,0.0,0.0,0.0,6.2278,6.4019,6.5953,6.8158,6.9396,7.0247,7.075,7.1098,7.1269,7.1201,7.1178,7.1106,7.1005,7.0979,7.0925,7.0898,7.1199,7.2033,7.3207,7.3323,7.4101,7.5171,7.5015,7.4215,7.2999,7.2282,7.0495,6.8244,6.7038,6.6101,0.0,0.0,6.5494,6.5475,6.5168,6.5053,6.4785,6.3389,6.2452,0.0,6.1081,6.057,0.0,0.0,6.1387,6.1727,6.2102,6.2178,6.2211,6.2547,6.3061,6.3466,6.3626,6.4814,6.6088,0.0,6.8185,6.9344,7.0283,7.0706,7.0898,7.0898,7.0815,7.0729,7.0669,7.0515,7.0451,7.0585,7.1107,7.2003,7.3245,7.3841,7.4745,7.5976,7.6015,7.5985,7.5955,7.5985,7.5985,7.5955,7.5985,7.6015,7.6015,7.6015,7.5784,7.5438,7.5091,7.5042,7.5156,7.4811,7.4484,7.4163,7.3853,7.3806,7.3795,7.3008,7.2993,7.333,0.0,0.0,0.0,0.0,0.0,0.0,0.0,0.0,0.0,0.0,0.0,0.0,0.0,0.0,0.0,0.0,0.0,0.0,0.0,6.3903,6.6147,6.87,6.9551,7.0402,7.1291,7.1291,7.1269,7.1224,7.1224,7.1154,7.103,7.1005,7.0979,7.0898,7.0815,7.1535,7.2824,7.2796,7.357,7.4829,7.4821,7.421,7.3149,7.2583,7.0688,6.822,6.6945,6.5824,0.0,0.0,6.4696,6.4717,6.4717,6.4717,6.4488,6.3265,6.2833,6.249,6.1565,0.0,0.0,6.2511,6.2707,6.2822,6.2896,6.2858,6.2892,6.3199,6.3791,6.4343,6.4505,6.5779,6.7093,6.8062,6.8925,6.9816,7.0783,7.0898,7.0898,7.0898,7.0843,7.0758,7.0737,7.0547,7.0522,7.0585,7.1452,7.2387,7.3245,7.4187,7.5091,7.5976,7.6015,7.5985,7.5895,7.5985,7.5985,7.5895,7.5985,7.6015,7.6015,7.6015,7.6015,7.6015,7.6015,7.5887,7.5692,7.5692,7.525,7.4545,7.4545,7.4618,7.4609,7.4063,7.3865,7.389,0.0,0.0,0.0,0.0,0.0,0.0,0.0,0.0,0.0,0.0,0.0,0.0,0.0,0.0,0.0,0.0,0.0,0.0,0.0,6.3574,6.6147,6.87,6.9551,7.0402,7.1291,7.1291,7.1291,7.1291,7.1224,7.1178,7.1106,7.103,7.0979,7.0898,7.0758,7.1168,7.1981,7.2459,7.3192,7.3992,7.4475,7.3708,7.2233,7.2071,7.0035,6.7165,6.6581,0.0,0.0,0.0,6.2794,6.2794,6.2794,6.2794,0.0,6.2718,6.2617,0.0,0.0,0.0,6.3527,6.3495,6.3991,6.4521,6.4521,6.4558,6.4704,6.4879,6.5085,6.5283,6.5345,6.6162,6.7093,6.8062,6.8925,6.9816,7.0783,7.0898,7.0898,7.0898,7.0843,7.0758,0.0,7.0616,7.0623,7.0623,7.1452,7.2387,7.3245,7.4187,7.5091,7.5976,7.6015,7.5985,7.5895,7.5985,7.5985,7.5895,7.5985,7.6015,7.6015,7.6015,7.6015,7.6015,7.6015,7.5887,7.5692,7.5692,7.5595,7.5462,7.5462,7.5462,7.5462,7.5424,7.5523,7.5616,0.0,0.0,0.0,0.0,0.0,0.0,0.0,0.0,0.0,0.0,0.0,0.0,0.0,0.0,0.0,0.0,0.0,0.0,0.0,6.2814,6.5063,6.7038,6.847,6.936,6.9628,7.017,7.044,7.044,7.0999,7.1201,7.1106,7.1081,7.1005,7.0898,7.0758,7.1129,7.1904,7.1849,7.2316,7.3079,7.3035,7.2687,7.2081,7.0863,6.9391,6.7618,0.0,0.0,0.0,0.0,0.0,0.0,6.2718,0.0,0.0,6.2585,0.0,0.0,0.0,0.0,6.4585,6.5118,6.5803,6.6333,6.6446,6.6408,6.6294,6.5942,6.5965,6.6064,6.6122,6.6904,6.7837,6.8838,6.974,7.0451,7.0832,7.0898,7.0898,7.0898,7.0871,0.0,0.0,0.0,0.0,7.1452,7.2318,7.3223,7.4187,7.5062,7.5707,7.5976,7.6015,7.5985,7.5895,7.5925,7.5925,7.5895,7.5985,7.6015,7.6015,7.6015,7.6015,7.6015,7.6015,7.5887,7.5692,7.5692,7.5633,7.5501,7.5501,7.5501,7.5501,7.5501,7.5532,7.5666,0.0,0.0,0.0,0.0,0.0,0.0,0.0,0.0,0.0,0.0,0.0,0.0,0.0,0.0,0.0,0.0,0.0,0.0,0.0,0.0,6.38,6.5779,6.7193,6.8065,6.8372,6.9164,6.9551,6.9551,7.0131,7.0335,7.0218,7.0218,7.0298,7.0475,7.0306,7.0708,7.1444,7.1391,7.1707,7.2242,7.2162,7.1814,7.1131,6.9951,6.8361,0.0,0.0,0.0,0.0,0.0,0.0,0.0,0.0,0.0,0.0,0.0,0.0,0.0,0.0,6.4926,6.5912,6.6442,6.6899,6.7203,6.7316,6.7241,6.7014,6.6362,6.6315,6.6303,6.6097,6.6803,6.7737,6.8799,6.9672,7.0383,7.0832,7.0898,7.0898,7.0898,7.0898,7.0986,0.0,0.0,0.0,7.1965,7.307,7.3983,7.4668,7.5515,7.6015,7.6015,7.6015,7.5985,7.5895,7.5895,7.5895,7.5895,7.5955,7.5985,7.6015,7.6015,7.6015,7.6015,7.6015,7.5887,7.5692,7.5692,7.5633,7.5501,7.5501,7.5501,7.5501,7.5501,7.5532,7.5666,0.0,0.0,0.0,0.0,0.0,0.0,0.0,0.0,0.0,0.0,0.0,0.0,0.0,0.0,0.0,0.0,0.0,0.0,0.0,0.0,0.0,6.4808,6.5663,6.6535,6.7387,6.8179,6.8622,6.8622,6.8661,6.8596,6.8482,6.8521,6.8911,6.959,6.9385,6.9787,7.0601,7.101,7.1213,7.1253,7.159,7.0784,6.9347,6.9064,0.0,0.0,0.0,0.0,0.0,0.0,0.0,0.0,0.0,0.0,0.0,0.0,0.0,6.4926,6.5002,6.6215,6.7466,6.7466,6.7392,6.7354,6.7354,6.7354,6.7127,6.633,6.6248,6.6159,0.0,0.0,6.6872,6.8071,6.8905,6.9769,7.0755,7.0898,7.0898,0.0,0.0,0.0,0.0,0.0,0.0,7.2237,0.0,7.4657,7.4784,7.5553,7.6015,7.6015,7.6015,7.5985,7.5895,7.5895,7.5895,7.5895,7.5895,7.5964,7.6053,7.6053,7.6053,7.6053,7.6053,7.5925,7.5692,7.5692,7.5633,7.5501,7.5501,7.5501,7.5501,7.5501,7.5599,7.5692,0.0,0.0,0.0,0.0,0.0,0.0,0.0,0.0,0.0,0.0,0.0,0.0,0.0,0.0,0.0,0.0,0.0,0.0,0.0,0.0,0.0,0.0,6.3075,6.3934,6.4751,0.0,0.0,6.5974,6.6554,6.678,6.6669,6.7325,6.7653,6.7703,6.8272,6.854,6.861,6.8612,6.8555,6.8449,0.0,6.761,6.6469,0.0,0.0,0.0,0.0,0.0,0.0,0.0,0.0,0.0,0.0,0.0,6.2311,0.0,0.0,6.5192,6.6404,6.7504,6.83,6.83,6.8792,6.9209,6.9209,6.9209,6.8793,6.7352,6.7121,6.6961,0.0,0.0,0.0,6.8799,6.9289,0.0,7.0755,7.0898,0.0,0.0,0.0,7.1937,7.214,7.3293,0.0,0.0,7.4388,7.4888,7.563,7.5861,7.6015,7.6015,7.6015,7.6015,7.5985,7.5925,7.5864,7.5763,7.5864,7.6271,7.6976,7.6976,7.6976,7.6976,7.6976,7.6502,7.5692,7.5692,7.5633,7.5501,7.5501,7.5501,7.5501,7.5501,7.5599,7.5692,0.0,0.0,0.0,0.0,0.0,0.0,0.0,0.0,0.0,0.0,0.0,0.0,0.0,0.0,0.0,0.0,0.0,0.0,0.0,0.0,0.0,0.0,6.1011,6.1656,6.2128,0.0,0.0,0.0,0.0,0.0,6.4398,6.4855,6.538,6.5961,6.6354,6.6634,6.6789,6.6602,6.6432,0.0,0.0,0.0,0.0,0.0,0.0,0.0,0.0,0.0,0.0,0.0,0.0,6.1076,6.1519,6.2501,6.3676,6.4623,0.0,6.6746,6.7655,6.8527,6.9171,6.9171,6.955,6.9778,6.9399,6.9323,6.883,6.7162,6.6858,0.0,0.0,0.0,0.0,0.0,0.0,0.0,7.0717,7.0898,7.1052,0.0,7.1898,0.0,7.3245,7.4168,7.4861,0.0,7.5255,7.5417,7.5976,7.6015,7.6015,7.6015,7.6015,7.5985,7.5955,7.5925,7.5864,7.5794,7.6209,7.6732,7.7323,7.7669,7.763,7.7284,0.0,7.6625,7.5692,7.566,7.5599,7.5501,7.5501,7.5501,7.5501,7.5501,7.5599,7.5692,0.0,0.0,0.0,0.0,0.0,0.0,0.0,0.0,0.0,0.0,0.0,0.0,0.0,0.0,0.0,0.0,0.0,0.0,0.0,0.0,0.0,0.0,5.9333,5.9731,0.0,0.0,0.0,0.0,0.0,0.0,0.0,6.1829,6.2667,6.4089,6.4051,6.4412,6.507,6.478,6.4651,6.4512,6.4294,0.0,0.0,0.0,0.0,0.0,0.0,0.0,0.0,0.0,6.1196,6.1455,6.2315,6.3713,6.5078,6.5192,6.6821,6.8641,6.8754,6.9323,6.9891,6.9891,6.9816,6.9512,6.8754,6.8527,6.7958,6.6291,0.0,6.5755,6.5128,6.5009,6.5709,6.7726,0.0,6.8771,7.0486,7.0821,7.1206,7.2091,7.2283,7.2976,7.4553,7.4822,7.5207,7.5938,7.6015,7.6015,7.6015,7.6015,7.6015,7.6015,7.6015,7.5985,7.5895,7.5895,7.5972,7.6087,7.6778,7.727,7.7669,7.8361,7.8207,7.7438,0.0,0.0,7.5692,7.5633,7.5566,7.5501,7.5501,7.5501,7.5501,7.5501,7.5566,7.5692,0.0,0.0,0.0,0.0,0.0,0.0,0.0,0.0,0.0,0.0,5.2177,5.3089,0.0,0.0,0.0,0.0,0.0,0.0,0.0,0.0,0.0,0.0,0.0,5.8337,0.0,0.0,0.0,0.0,0.0,0.0,0.0,0.0,6.0624,6.1488,6.2017,6.2623,6.3261,6.3099,6.2871,6.2593,6.2521,0.0,0.0,0.0,0.0,0.0,0.0,0.0,0.0,0.0,6.237,6.301,6.3303,6.4547,6.6025,6.6746,6.7731,6.8754,6.9475,6.9778,6.9891,6.9891,6.9361,6.8792,6.8641,6.8072,0.0,0.0,0.0,6.492,6.4253,6.4133,0.0,6.6778,0.0,0.0,0.0,0.0,7.1206,0.0,0.0,0.0,0.0,0.0,0.0,0.0,0.0,7.6015,7.6015,7.6015,7.6015,7.6015,7.6015,7.5985,7.5895,7.5895,7.624,7.6893,7.7047,7.7885,7.9361,7.9515,7.9092,7.8284,7.8284,0.0,7.5692,7.5692,7.5633,7.5501,7.5501,7.5501,7.5501,7.5501,7.5532,7.5633,0.0,0.0,0.0,0.0,0.0,0.0,0.0,5.1519,5.1882,5.1988,5.2738,5.3267,5.3245,5.4819,0.0,0.0,0.0,0.0,0.0,0.0,0.0,0.0,0.0,0.0,0.0,0.0,0.0,0.0,0.0,0.0,0.0,0.0,0.0,0.0,0.0,0.0,0.0,0.0,0.0,0.0,0.0,0.0,0.0,0.0,0.0,0.0,0.0,0.0,0.0,0.0,6.2369,6.3612,6.4588,6.576,6.6935,6.7769,6.8603,6.9361,6.9778,6.9891,6.9891,6.9891,6.9247,6.8489,6.8072,0.0,0.0,0.0,0.0,6.3702,6.3867,0.0,0.0,0.0,0.0,0.0,0.0,0.0,0.0,0.0,0.0,0.0,0.0,0.0,0.0,0.0,0.0,7.6015,7.6015,7.6015,7.6015,7.6015,7.6015,7.5985,7.5955,7.5955,7.6378,7.7224,7.7608,7.8523,7.9823,7.9823,7.9323,7.8477,7.7985,0.0,7.5692,7.566,7.5599,7.5501,7.5501,7.5501,7.5501,7.5501,7.5532,7.5599,0.0,0.0,0.0,0.0,0.0,0.0,0.0,5.1919,5.2505,5.2581,5.3533,5.3865,5.2955,5.4723,5.5659,0.0,0.0,0.0,0.0,0.0,0.0,0.0,0.0,0.0,0.0,0.0,0.0,0.0,0.0,0.0,0.0,0.0,0.0,0.0,0.0,0.0,0.0,0.0,0.0,0.0,0.0,0.0,0.0,0.0,0.0,0.0,0.0,0.0,0.0,0.0,6.18,6.3305,6.5232,6.6556,6.7504,6.8148,6.9096,6.9891,6.9891,6.9891,6.9891,6.9891,6.9133,6.8186,6.7542,6.6101,0.0,0.0,6.2871,6.2667,6.3258,0.0,0.0,0.0,0.0,0.0,0.0,0.0,0.0,0.0,0.0,0.0,0.0,0.0,0.0,0.0,0.0,0.0,7.6015,7.6015,7.6015,7.6015,7.6015,7.6015,7.6015,7.6015,7.6438,7.7323,7.813,7.8861,7.9515,7.9708,7.9246,7.8207,7.7455,0.0,0.0,7.5666,7.5566,7.5535,7.5501,7.5501,7.5501,7.5501,7.5497,7.5599,0.0,0.0,0.0,0.0,0.0,0.0,0.0,5.195,5.2514,5.2598,5.4047,5.4768,5.3871,5.4039,5.415,0.0,0.0,0.0,0.0,0.0,0.0,0.0,0.0,0.0,0.0,0.0,0.0,0.0,0.0,0.0,0.0,0.0,0.0,0.0,0.0,0.0,0.0,0.0,0.0,0.0,0.0,0.0,0.0,0.0,0.0,0.0,0.0,0.0,0.0,0.0,0.0,6.1743,6.4244,6.6101,6.739,6.7504,0.0,0.0,6.9891,6.9891,6.9891,6.9891,6.8679,6.7504,6.7428,0.0,0.0,6.2842,6.2492,6.2325,6.1742,0.0,0.0,0.0,0.0,6.7357,0.0,0.0,0.0,0.0,0.0,0.0,0.0,0.0,0.0,0.0,0.0,0.0,7.6015,7.6015,7.6015,7.6015,7.6015,7.6015,7.6015,7.6015,7.6438,7.7323,7.813,7.8515,7.8631,7.9438,7.8938,7.74,7.7323,0.0,0.0,7.5763,7.5666,7.5566,7.5497,7.5501,7.5501,7.5501,7.5501,7.5535,0.0,0.0,0.0,0.0,0.0,0.0,5.119,5.2388,5.3312,5.3377,5.489,5.5652,5.4768,5.4273,5.3961,0.0,0.0,0.0,0.0,0.0,0.0,0.0,0.0,0.0,0.0,0.0,0.0,0.0,0.0,0.0,0.0,0.0,0.0,0.0,0.0,0.0,0.0,0.0,0.0,0.0,0.0,0.0,0.0,0.0,0.0,0.0,0.0,0.0,0.0,0.0,0.0,0.0,6.2917,6.4547,0.0,0.0,6.8603,6.9209,6.974,6.9891,6.9891,6.9891,6.8641,6.739,6.739,0.0,6.3221,6.2538,6.169,6.1133,6.1355,6.229,0.0,6.4266,6.5486,0.0,0.0,0.0,0.0,0.0,0.0,0.0,0.0,0.0,0.0,0.0,0.0,0.0,7.6015,7.6015,7.6015,7.6015,7.6015,7.6015,7.6015,7.6015,7.6669,7.8015,7.8361,7.8746,7.9285,7.9092,7.84,7.7284,7.6746,0.0,0.0,7.5864,7.5731,7.5599,7.5566,7.557,7.5501,7.5501,7.5535,7.5566,0.0,0.0,0.0,0.0,0.0,5.1113,5.1201,5.2475,5.3437,5.351,5.5046,5.5808,5.4931,5.4357,5.3894,5.3571,0.0,0.0,0.0,0.0,0.0,0.0,0.0,0.0,0.0,0.0,0.0,0.0,0.0,0.0,0.0,0.0,0.0,0.0,0.0,0.0,0.0,0.0,0.0,0.0,0.0,0.0,0.0,0.0,0.0,0.0,0.0,0.0,0.0,0.0,0.0,0.0,0.0,0.0,0.0,0.0,6.8224,6.8716,6.9361,6.9702,6.9891,6.9891,6.8641,6.739,0.0,0.0,6.2993,6.2501,6.1571,6.0898,6.1012,6.2156,6.3307,6.3921,6.509,6.6474,6.8167,0.0,0.0,0.0,0.0,0.0,0.0,0.0,0.0,0.0,0.0,0.0,0.0,7.6015,7.6015,7.6015,7.6015,7.6015,7.6015,7.6245,7.6976,7.813,7.8631,7.9054,7.94,7.8784,7.8054,7.7246,0.0,0.0,0.0,7.5895,7.5833,7.5666,7.5633,7.5599,7.5566,7.5566,7.5599,7.5666,0.0,0.0,0.0,0.0,0.0,0.0,5.1201,5.2008,5.2589,5.259,5.4131,5.4892,5.4084,5.4021,5.3635,5.2801,0.0,0.0,0.0,0.0,0.0,0.0,0.0,0.0,0.0,0.0,0.0,0.0,0.0,0.0,0.0,0.0,0.0,0.0,0.0,0.0,0.0,0.0,0.0,0.0,0.0,0.0,5.7102,0.0,0.0,0.0,0.0,0.0,0.0,0.0,0.0,0.0,0.0,0.0,0.0,0.0,6.7314,6.8603,6.8603,6.9247,6.9891,6.9891,6.8641,6.739,0.0,0.0,6.4396,6.2766,6.2482,6.2078,6.0441,6.1736,6.3077,6.3115,6.4667,6.6474,6.8167,0.0,0.0,0.0,0.0,0.0,0.0,0.0,0.0,0.0,0.0,0.0,0.0,7.6015,7.6015,7.6015,7.6015,7.6015,7.6015,7.6861,7.7284,7.7323,7.8977,7.9323,7.8515,7.8477,7.8054,0.0,0.0,0.0,0.0,7.5925,7.5895,7.5864,7.5763,7.5692,7.5692,7.5692,7.5692,7.5692,0.0,0.0,0.0,0.0,0.0,0.0,0.0,5.1996,5.2582,5.2597,5.3585,5.4228,5.4006,5.347,5.3006,5.2737,0.0,0.0,0.0,0.0,0.0,0.0,0.0,0.0,0.0,0.0,0.0,0.0,0.0,0.0,0.0,0.0,0.0,0.0,0.0,0.0,0.0,0.0,0.0,0.0,0.0,5.7699,5.6463,0.0,0.0,0.0,0.0,0.0,0.0,0.0,0.0,0.0,0.0,0.0,0.0,0.0,0.0,0.0,6.83,6.8413,6.83,6.8868,6.7731,6.6518,6.6518,0.0,6.3031,6.2538,6.1609,6.0746,6.0213,6.1736,6.3077,6.3077,6.4667,6.6474,0.0,0.0,0.0,0.0,0.0,0.0,0.0,0.0,0.0,0.0,0.0,0.0,0.0,7.6015,7.6015,7.6015,7.6015,7.6284,7.6861,7.7169,7.7861,7.9015,7.9554,7.9669,7.94,7.94,0.0,0.0,0.0,0.0,0.0,7.6216,7.5955,7.5895,7.5864,7.5794,7.5692,7.5692,7.5763,7.5864,0.0,0.0,0.0,0.0,0.0,0.0,0.0,5.1702,5.2136,5.2136,5.2896,5.3337,5.304,5.2845,5.2694,5.2702,0.0,0.0,0.0,0.0,0.0,0.0,0.0,0.0,0.0,0.0,0.0,0.0,0.0,0.0,0.0,0.0,0.0,0.0,0.0,0.0,0.0,0.0,0.0,0.0,5.7422,5.7074,5.614,0.0,0.0,0.0,0.0,0.0,0.0,0.0,0.0,0.0,0.0,0.0,0.0,0.0,0.0,0.0,0.0,6.7578,6.7504,6.8033,6.7123,0.0,0.0,0.0,0.0,6.2046,6.1191,6.0479,0.0,0.0,0.0,0.0,0.0,0.0,0.0,0.0,0.0,0.0,0.0,0.0,0.0,0.0,0.0,0.0,0.0,0.0,0.0,7.6015,7.6015,7.6015,7.6322,7.6746,7.7284,7.7938,7.8784,7.9823,8.0131,8.0285,8.0285,7.9939,0.0,0.0,0.0,0.0,0.0,7.7169,7.6754,7.6425,7.6425,7.6194,7.5826,7.5826,7.5856,7.5925,0.0,0.0,0.0,0.0,0.0,0.0,0.0,0.0,5.1317,5.1375,5.2088,5.2299,5.1492,5.2195,5.2702,5.2702,0.0,0.0,0.0,0.0,0.0,0.0,0.0,0.0,0.0,0.0,0.0,0.0,5.5916,5.6783,5.7533,0.0,0.0,0.0,0.0,0.0,0.0,0.0,0.0,0.0,5.6397,5.6244,0.0,0.0,0.0,0.0,0.0,0.0,0.0,0.0,0.0,0.0,0.0,0.0,0.0,0.0,0.0,0.0,0.0,0.0,0.0,0.0,0.0,0.0,0.0,0.0,0.0,0.0,0.0,0.0,0.0,0.0,0.0,0.0,0.0,0.0,0.0,0.0,0.0,0.0,0.0,0.0,0.0,0.0,0.0,0.0,0.0,0.0,0.0,7.6015,7.6015,7.6092,7.6938,7.74,7.74,7.8977,7.9823,7.99,8.0708,8.1093,8.1054,8.0246,0.0,0.0,0.0,0.0,0.0,7.8515,7.8054,7.7361,7.7323,7.6823,7.6092,7.6015,7.6015,7.6015,0.0,0.0,0.0,0.0,0.0,0.0,0.0,0.0,0.0,0.0,5.1591,5.1644,5.1414,5.2195,5.2702,0.0,0.0,0.0,0.0,0.0,0.0,0.0,0.0,0.0,0.0,0.0,0.0,5.4086,5.6226,5.7379,5.7599,5.8178,0.0,0.0,0.0,0.0,0.0,0.0,0.0,0.0,5.6224,5.596,0.0,0.0,0.0,0.0,5.7011,5.7807,0.0,0.0,0.0,0.0,0.0,0.0,0.0,0.0,6.2925,0.0,0.0,0.0,0.0,0.0,0.0,0.0,0.0,0.0,0.0,0.0,0.0,0.0,0.0,0.0,0.0,0.0,0.0,0.0,0.0,0.0,0.0,0.0,0.0,0.0,0.0,0.0,0.0,0.0,0.0,0.0,0.0,7.6015,7.6322,7.6976,7.7784,7.8207,7.8207,7.9285,8.0131,8.0785,8.1016,8.1093,8.1093,8.09,0.0,0.0,0.0,0.0,7.9438,7.8746,7.84,7.8169,7.7553,7.7169,7.6899,7.6245,7.6015,7.6015,0.0,0.0,0.0,0.0,0.0,0.0,0.0,0.0,0.0,0.0,0.0,0.0,0.0,0.0,0.0,0.0,0.0,0.0,0.0,0.0,0.0,0.0,0.0,0.0,0.0,0.0,0.0,0.0,0.0,5.7794,0.0,0.0,0.0,0.0,0.0,0.0,0.0,0.0,0.0,5.544,5.5771,0.0,0.0,0.0,0.0,0.0,5.7573,5.8293,0.0,5.962,6.0013,6.0175,0.0,0.0,0.0,0.0,6.3444,6.3711,6.5009,6.5258,0.0,0.0,0.0,0.0,0.0,0.0,0.0,0.0,0.0,0.0,0.0,0.0,0.0,0.0,0.0,0.0,0.0,0.0,0.0,0.0,0.0,0.0,0.0,0.0,0.0,0.0,0.0,0.0,0.0,7.6015,7.6399,7.7284,7.8092,7.8669,7.9092,7.9977,8.0631,8.1093,8.1093,8.1093,8.1093,8.1093,8.1093,0.0,0.0,0.0,8.0362,7.99,7.9438,7.9054,7.8631,7.7977,7.7246,7.6784,7.6322,7.6015,0.0,0.0,0.0,0.0,0.0,0.0,0.0,0.0,0.0,0.0,0.0,0.0,0.0,0.0,0.0,0.0,0.0,0.0,0.0,0.0,0.0,0.0,0.0,0.0,0.0,0.0,0.0,0.0,0.0,0.0,0.0,0.0,6.0065,0.0,0.0,0.0,0.0,0.0,0.0,5.5389,5.5314,0.0,0.0,0.0,0.0,0.0,0.0,0.0,0.0,5.9658,5.9982,6.022,6.1012,0.0,0.0,0.0,0.0,0.0,6.5146,6.5321,6.5226,0.0,0.0,0.0,0.0,0.0,0.0,0.0,0.0,0.0,0.0,0.0,0.0,0.0,0.0,0.0,0.0,0.0,0.0,0.0,0.0,0.0,0.0,0.0,0.0,0.0,0.0,0.0,0.0,7.6015,7.6476,7.7438,7.813,7.8977,7.9977,8.0746,8.1093,8.1093,8.1093,8.1124,8.1124,8.1124,8.1124,8.1124,0.0,0.0,8.1093,8.1093,8.07,7.9977,7.9862,7.8968,7.766,7.74,7.6823,7.6198,0.0,0.0,0.0,0.0,0.0,0.0,0.0,0.0,0.0,0.0,0.0,0.0,0.0,0.0,0.0,0.0,0.0,0.0,0.0,0.0,0.0,0.0,0.0,0.0,0.0,0.0,0.0,0.0,0.0,0.0,6.0035,6.0812,6.0336,0.0,0.0,0.0,0.0,0.0,0.0,5.5461,5.5339,0.0,0.0,0.0,0.0,0.0,0.0,0.0,0.0,5.9923,6.0031,6.014,6.0411,0.0,0.0,0.0,0.0,0.0,6.4993,6.5383,6.5383,0.0,0.0,0.0,0.0,0.0,0.0,0.0,0.0,0.0,0.0,0.0,0.0,0.0,0.0,0.0,0.0,0.0,0.0,0.0,0.0,0.0,0.0,0.0,0.0,0.0,0.0,0.0,0.0,7.6015,7.6707,7.8246,7.8438,7.9246,8.09,8.1016,8.1093,8.1093,8.1154,8.1184,8.1184,8.1184,8.1184,8.1184,0.0,8.1093,8.1093,8.1154,8.1107,8.0915,8.0145,7.9721,7.9336,7.7852,7.7237,7.7092,0.0,0.0,0.0,0.0,0.0,0.0,0.0,0.0,0.0,0.0,0.0,0.0,0.0,0.0,0.0,0.0,0.0,0.0,0.0,0.0,0.0,0.0,0.0,0.0,0.0,0.0,0.0,0.0,0.0,6.0071,6.0915,6.1638,6.0825,5.8668,0.0,0.0,0.0,0.0,0.0,5.5577,0.0,0.0,0.0,0.0,0.0,0.0,0.0,0.0,0.0,0.0,6.0026,6.0197,6.0746,0.0,0.0,0.0,0.0,0.0,6.507,6.5413,6.5413,0.0,0.0,0.0,0.0,0.0,0.0,0.0,0.0,0.0,0.0,0.0,0.0,0.0,0.0,0.0,0.0,0.0,0.0,0.0,0.0,0.0,0.0,0.0,0.0,0.0,0.0,0.0,0.0,0.0,7.6784,7.8438,7.8477,7.9323,8.1093,8.1093,8.1124,8.1154,8.1184,8.1244,8.1234,8.1234,8.1234,8.1234,0.0,8.1214,8.1214,8.1234,8.1234,8.1196,8.081,8.0357,7.975,7.8489,7.8026,7.7968,0.0,0.0,0.0,0.0,0.0,0.0,0.0,0.0,0.0,0.0,0.0,0.0,0.0,0.0,0.0,0.0,0.0,0.0,0.0,0.0,0.0,0.0,0.0,0.0,0.0,0.0,5.6503,5.7983,5.9747,6.1001,6.1783,6.2284,6.1275,0.0,0.0,0.0,0.0,0.0,0.0,5.5934,0.0,0.0,0.0,0.0,0.0,0.0,0.0,0.0,0.0,0.0,0.0,0.0,0.0,0.0,0.0,6.3141,6.3762,6.4084,6.4886,6.5261,6.5413,0.0,0.0,0.0,0.0,0.0,0.0,0.0,0.0,0.0,0.0,0.0,0.0,0.0,0.0,0.0,0.0,0.0,0.0,0.0,0.0,0.0,0.0,0.0,0.0,0.0,0.0,0.0,0.0,0.0,7.6976,7.8438,7.8707,7.9554,8.1093,8.1093,8.1124,8.1214,8.1244,8.1234,8.1319,8.1319,8.1319,8.1319,8.1291,8.1291,8.1291,8.1319,8.1319,8.1319,8.1319,8.0762,7.9856,7.9191,7.8844,7.8602,0.0,0.0,0.0,0.0,0.0,0.0,0.0,0.0,0.0,0.0,0.0,0.0,0.0,0.0,0.0,0.0,0.0,0.0,0.0,0.0,0.0,0.0,0.0,0.0,0.0,5.6736,5.7983,5.8918,6.0614,6.1818,6.2614,6.2613,6.1648,5.9885,0.0,0.0,0.0,0.0,0.0,5.6746,5.5972,0.0,0.0,0.0,0.0,0.0,0.0,0.0,0.0,0.0,0.0,0.0,0.0,0.0,6.0742,6.1617,6.2442,6.3274,6.4084,6.481,6.5413,0.0,0.0,0.0,0.0,0.0,0.0,0.0,0.0,0.0,0.0,0.0,0.0,0.0,0.0,0.0,0.0,0.0,0.0,0.0,0.0,0.0,0.0,0.0,0.0,0.0,0.0,0.0,7.6015,7.6784,7.7592,7.8477,7.9285,8.0169,8.1093,8.1093,8.1124,8.1214,8.1234,8.1319,8.14,8.14,8.14,8.1374,8.1319,8.1291,8.1291,8.1374,8.14,8.14,8.14,8.0806,7.9979,7.9995,7.952,7.8889,0.0,0.0,0.0,0.0,0.0,0.0,0.0,0.0,0.0,0.0,0.0,0.0,0.0,0.0,0.0,0.0,0.0,0.0,0.0,0.0,0.0,0.0,0.0,5.658,5.6745,5.736,5.8646,6.0633,6.2824,6.3815,6.3581,6.3456,0.0,0.0,0.0,0.0,0.0,0.0,0.0,0.0,5.7357,5.8066,0.0,0.0,0.0,0.0,0.0,0.0,0.0,0.0,6.0293,6.0321,6.0456,6.0495,6.0674,6.1492,6.2375,6.3225,6.4039,6.4853,6.5588,0.0,0.0,0.0,0.0,0.0,0.0,0.0,0.0,0.0,0.0,0.0,0.0,0.0,0.0,0.0,0.0,0.0,0.0,0.0,0.0,0.0,0.0,0.0,0.0,0.0,0.0,0.0,0.0,7.6938,7.7775,7.8527,7.9383,8.0269,8.1154,8.1124,8.1124,8.1214,8.1263,8.1319,8.14,8.1427,8.1453,8.1453,8.1427,8.1427,8.1427,8.1453,8.1453,8.1453,8.14,8.1181,8.0845,8.0872,8.0705,8.0396,0.0,0.0,0.0,0.0,0.0,0.0,0.0,0.0,0.0,0.0,0.0,0.0,0.0,0.0,0.0,0.0,0.0,0.0,0.0,0.0,5.56,0.0,0.0,5.7018,5.8109,5.81,5.9269,6.1616,6.3865,6.4671,6.4099,0.0,0.0,0.0,0.0,0.0,0.0,0.0,0.0,0.0,0.0,5.8627,0.0,0.0,0.0,0.0,0.0,0.0,0.0,0.0,6.0332,6.036,6.0494,6.0545,6.0719,6.1589,6.2463,6.331,6.4101,6.4928,6.5753,0.0,0.0,0.0,0.0,0.0,0.0,0.0,0.0,0.0,0.0,0.0,0.0,0.0,0.0,0.0,0.0,0.0,0.0,0.0,0.0,0.0,0.0,0.0,0.0,0.0,0.0,0.0,0.0,7.7368,7.8216,7.9008,7.9895,8.0627,8.1176,8.1154,8.1154,8.1184,8.1244,8.1291,8.14,8.1453,8.1478,8.1504,8.1504,8.1504,8.1504,8.1504,8.1504,8.1504,8.1453,8.1427,8.1427,8.1427,8.1427,8.135,0.0,0.0,0.0,0.0,0.0,0.0,0.0,0.0,0.0,0.0,0.0,0.0,0.0,0.0,0.0,0.0,0.0,0.0,0.0,5.524,5.5621,5.6446,5.6488,5.7282,5.8957,5.9035,5.9902,6.1616,6.3281,6.4103,6.4052,6.3132,0.0,0.0,0.0,0.0,0.0,0.0,0.0,0.0,0.0,5.855,0.0,0.0,0.0,0.0,0.0,0.0,0.0,0.0,6.0408,6.0398,6.0571,6.061,6.0776,6.1757,6.2589,6.3372,6.418,6.4999,0.0,0.0,0.0,0.0,0.0,0.0,0.0,0.0,0.0,0.0,0.0,0.0,0.0,0.0,0.0,0.0,0.0,0.0,0.0,0.0,0.0,0.0,0.0,0.0,0.0,0.0,0.0,0.0,0.0,7.8282,7.9131,7.9979,8.0867,8.1263,8.1214,8.1214,8.1184,8.1093,8.1184,8.1263,8.14,8.14,8.1427,8.1504,8.1504,8.1504,8.1504,8.1504,8.1504,8.1504,8.1504,8.1504,8.1504,8.1504,8.1504,8.1504,0.0,0.0,0.0,0.0,0.0,0.0,0.0,0.0,0.0,0.0,0.0,0.0,0.0,0.0,0.0,0.0,0.0,0.0,0.0,5.6167,5.623,5.6485,5.6488,5.7282,5.8957,6.0789,6.1948,6.2435,6.3542,6.378,6.3093,0.0,0.0,6.1303,0.0,0.0,0.0,0.0,0.0,0.0,5.9331,5.9656,0.0,0.0,0.0,0.0,0.0,0.0,0.0,0.0,0.0,0.0,6.0559,6.0635,6.0839,6.1796,6.2627,6.3449,6.4245,0.0,0.0,0.0,0.0,0.0,0.0,0.0,0.0,0.0,0.0,0.0,0.0,0.0,0.0,0.0,0.0,0.0,0.0,0.0,0.0,0.0,0.0,0.0,0.0,0.0,0.0,0.0,0.0,0.0,0.0,7.8953,7.9842,8.0061,8.091,8.1347,8.1347,8.1273,8.1214,8.1184,8.1154,8.1184,8.1234,8.1291,8.1319,8.1347,8.14,8.1427,8.1427,8.1478,8.1504,8.1504,8.1504,8.1504,8.1504,8.1504,8.1504,8.1504,0.0,0.0,0.0,0.0,0.0,0.0,0.0,0.0,0.0,0.0,0.0,0.0,0.0,0.0,0.0,0.0,0.0,0.0,0.0,0.0,5.6485,5.6503,5.6519,5.7282,5.8957,6.1218,6.2338,6.2257,6.3181,6.3288,6.2677,0.0,0.0,6.1763,0.0,6.1852,0.0,0.0,6.1543,6.1427,6.0208,6.0184,6.0795,0.0,0.0,0.0,0.0,0.0,0.0,0.0,0.0,0.0,6.061,6.066,6.094,6.2219,6.2935,6.3565,6.4731,0.0,0.0,0.0,0.0,0.0,0.0,0.0,0.0,0.0,0.0,0.0,0.0,0.0,0.0,0.0,0.0,0.0,0.0,0.0,0.0,0.0,0.0,0.0,0.0,0.0,0.0,0.0,0.0,0.0,0.0,7.9622,8.0318,8.0641,8.1156,8.1427,8.14,8.1291,8.1244,8.1214,8.1124,8.1124,8.1154,8.1244,8.1263,8.1291,8.1374,8.14,8.1427,8.1478,8.1504,8.1504,8.1504,8.1504,8.1504,8.1504,8.1504,8.1504,0.0,0.0,0.0,0.0,0.0,0.0,0.0,0.0,0.0,0.0,0.0,0.0,0.0,0.0,0.0,0.0,0.0,0.0,0.0,0.0,5.6503,5.6511,5.6658,5.7477,5.9074,6.075,6.1559,6.1489,6.2301,6.2653,0.0,0.0,6.188,6.2499,0.0,6.3029,6.3632,6.2859,6.2491,6.2277,6.0654,6.0439,6.0911,5.9958,0.0,0.0,0.0,0.0,0.0,0.0,0.0,0.0,6.066,6.071,6.1055,6.268,6.3243,6.3666,0.0,0.0,0.0,0.0,0.0,0.0,0.0,0.0,0.0,0.0,0.0,0.0,0.0,0.0,0.0,0.0,0.0,0.0,0.0,0.0,0.0,0.0,0.0,0.0,0.0,0.0,0.0,0.0,0.0,0.0,0.0,8.0266,8.0691,8.1465,8.1504,8.1478,8.14,8.1319,8.1263,8.1214,8.1124,8.1093,8.1093,8.1154,8.1244,8.1291,8.1374,8.1427,8.1504,8.1504,8.1504,8.1504,8.1504,8.1504,8.1504,8.1504,8.1504,8.1504,0.0,0.0,0.0,0.0,0.0,0.0,0.0,0.0,0.0,0.0,0.0,0.0,0.0,0.0,0.0,0.0,0.0,0.0,0.0,0.0,5.6496,5.6511,5.7749,5.8957,6.001,6.1062,6.1559,6.1489,6.169,0.0,0.0,0.0,0.0,6.2538,0.0,6.3571,6.3671,6.3478,6.34,6.3303,6.2181,6.1811,6.1825,6.0949,0.0,0.0,0.0,0.0,0.0,0.0,0.0,0.0,6.0685,6.0734,6.0988,6.205,6.282,6.3551,0.0,0.0,0.0,0.0,0.0,0.0,0.0,0.0,0.0,0.0,0.0,0.0,0.0,0.0,0.0,0.0,0.0,0.0,0.0,0.0,0.0,0.0,0.0,0.0,0.0,0.0,0.0,0.0,0.0,0.0,8.015,8.0846,8.131,8.1504,8.1504,8.1478,8.1478,8.1347,8.1291,0.0,8.1154,8.1093,8.1093,8.1124,8.1184,8.1291,8.1374,8.1427,8.1504,8.1504,8.1504,8.1504,8.1504,8.1504,8.1504,8.1504,8.1504,8.1504,0.0,0.0,0.0,0.0,0.0,0.0,0.0,0.0,0.0,0.0,0.0,0.0,0.0,0.0,0.0,0.0,0.0,0.0,0.0,0.0,0.0,5.7048,5.8724,5.9854,6.0282,6.114,6.1559,6.1489,6.1495,0.0,0.0,0.0,0.0,6.3158,0.0,6.4578,6.487,6.4483,6.4329,6.4251,6.3342,6.2684,6.2197,0.0,0.0,0.0,0.0,0.0,0.0,0.0,0.0,0.0,0.0,0.0,6.1065,6.1867,6.2737,6.3608,0.0,0.0,0.0,0.0,0.0,0.0,0.0,0.0,0.0,0.0,0.0,0.0,0.0,0.0,0.0,0.0,0.0,0.0,0.0,0.0,0.0,0.0,0.0,0.0,0.0,0.0,0.0,0.0,0.0,7.9531,8.0769,8.0846,8.1078,8.1504,8.1117,8.1078,8.1504,8.14,8.1319,8.1291,8.1214,8.1154,8.1154,8.1154,8.1214,8.1291,8.1374,8.1427,8.1504,8.1504,8.1504,8.1504,8.1504,8.1504,8.1504,8.1504,8.1504,8.1504,0.0,0.0,0.0,0.0,0.0,0.0,0.0,0.0,0.0,0.0,0.0,0.0,0.0,0.0,0.0,0.0,0.0,0.0,0.0,0.0,0.0,5.7905,5.9464,6.0282,6.0282,6.114,6.1481,6.1305,0.0,0.0,0.0,0.0,0.0,6.3856,0.0,6.5663,6.6167,6.5489,6.5218,6.5141,6.4251,6.3458,0.0,0.0,0.0,0.0,0.0,0.0,0.0,0.0,0.0,0.0,0.0,0.0,6.113,6.1742,6.2574,6.3444,0.0,0.0,0.0,0.0,0.0,0.0,0.0,0.0,0.0,0.0,0.0,0.0,0.0,0.0,0.0,0.0,0.0,0.0,0.0,0.0,0.0,0.0,0.0,0.0,0.0,0.0,0.0,0.0,0.0,7.9685,8.1194,8.0614,8.0536,8.1271,8.0575,8.0614,8.1504,8.1427,8.1374,8.1319,8.1234,8.1244,8.1244,8.1244,8.1234,8.1319,8.1374,8.1453,8.1504,8.1504,8.1504,8.1504,8.1504,8.1504,8.1504,8.1504,8.1504,8.1504,0.0,0.0,0.0,0.0,0.0,0.0,0.0,0.0,0.0,0.0,0.0,0.0,0.0,0.0,0.0,0.0,0.0,0.0,0.0,0.0,0.0,5.8802,5.9776,6.0282,6.0282,6.114,6.1218,6.0477,0.0,0.0,0.0,0.0,0.0,6.3945,0.0,0.0,6.6284,6.6089,6.6031,6.5953,6.5141,6.4734,0.0,0.0,0.0,0.0,0.0,0.0,0.0,0.0,0.0,0.0,0.0,0.0,6.1036,6.113,6.1709,6.2579,0.0,0.0,0.0,0.0,0.0,0.0,0.0,0.0,0.0,0.0,0.0,0.0,0.0,0.0,0.0,0.0,0.0,0.0,0.0,0.0,0.0,0.0,0.0,0.0,0.0,0.0,0.0,0.0,7.8998,7.9415,8.0343,8.0266,8.0266,8.0382,8.0266,8.0614,8.1504,8.1427,8.14,8.1374,8.1319,8.1263,8.1263,8.1347,8.1374,8.1374,8.1453,8.1478,8.1504,8.1504,8.1504,8.1504,8.1504,8.1504,8.1504,8.1504,8.1504,8.1504,0.0,0.0,0.0,0.0,0.0,0.0,0.0,0.0,0.0,0.0,0.0,0.0,0.0,0.0,0.0,0.0,5.6553,5.6692,0.0,0.0,0.0,5.9698,6.0555,6.0789,6.0321,6.0672,6.0663,0.0,0.0,0.0,0.0,6.3623,6.424,0.0,0.0,0.0,0.0,0.0,0.0,0.0,0.0,0.0,0.0,0.0,0.0,0.0,0.0,0.0,0.0,0.0,0.0,0.0,6.1041,0.0,0.0,0.0,0.0,0.0,0.0,0.0,0.0,0.0,0.0,0.0,0.0,0.0,0.0,0.0,0.0,0.0,0.0,0.0,0.0,0.0,0.0,0.0,0.0,0.0,0.0,0.0,0.0,0.0,0.0,0.0,0.0,0.0,7.9424,7.984,8.0188,7.9763,7.9531,7.9531,7.9531,7.9918,8.0769,8.1246,8.1427,8.14,8.1374,8.1347,8.1347,8.1427,8.1427,8.14,8.1478,8.1504,8.1504,8.1504,8.1504,8.1504,8.1504,8.1504,8.1504,8.1504,8.1504,8.1504,0.0,0.0,0.0,0.0,0.0,0.0,0.0,0.0,0.0,0.0,0.0,0.0,0.0,0.0,0.0,0.0,5.6748,5.72,5.807,0.0,0.0,6.0252,6.114,6.1179,6.0321,6.0516,0.0,0.0,0.0,0.0,6.3042,6.3701,6.4668,0.0,6.6217,0.0,0.0,0.0,0.0,0.0,0.0,0.0,0.0,0.0,0.0,0.0,0.0,0.0,0.0,0.0,0.0,0.0,0.0,0.0,0.0,0.0,0.0,0.0,0.0,0.0,0.0,0.0,0.0,0.0,0.0,0.0,0.0,0.0,0.0,0.0,0.0,0.0,0.0,0.0,0.0,0.0,0.0,0.0,0.0,0.0,0.0,0.0,0.0,0.0,0.0,0.0,7.9718,7.9903,7.9918,7.9105,7.868,7.868,7.8873,7.9376,8.0188,8.1078,8.1478,8.1427,8.1427,8.1427,8.1427,8.1478,8.1478,8.1427,8.1478,8.1504,8.1504,8.1504,8.1504,8.1504,8.1504,8.1504,8.1504,8.1504,8.1504,8.1504,0.0,0.0,0.0,0.0,0.0,0.0,0.0,0.0,0.0,0.0,0.0,0.0,0.0,0.0,5.6585,5.6606,5.7299,5.8103,5.8981,5.9779,6.0239,6.0317,6.111,0.0,6.0321,6.1101,0.0,0.0,0.0,0.0,6.3935,6.3987,6.5304,6.7635,6.6772,6.6406,6.6389,0.0,0.0,0.0,0.0,0.0,0.0,0.0,0.0,0.0,0.0,0.0,0.0,0.0,0.0,0.0,0.0,0.0,0.0,0.0,0.0,0.0,0.0,0.0,0.0,0.0,0.0,0.0,0.0,0.0,0.0,0.0,0.0,0.0,0.0,0.0,0.0,0.0,0.0,0.0,0.0,0.0,0.0,0.0,0.0,0.0,0.0,0.0,0.0,0.0,7.9609,7.9138,7.9067,7.8254,7.7751,7.7751,7.8564,7.9376,8.0188,8.1078,8.1504,8.1504,8.1504,8.1504,8.1504,8.1504,8.1504,8.1504,8.1504,8.1504,8.1504,8.1504,8.1504,8.1504,8.1504,8.1504,8.1504,8.1504,8.1504,8.1504,0.0,0.0,0.0,0.0,0.0,0.0,0.0,0.0,0.0,0.0,0.0,0.0,0.0,0.0,5.8186,5.8207,5.8465,5.9006,5.9898,6.0191,6.0574,6.112,6.1424,6.1222,6.0364,0.0,0.0,0.0,0.0,6.1795,6.4013,6.4517,6.5848,6.779,6.7393,6.7532,6.8075,6.8023,0.0,0.0,0.0,6.6824,0.0,0.0,0.0,0.0,0.0,0.0,0.0,0.0,0.0,0.0,0.0,0.0,0.0,0.0,0.0,0.0,0.0,0.0,0.0,0.0,0.0,0.0,0.0,0.0,0.0,0.0,0.0,0.0,0.0,0.0,0.0,0.0,0.0,0.0,0.0,0.0,0.0,0.0,0.0,0.0,0.0,0.0,0.0,0.0,0.0,7.967,7.9106,7.8247,7.7489,7.6947,7.8278,7.9647,8.1039,8.1349,8.1504,8.1504,8.1504,8.1504,8.1504,8.1504,8.1504,8.1504,8.1504,8.1504,8.1504,8.1504,8.1504,8.1504,8.1504,8.1504,8.1504,8.1504,8.1528,8.1577,0.0,0.0,0.0,0.0,0.0,0.0,0.0,0.0,0.0,0.0,0.0,0.0,0.0,0.0,0.0,5.9495,5.9524,5.9909,6.0768,6.0834,6.1062,6.1602,6.1602,6.1361,6.0815,0.0,0.0,0.0,0.0,0.0,0.0,0.0,6.6018,6.8218,6.8186,0.0,0.0,0.0,0.0,6.8097,0.0,0.0,6.7265,0.0,0.0,0.0,0.0,0.0,0.0,0.0,0.0,0.0,0.0,0.0,0.0,0.0,0.0,0.0,0.0,0.0,0.0,0.0,0.0,6.9228,0.0,0.0,0.0,0.0,0.0,0.0,0.0,0.0,0.0,0.0,0.0,0.0,0.0,0.0,0.0,0.0,0.0,0.0,0.0,0.0,0.0,0.0,0.0,0.0,7.8744,7.7849,7.7401,7.7362,7.8441,7.9826,8.1528,8.1478,8.1478,8.1504,8.1478,8.1478,8.1528,8.1504,8.1504,8.1528,8.1504,8.1504,8.1504,8.1504,8.1504,8.1504,8.1504,8.1504,8.1504,8.1504,8.1553,8.16,0.0,0.0,0.0,0.0,0.0,0.0,0.0,0.0,0.0,0.0,0.0,0.0,0.0,0.0,0.0,6.0432,6.051,6.0861,6.172,6.1783,6.1777,6.1738,6.1687,6.1634,6.1595,0.0,0.0,0.0,0.0,0.0,0.0,0.0,6.5839,0.0,6.9111,6.915,6.9189,0.0,6.915,6.915,0.0,6.9023,6.889,0.0,0.0,0.0,6.6651,6.5799,0.0,0.0,0.0,0.0,0.0,0.0,0.0,0.0,0.0,0.0,0.0,0.0,0.0,0.0,0.0,0.0,6.8668,0.0,0.0,0.0,0.0,0.0,0.0,0.0,0.0,0.0,0.0,0.0,0.0,0.0,0.0,0.0,0.0,0.0,0.0,0.0,0.0,0.0,7.9175,7.8806,7.793,7.7116,7.7387,7.9055,7.9067,7.9858,8.1562,8.1478,8.1427,8.1504,8.1427,8.1478,8.16,8.1528,8.1553,8.16,8.1528,8.1504,8.1504,8.1504,8.1504,8.1504,8.1504,8.1504,8.1504,8.1504,8.1553,8.1624,0.0,0.0,0.0,0.0,0.0,0.0,0.0,0.0,0.0,0.0,0.0,0.0,0.0,0.0,0.0,0.0,6.3204,6.3321,6.3555,6.3594,6.3316,6.2652,6.2608,6.2335,6.171,0.0,0.0,0.0,0.0,0.0,0.0,0.0,0.0,0.0,6.971,7.0316,7.0898,7.0898,0.0,0.0,6.995,6.96,0.0,0.0,0.0,0.0,0.0,6.7095,0.0,0.0,6.4831,6.4309,0.0,0.0,0.0,0.0,0.0,0.0,6.185,0.0,0.0,0.0,0.0,0.0,0.0,0.0,0.0,0.0,0.0,0.0,0.0,0.0,0.0,0.0,0.0,0.0,0.0,0.0,0.0,0.0,0.0,0.0,0.0,0.0,0.0,0.0,7.8766,7.83,7.8049,7.7739,7.801,7.9055,7.9692,8.0523,8.16,8.1577,8.1528,8.1504,8.1528,8.1577,8.16,8.1624,8.1646,8.1669,8.1646,8.1624,8.1577,8.1528,8.1504,8.1504,8.1504,8.1528,8.1577,8.1577,8.1646,8.1734,0.0,0.0,0.0,0.0,0.0,0.0,0.0,0.0,0.0,0.0,0.0,0.0,0.0,0.0,0.0,0.0,6.4317,6.431,6.4297,6.4297,6.4062,6.3555,6.3204,6.2774,6.2267,6.1861,0.0,0.0,0.0,0.0,0.0,0.0,0.0,0.0,0.0,0.0,0.0,0.0,0.0,0.0,7.0821,0.0,0.0,6.9733,6.9584,0.0,0.0,0.0,6.742,6.6151,6.5528,0.0,0.0,0.0,0.0,0.0,0.0,0.0,0.0,0.0,0.0,0.0,0.0,0.0,6.6037,6.7422,0.0,0.0,0.0,0.0,0.0,0.0,0.0,0.0,0.0,0.0,0.0,0.0,0.0,0.0,0.0,0.0,0.0,7.7948,7.8186,7.8371,7.8215,7.7926,7.758,7.7777,7.8341,7.9175,7.9988,8.086,8.1691,8.1624,8.16,8.1577,8.16,8.1624,8.1691,8.1691,8.1713,8.1734,8.1713,8.1669,8.1646,8.16,8.1553,8.1504,8.1504,8.1553,8.16,8.16,8.1691,8.1814,0.0,0.0,0.0,0.0,0.0,0.0,0.0,0.0,0.0,0.0,0.0,0.0,0.0,0.0,0.0,0.0,6.4607,6.4597,6.4579,6.4579,6.4536,6.4458,6.3716,6.3247,6.3169,6.2384,0.0,0.0,0.0,0.0,0.0,0.0,0.0,0.0,0.0,0.0,0.0,0.0,0.0,7.1598,7.1598,7.1598,0.0,0.0,7.0455,0.0,6.8596,6.7937,6.7704,6.6834,6.6037,0.0,0.0,0.0,0.0,0.0,6.2492,0.0,0.0,0.0,0.0,0.0,0.0,0.0,6.5231,6.662,6.7786,0.0,0.0,0.0,0.0,0.0,0.0,0.0,0.0,0.0,0.0,0.0,0.0,0.0,0.0,0.0,7.6921,7.7623,7.7754,7.6947,7.7555,7.7641,7.6842,7.7658,7.8513,7.929,8.0184,8.0999,8.1775,8.1669,8.1646,8.1691,8.1646,8.1691,8.1814,8.1734,8.1734,8.1814,8.1734,8.1713,8.1713,8.1713,8.1624,8.1504,8.1528,8.1553,8.1624,8.1624,8.1691,8.1834,0.0,0.0,0.0,0.0,0.0,0.0,0.0,0.0,0.0,0.0,0.0,0.0,0.0,0.0,0.0,0.0,6.6406,6.6405,6.6405,6.6398,6.6078,6.5375,6.518,6.475,6.405,6.3837,6.3711,0.0,0.0,0.0,0.0,0.0,0.0,0.0,0.0,0.0,0.0,0.0,0.0,7.1598,7.1598,0.0,7.1598,7.1474,7.1397,7.1193,7.016,6.9399,6.8613,0.0,6.6146,6.5445,0.0,0.0,0.0,0.0,0.0,0.0,0.0,0.0,0.0,0.0,0.0,0.0,6.5358,6.6185,6.7108,0.0,6.8232,6.8699,6.939,6.9663,6.978,6.9819,0.0,0.0,0.0,0.0,0.0,0.0,0.0,0.0,7.6999,7.7116,7.7155,7.6975,7.7092,7.7039,7.6803,7.8241,7.9095,7.929,8.0805,8.166,8.1814,8.1755,8.1734,8.1691,8.1734,8.1755,8.1814,8.1854,8.1873,8.1873,8.1873,8.1834,8.1755,8.1755,8.1691,8.16,8.1646,8.1669,8.1691,8.1734,8.1834,8.1873,0.0,0.0,0.0,0.0,0.0,0.0,0.0,0.0,0.0,0.0,0.0,0.0,0.0,0.0,0.0,0.0,0.0,0.0,0.0,6.6912,6.6716,6.6286,6.5818,6.5388,6.4958,6.4487,6.4242,6.4258,0.0,0.0,0.0,0.0,0.0,0.0,0.0,0.0,0.0,0.0,7.1598,7.1598,7.1598,0.0,7.163,7.1699,7.1684,7.1529,7.0712,6.9614,6.8436,6.763,6.6829,0.0,0.0,6.5568,6.4905,0.0,6.4604,6.4247,0.0,0.0,0.0,6.4258,0.0,0.0,0.0,6.612,6.6853,6.7305,6.7706,6.8115,6.8582,0.0,6.9284,6.9284,6.9678,7.0426,7.1753,7.3399,7.4762,7.5596,7.6103,7.6532,7.696,7.6999,7.6999,7.6999,7.696,7.6897,7.6842,7.8414,7.9325,7.929,8.0999,8.1873,8.1854,8.1854,8.1834,8.1814,8.1834,8.1854,8.1854,8.1873,8.1892,8.1892,8.1892,8.1873,8.1854,8.1854,8.1814,8.1691,8.1691,8.1734,8.1737,8.1775,8.1835,8.189,0.0,0.0,0.0,0.0,0.0,0.0,0.0,0.0,0.0,0.0,0.0,0.0,0.0,0.0,0.0,0.0,0.0,0.0,0.0,0.0,6.707,6.6914,6.6211,6.5859,6.5859,6.5156,6.4802,6.4818,0.0,0.0,0.0,0.0,0.0,0.0,0.0,0.0,0.0,0.0,0.0,7.1598,0.0,7.1653,7.1684,7.1699,7.1714,7.1573,7.0795,6.9617,6.8448,6.811,0.0,6.7032,6.6868,6.6366,0.0,0.0,0.0,0.0,0.0,0.0,0.0,0.0,0.0,6.5741,0.0,0.0,0.0,6.6571,0.0,0.0,0.0,0.0,0.0,0.0,0.0,0.0,0.0,7.163,0.0,7.5006,7.5491,7.5974,7.6688,7.6882,7.6999,7.6999,7.696,7.6897,7.6898,7.8487,7.9381,7.929,8.0999,8.1892,8.1892,8.1892,8.1892,8.1892,8.1892,8.1892,8.1892,8.1892,8.1892,8.1892,8.1892,8.197,8.2126,8.2126,8.2223,8.2261,8.191,8.1737,8.1815,8.1815,8.1854,8.1926,0.0,0.0,0.0,0.0,0.0,0.0,0.0,0.0,0.0,0.0,0.0,0.0,0.0,0.0,0.0,0.0,0.0,0.0,6.8086,0.0,0.0,6.6914,6.6797,6.6758,6.6758,6.664,6.6601,6.6601,6.663,0.0,0.0,0.0,0.0,0.0,7.0952,0.0,0.0,0.0,7.1684,0.0,7.1675,7.1675,0.0,7.169,7.1704,7.1587,7.077,7.0382,6.9985,0.0,6.8046,6.7819,0.0,6.6756,0.0,0.0,0.0,0.0,0.0,0.0,0.0,0.0,6.6639,0.0,0.0,0.0,6.6561,6.5819,0.0,0.0,0.0,0.0,0.0,0.0,0.0,0.0,6.8279,6.9894,7.1597,7.3264,7.4792,7.5741,7.5819,7.6571,7.6999,7.6999,7.696,7.6923,7.6887,7.8481,7.9381,7.929,8.0999,8.1892,8.1892,8.1892,8.1892,8.1892,8.1892,8.1892,8.1892,8.1892,8.1892,8.1892,8.1892,8.2281,8.2941,8.2941,8.3408,8.3971,8.2456,8.1835,8.1815,8.1892,8.1872,8.1926,0.0,0.0,0.0,0.0,0.0,0.0,0.0,0.0,0.0,0.0,0.0,0.0,0.0,0.0,0.0,0.0,0.0,0.0,0.0,0.0,0.0,0.0,6.8359,0.0,6.7656,6.7656,6.7422,6.6914,6.7381,6.7607,0.0,0.0,0.0,0.0,7.1299,0.0,7.1758,0.0,0.0,0.0,0.0,0.0,0.0,7.1758,7.1745,7.1704,7.1381,7.0959,7.0463,0.0,6.8892,0.0,0.0,0.0,0.0,0.0,0.0,0.0,0.0,0.0,0.0,0.0,0.0,0.0,0.0,0.0,6.6717,0.0,0.0,0.0,0.0,0.0,0.0,0.0,6.6544,0.0,0.0,0.0,7.0011,0.0,0.0,0.0,7.5624,7.6013,7.6454,7.696,7.6936,7.6897,7.6887,7.8481,7.9381,7.929,8.0999,8.1892,8.1892,8.1892,8.1911,8.189,8.189,8.1908,8.1981,8.1981,8.1981,8.1981,8.2487,8.2915,8.3265,8.377,8.4198,8.447,8.3732,8.3148,8.2604,8.2137,8.1959,8.1952,0.0,0.0,0.0,0.0,0.0,0.0,0.0,0.0,0.0,0.0,0.0,0.0,7.1948,7.1441,0.0,0.0,0.0,7.0015,0.0,0.0,6.9648,0.0,0.0,0.0,0.0,6.8515,6.8203,6.7578,6.8203,6.8513,0.0,0.0,0.0,0.0,0.0,7.1817,7.1817,0.0,0.0,7.1743,7.1767,7.1776,7.1819,7.1817,7.1821,7.1778,7.1838,7.1438,7.0926,7.0687,6.9801,0.0,6.8239,0.0,0.0,0.0,0.0,0.0,6.6895,0.0,0.0,0.0,0.0,0.0,0.0,0.0,0.0,0.0,0.0,0.0,0.0,0.0,0.0,0.0,0.0,6.6756,0.0,0.0,0.0,0.0,0.0,0.0,0.0,7.5324,7.5596,7.622,7.6456,7.6519,7.6552,7.8365,7.9381,7.929,8.0999,8.1892,8.1892,8.1911,8.189,8.1887,8.1943,8.1959,8.1991,8.1991,8.1991,8.2069,8.2925,8.3431,8.3704,8.456,8.5065,8.526,8.5043,8.4576,8.3875,8.277,8.2216,8.1998,0.0,6.5992,0.0,0.0,0.0,0.0,0.0,0.0,0.0,0.0,0.0,0.0,0.0,0.0,0.0,0.0,0.0,7.1558,7.0699,0.0,7.0273,0.0,0.0,0.0,0.0,0.0,6.9336,6.9336,6.9336,6.9375,0.0,0.0,0.0,0.0,0.0,7.1856,7.1817,7.1817,7.1838,7.1885,7.1885,7.1877,7.1903,0.0,7.1856,7.1827,7.1876,0.0,0.0,7.0967,7.066,0.0,0.0,0.0,0.0,0.0,0.0,0.0,0.0,0.0,0.0,6.6914,0.0,0.0,0.0,0.0,6.6664,0.0,0.0,0.0,0.0,0.0,0.0,0.0,0.0,0.0,0.0,0.0,0.0,0.0,0.0,0.0,0.0,7.4439,7.4439,7.4478,7.5222,7.5651,7.5648,7.8015,7.9381,7.929,8.0999,8.1892,8.1892,8.1908,8.1887,8.1887,8.1975,8.1991,8.1991,8.1991,8.1991,8.2069,8.2925,8.3742,8.4521,8.5416,8.6272,8.6933,8.6164,8.5828,8.5619,8.3875,8.2723,8.1998,0.0,0.0,0.0,0.0,0.0,0.0,0.0,6.8644,0.0,0.0,0.0,0.0,0.0,0.0,7.3432,0.0,0.0,7.2495,7.1636,7.1549,0.0,0.0,0.0,7.0831,0.0,0.0,0.0,0.0,0.0,0.0,7.0273,7.113,7.1549,0.0,0.0,7.1885,0.0,0.0,0.0,0.0,0.0,7.3602,7.3509,0.0,0.0,7.1885,7.1876,7.1893,0.0,7.1579,7.1156,7.0582,6.9996,6.902,6.8054,6.7811,6.7342,0.0,0.0,0.0,6.6898,6.6908,0.0,0.0,0.0,0.0,0.0,0.0,0.0,0.0,0.0,0.0,0.0,0.0,0.0,0.0,0.0,0.0,0.0,0.0,0.0,0.0,0.0,0.0,7.3815,7.4365,7.5145,7.5571,7.5526,7.7943,7.9308,7.929,8.0999,8.1911,8.1908,8.1908,8.192,8.1968,8.1983,8.1998,8.2065,8.2065,8.2376,8.296,8.3856,8.4713,8.557,8.6388,8.6894,8.7128,8.687,8.6416,8.5832,8.4649,8.4026,8.3806,6.6862,0.0,0.0,0.0,0.0,0.0,0.0,0.0,0.0,0.0,7.2383,0.0,7.3705,0.0,7.429,0.0,7.3744,7.3354,7.2534,7.2471,0.0,7.2479,7.2479,0.0,0.0,0.0,0.0,0.0,0.0,7.1172,7.1172,7.1758,7.1986,0.0,0.0,0.0,0.0,0.0,7.3189,0.0,0.0,7.4513,0.0,0.0,7.2626,7.237,0.0,7.2143,7.1884,7.193,7.1591,7.1128,7.0816,6.9918,6.8991,6.8703,6.8047,6.7375,6.7351,6.7342,0.0,6.7321,6.7559,0.0,6.7402,0.0,0.0,0.0,0.0,0.0,0.0,0.0,0.0,0.0,0.0,0.0,0.0,6.5155,0.0,0.0,0.0,0.0,0.0,0.0,7.2501,7.3002,7.4042,7.4778,0.0,7.746,7.8979,7.929,8.0978,8.189,8.1887,8.192,8.1952,8.2012,8.2026,8.2039,8.2104,8.2104,8.2572,8.3429,8.4325,8.5182,8.604,8.6858,8.7209,8.7209,8.7209,8.6897,8.6312,8.5455,8.4988,8.4754,0.0,0.0,0.0,0.0,6.6947,0.0,0.0,0.0,7.0119,0.0,7.2768,7.3621,7.448,7.4597,7.4597,7.4558,7.4564,0.0,7.3393,7.3354,0.0,0.0,7.3354,7.3354,7.3315,0.0,0.0,0.0,0.0,0.0,7.1992,7.1992,7.1986,7.1987,7.1987,0.0,7.2034,7.2892,7.3321,7.3485,7.4285,7.4642,7.4642,7.4623,7.4102,7.3306,7.3243,7.2665,7.1969,7.1982,7.1987,7.187,7.1011,7.0738,7.0543,6.9728,6.8906,6.8245,6.8245,6.82,6.8161,6.8161,0.0,0.0,0.0,0.0,6.7941,0.0,0.0,0.0,0.0,0.0,0.0,0.0,0.0,0.0,0.0,0.0,0.0,0.0,0.0,0.0,0.0,7.0043,7.0562,7.057,7.203,7.3352,0.0,7.6621,7.8357,7.9269,8.0936,8.1848,8.1887,8.1968,8.2012,8.2012,8.2052,8.2104,8.2143,8.2143,8.265,8.3585,8.4403,8.526,8.6118,8.6897,8.7209,8.7209,8.7209,8.7209,8.7092,8.6351,8.5533,8.4961,6.8036,6.7343,6.7099,0.0,6.7796,6.8062,0.0,0.0,0.0,0.0,7.4197,7.5239,7.5456,7.6047,7.6164,7.554,7.5462,0.0,0.0,0.0,0.0,7.4173,7.4173,7.39,7.3315,7.3315,0.0,7.1997,0.0,0.0,7.1992,7.1992,7.1986,7.1987,0.0,0.0,7.2912,7.3855,7.4948,7.6119,7.636,7.6438,0.0,0.0,7.5885,7.4942,7.3686,7.3101,7.284,7.2221,7.1987,7.1948,7.1753,7.1206,7.0665,7.0423,6.9759,6.9098,6.9098,6.9098,6.9059,6.9059,6.9215,6.9333,0.0,0.0,0.0,0.0,0.0,0.0,0.0,0.0,0.0,0.0,0.0,0.0,0.0,0.0,0.0,0.0,0.0,0.0,6.8287,6.9163,6.9878,7.0492,7.151,7.2757,0.0,0.0,7.7875,7.9314,8.0458,8.133,8.1983,8.1998,8.2026,8.2052,8.2104,8.2455,8.3078,8.3078,8.3897,8.5338,8.5572,8.6118,8.6897,8.7092,8.7222,8.7286,8.7286,8.7259,8.7231,8.6988,8.6793,8.6662,6.8905,0.0,0.0,6.8591,0.0,0.0,6.9879,0.0,0.0,7.3581,7.4934,0.0,7.6262,7.6809,7.6906,7.6399,7.636,0.0,0.0,0.0,0.0,7.5071,7.5071,7.4876,7.4408,7.4017,0.0,7.2573,0.0,0.0,7.1992,7.1992,7.199,7.2017,0.0,7.2822,0.0,7.4623,7.5902,7.7101,7.7101,0.0,0.0,7.7101,7.6789,7.6125,7.4435,7.3582,7.3158,7.23,7.1987,7.1987,7.1987,7.1651,7.1281,7.1286,7.0647,6.9972,6.9962,6.9952,6.9985,6.9985,7.0219,7.0414,7.0063,6.9952,6.9606,0.0,0.0,0.0,0.0,0.0,0.0,0.0,0.0,0.0,0.0,0.0,0.0,0.0,0.0,0.0,6.7409,6.8287,6.9116,6.9928,7.0754,0.0,0.0,0.0,7.6933,7.8256,7.9905,8.0971,8.1467,8.1831,8.2052,8.2104,8.2494,8.2922,8.339,8.378,8.4715,8.6001,8.6001,8.6468,8.7209,8.7222,8.7286,8.7298,8.7309,8.7292,8.7302,8.727,8.7259,8.7281,0.0,0.0,0.0,0.0,0.0,0.0,0.0,7.1729,0.0,7.4377,0.0,7.622,7.7077,7.7215,7.7296,7.7414,0.0,7.7101,7.636,7.6203,7.6125,7.6125,7.6047,7.593,7.5813,7.5071,0.0,0.0,0.0,0.0,7.1992,7.1992,7.1992,7.2031,0.0,0.0,0.0,7.5379,7.6466,7.7112,7.7107,7.7107,7.7107,7.7101,7.7101,7.6906,7.5345,7.4212,7.3315,7.2339,7.1987,7.1987,7.1997,7.1984,7.1991,7.2002,7.1455,7.0881,7.086,7.0844,7.087,7.087,7.1377,7.1728,7.1026,7.0844,7.0426,6.8786,6.8366,6.8027,0.0,0.0,0.0,0.0,0.0,0.0,0.0,0.0,0.0,0.0,0.0,0.0,6.6717,6.7487,6.828,6.9099,0.0,0.0,0.0,0.0,7.5896,7.6869,7.9311,8.0688,8.0805,8.1663,8.2143,8.226,8.3039,8.3507,8.378,8.452,8.5338,8.6157,8.6157,8.6559,8.7222,8.7298,8.7309,8.7309,8.7302,8.7312,8.7312,8.7312,8.7312,8.7312,0.0,0.0,0.0,0.0,0.0,7.1909,7.2651,7.3454,7.4322,7.5351,7.622,7.7116,7.7973,7.8074,7.839,7.917,7.9248,0.0,0.0,0.0,0.0,7.7921,7.7257,7.6555,7.5813,7.5657,7.4837,0.0,0.0,0.0,0.0,7.1992,7.1992,7.2031,0.0,0.0,7.5507,7.6478,0.0,7.7186,7.7139,7.7094,7.7091,7.7112,7.7101,7.6984,7.6008,7.511,7.4134,7.2534,7.1987,7.1997,7.1986,7.1991,7.1991,7.2002,7.1875,7.1758,7.1753,7.1741,7.1689,7.1689,7.1806,7.1845,7.1728,7.1741,7.148,7.0465,6.9684,6.8908,6.8054,0.0,0.0,0.0,0.0,0.0,0.0,0.0,0.0,0.0,0.0,0.0,0.0,0.0,0.0,0.0,0.0,0.0,0.0,0.0,7.5351,0.0,7.878,0.0,0.0,0.0,8.2455,8.3156,8.3312,8.413,8.5533,8.5689,8.6235,8.6975,8.704,8.713,8.7298,8.7281,8.7351,8.7369,8.7386,8.7393,8.7393,8.7393,8.7393,8.7393,0.0,0.0,0.0,0.0,0.0,0.0,0.0,7.4811,0.0,7.5624,7.6843,7.7818,7.8246,7.8698,7.917,7.9678,7.9717,7.9717,7.9717,7.9326,7.8858,7.8429,7.7999,0.0,7.6477,7.6047,7.5384,7.4603,0.0,0.0,0.0,0.0,0.0,7.207,0.0,7.4922,0.0,0.0,0.0,7.7187,7.7147,7.7145,7.7145,7.7139,7.7133,7.7005,7.6209,7.5345,7.4408,7.3119,7.2358,7.1984,7.1991,7.1992,7.1991,7.2014,7.1997,7.1987,7.1987,7.193,7.1909,7.1909,7.1909,7.1909,7.1909,7.193,7.1753,7.0894,6.9996,6.8981,6.7654,6.6092,0.0,0.0,0.0,0.0,0.0,0.0,0.0,0.0,0.0,0.0,0.0,0.0,0.0,0.0,0.0,0.0,0.0,0.0,7.4789,0.0,0.0,0.0,8.0179,0.0,8.2569,8.3477,8.3906,8.4763,8.6011,8.6479,8.6908,8.7259,8.7281,8.7281,8.7281,8.7351,8.7377,8.7393,8.7401,8.7407,8.7407,8.7407,8.7407,8.7407,0.0,7.2143,0.0,0.0,7.3471,0.0,7.5491,7.595,7.6144,7.6208,7.7428,7.8441,7.8792,7.9452,7.997,8.0218,8.0218,8.0263,8.0263,8.0062,7.9554,7.8702,7.85,7.7993,7.7134,7.6393,7.5963,0.0,0.0,0.0,0.0,0.0,0.0,0.0,0.0,0.0,0.0,0.0,7.7461,7.7461,7.7656,7.7617,7.7461,7.7461,7.7342,7.7058,7.6409,7.5618,7.4759,7.3876,7.2882,7.1992,7.1992,7.1992,7.1992,7.1984,7.2006,7.1987,7.1982,7.1924,7.1893,7.1885,7.1885,7.1885,7.1893,7.1924,7.1786,7.1128,7.0152,6.8903,6.7342,6.6288,0.0,0.0,0.0,0.0,0.0,0.0,0.0,0.0,0.0,0.0,0.0,0.0,0.0,0.0,0.0,0.0,7.0307,0.0,0.0,0.0,0.0,7.9567,7.9588,0.0,8.2874,8.3791,8.4649,8.5468,8.6288,8.699,8.7302,8.7302,8.7312,8.7312,8.7321,8.7377,8.7393,8.7407,8.7407,8.7407,8.7407,8.7407,8.7407,8.7407,0.0,0.0,0.0,0.0,0.0,0.0,7.5608,7.6894,7.7898,7.7961,7.809,7.8831,8.0467,8.0752,8.1109,8.1897,8.202,8.2059,8.2059,8.1265,8.0446,7.96,7.8745,7.7918,7.7114,7.6942,7.6513,0.0,0.0,0.0,0.0,0.0,0.0,0.0,0.0,0.0,0.0,7.7959,7.8276,7.8359,7.914,7.9023,7.8398,7.8398,7.7889,7.7176,7.7112,7.6516,7.5662,7.4761,7.3359,7.1992,7.1992,7.1992,7.1992,7.1984,7.2006,7.1987,7.193,7.1909,7.1885,7.1906,7.1897,7.1906,7.1885,7.1909,7.1891,7.187,7.0543,6.9098,6.8161,6.6678,6.5585,0.0,0.0,0.0,0.0,0.0,0.0,0.0,0.0,0.0,0.0,6.6898,0.0,0.0,6.7715,0.0,0.0,0.0,0.0,7.4459,7.7814,7.9569,7.9617,8.2114,8.383,8.4688,8.5507,8.6327,8.7185,8.7263,8.7302,8.7302,8.7369,8.7386,8.7401,8.7401,8.7407,8.7407,8.7407,8.7407,8.7407,8.7407,8.7407,8.7407,0.0,0.0,0.0,0.0,0.0,0.0,0.0,7.7671,7.847,7.9509,7.9714,8.0039,8.0779,8.1353,8.1828,8.217,8.2254,8.2287,8.2234,8.1407,8.0509,7.9682,7.8768,7.7909,7.7059,7.7012,7.6856,0.0,0.0,0.0,0.0,0.0,0.0,0.0,0.0,7.6024,7.7156,7.8015,7.841,7.8497,7.9368,7.9526,7.9175,7.8628,7.8201,7.7851,7.7343,7.6598,7.5775,7.4882,7.3789,7.2695,7.2148,7.1992,7.1992,7.1984,7.2006,7.1987,7.193,7.1909,7.1885,7.1906,7.1897,7.1906,7.1885,7.1909,7.193,7.1987,7.1011,6.9762,6.8357,6.7537,6.6912,0.0,0.0,0.0,0.0,0.0,0.0,0.0,0.0,0.0,0.0,0.0,0.0,0.0,0.0,0.0,0.0,0.0,0.0,7.4468,0.0,7.986,8.0376,8.2444,8.4208,8.559,8.5903,8.6527,8.7347,8.7347,8.7347,8.7347,8.7393,8.7401,8.7407,8.7407,8.7407,8.7407,8.7407,8.7407,8.7407,8.7407,8.7407,8.7407,7.4392,0.0,7.5038,0.0,7.5923,7.6504,7.7909,7.8318,7.8979,8.0398,8.0909,8.1116,8.1169,8.1763,8.2202,8.2202,8.2248,8.2287,8.2226,8.1407,8.0532,7.9665,7.8789,0.0,7.7034,7.6985,7.6985,7.6995,7.6435,0.0,0.0,0.0,0.0,0.0,7.5852,7.632,7.7179,7.8311,7.878,7.8897,8.0011,8.0289,8.0016,7.9395,7.8848,7.8301,7.7716,7.6941,7.6128,7.5272,7.4413,7.3476,7.2343,7.1991,7.1988,7.1981,7.2006,7.1982,7.1924,7.1901,7.1963,7.2209,7.2238,7.2326,7.2587,7.2448,7.2236,7.2021,7.1324,7.027,6.8747,6.8279,6.781,6.6951,0.0,0.0,0.0,0.0,0.0,0.0,0.0,6.7338,6.7617,6.7422,0.0,0.0,0.0,0.0,0.0,0.0,0.0,0.0,0.0,0.0,8.1297,8.3014,8.4622,8.608,8.6353,8.6783,8.7407,8.7407,8.7407,8.7407,8.7407,8.7407,8.7407,8.7407,8.7407,8.7407,8.7407,8.7407,8.7407,8.7407,8.7407,8.7407,7.44,7.51,7.5701,7.5701,7.6364,7.7153,7.7971,7.8748,7.9621,8.0475,8.1349,8.1887,8.1974,8.2123,8.2201,8.2218,8.2241,8.2293,8.2293,8.1438,8.0523,0.0,0.0,7.7868,7.7004,7.7011,7.7011,7.7004,0.0,0.0,7.7075,0.0,7.5774,7.5813,7.5813,7.6281,7.7218,7.8936,7.9678,7.9834,8.1552,8.1747,8.0966,8.0966,7.9912,7.839,7.839,7.7804,7.6951,7.6154,7.5301,7.4288,7.2538,7.1984,7.1993,7.2014,7.2006,7.1982,7.1901,7.1893,7.208,7.288,7.3103,7.3319,7.4264,7.3805,7.2955,7.2177,7.1324,7.0426,6.9567,6.8669,6.781,6.6951,0.0,0.0,0.0,0.0,0.0,0.0,6.8105,6.8431,6.9297,6.8633,0.0,0.0,0.0,0.0,0.0,0.0,0.0,7.5696,7.8311,0.0,8.2254,8.3933,8.5221,8.6119,8.6978,8.7407,8.7407,8.7407,8.7407,8.7407,8.7407,8.7407,8.7407,8.7407,8.7407,8.7407,8.7407,8.7407,8.7407,8.7407,8.7407,8.7407,7.6181,7.637,7.6526,7.6521,7.6676,7.7308,7.8689,7.9155,7.9815,8.131,8.1735,8.192,8.2012,8.2065,8.2151,0.0,8.2226,8.2226,0.0,8.0835,7.9881,7.9578,7.818,7.7272,7.7011,7.6999,7.6999,7.7011,0.0,0.0,0.0,7.6828,7.6705,7.6692,7.6692,7.6848,7.7199,7.8955,7.9704,7.9834,8.1591,8.2137,8.1825,8.1239,8.0302,7.9209,7.8624,7.7843,7.6984,7.6136,7.5668,7.5282,7.4115,7.2948,7.201,7.2002,7.1993,7.2138,7.2643,7.2791,7.2968,7.3776,7.3999,7.4049,7.4353,7.3805,7.3133,7.2918,7.2182,7.1324,7.0465,6.9567,6.8708,6.7849,6.7682,0.0,0.0,0.0,0.0,0.0,6.8986,6.9085,0.0,6.918,0.0,0.0,0.0,0.0,0.0,0.0,0.0,0.0,7.835,0.0,8.3152,8.4284,8.5573,8.6978,8.729,8.7407,8.7407,8.7407,8.7407,8.7407,8.7407,8.7407,8.7407,8.7407,8.7407,8.7407,8.7407,8.7407,8.7407,8.7407,8.7407,8.7407,7.6999,7.696,7.6897,7.6865,7.6808,7.7331,7.8981,7.9233,7.9874,8.1621,8.1872,8.1943,8.2007,8.2051,0.0,8.2172,8.2201,8.221,8.2192,8.0583,7.9588,7.9556,7.7896,7.6999,7.6999,7.6999,0.0,7.6999,7.7014,7.7028,7.7101,7.7095,7.7082,7.7114,7.7067,7.7059,7.7184,7.894,7.9697,7.986,8.1584,8.2293,8.2215,8.1317,8.0459,7.96,7.8702,7.7843,7.7023,7.6477,7.6086,7.5774,7.5227,7.4067,7.2944,7.2969,7.2957,7.3062,7.354,7.3679,7.3856,7.4672,7.4895,7.4906,7.4889,7.4537,7.3985,7.3381,7.2834,7.2099,7.0933,7.027,6.9606,6.8736,6.8574,6.8567,6.8535,0.0,0.0,0.0,0.0,0.0,0.0,7.0075,7.0038,0.0,0.0,0.0,0.0,0.0,0.0,7.6766,7.9031,8.1451,8.4073,8.4927,8.6059,8.7387,8.7726,8.7876,8.7915,8.8227,8.8383,8.8344,8.8032,8.7876,8.7876,8.7525,8.7407,8.7407,8.7407,8.7407,8.7407,8.7407,8.7407,8.7407,7.6999,7.696,7.6869,0.0,7.6781,0.0,7.8873,7.9231,7.9874,8.1581,8.1873,8.1929,8.1975,8.1991,8.2036,8.2101,0.0,0.0,0.0,8.0573,7.9578,7.9578,7.7985,7.7077,7.7077,7.7155,7.7155,7.7077,7.7014,7.702,7.7095,7.7082,7.7067,7.7106,7.7012,7.7004,7.7121,7.8932,7.9682,7.9846,8.1584,8.2254,8.2098,8.1317,8.042,7.9483,7.8702,7.7843,7.7101,7.7101,7.6555,7.5891,7.5891,7.5345,7.4681,7.4603,7.4552,7.4492,7.4585,7.4528,7.4694,7.5569,7.5791,7.5803,7.5785,7.5776,7.5326,7.3711,7.3289,7.2711,7.1162,7.0777,7.042,6.9621,6.9497,6.9451,6.9397,0.0,0.0,0.0,0.0,0.0,0.0,7.1343,7.1242,0.0,0.0,0.0,0.0,0.0,7.5039,7.8311,8.0147,8.2334,8.4873,8.5693,8.6552,8.749,8.8324,8.8735,8.8813,8.9633,8.9984,8.9945,8.9086,8.8696,8.8618,8.7759,8.7407,8.7407,8.7407,8.7407,8.7407,8.7407,8.7407,8.7407,0.0,0.0,7.6871,7.6729,7.7211,7.796,7.8938,7.9735,8.0591,8.1679,8.1854,8.1929,8.1975,8.1991,8.2022,8.2077,8.2112,8.2123,8.2123,8.0563,7.9567,7.9544,7.8519,7.7973,7.7973,7.8597,7.8609,7.8007,7.7316,7.6995,7.702,7.7012,7.7004,7.7024,7.7014,7.7014,7.7131,7.8896,7.9608,7.9782,8.1524,8.1844,8.1219,8.1077,8.0068,7.8663,7.8468,7.7843,7.7101,7.7101,7.6945,7.6789,7.6789,7.6633,7.6242,7.4896,7.4499,7.4648,7.5269,7.5406,7.559,7.6465,7.6688,7.6699,7.6682,7.6186,7.5611,7.5248,7.4133,7.3094,7.2672,7.1546,7.0615,7.0441,7.0348,7.0302,7.0294,7.0879,7.1402,0.0,7.1663,7.2026,7.2924,7.2812,7.3052,0.0,0.0,0.0,0.0,7.5863,7.6863,7.8359,8.0741,8.2929,8.4882,8.5741,8.6913,8.8397,8.8607,8.9047,8.9711,8.9906,8.9984,8.9945,8.9086,8.8696,8.8618,8.7759,8.7407,8.7407,8.7407,8.7407,8.7407,8.7407,8.7407,8.7407,7.6921,7.6871,7.6801,7.6665,7.7349,7.8147,7.8951,7.9842,8.0777,8.164,8.1835,8.1929,8.1975,8.1991,8.2022,8.2104,8.2089,8.2089,8.2089,8.0881,8.0129,8.0117,7.9298,7.887,7.887,7.9298,7.931,7.8876,7.8018,7.7599,7.7589,7.719,7.7209,7.7589,7.7189,7.7217,7.7685,7.9032,7.9588,7.9725,8.107,8.1312,8.0813,8.0087,7.9197,7.8331,7.7947,7.7472,7.7082,7.7089,7.7089,7.7089,7.7101,7.7101,7.69,7.5936,7.5655,7.5725,7.6196,7.6292,7.6398,7.6882,7.6999,7.6999,7.6983,7.6632,7.6175,7.5845,7.5005,7.4125,7.3321,7.2477,7.1696,7.1324,7.1238,7.1183,7.1165,7.1564,7.2049,7.2455,7.2561,7.2924,7.3783,7.3861,7.4056,7.4564,7.4579,0.0,7.6399,7.7257,7.8284,7.9558,8.1756,8.3711,8.5469,8.6367,8.7422,8.8711,8.9094,8.9744,9.0594,9.1023,9.1179,9.114,9.0281,8.9657,8.9227,8.8368,8.7743,8.7392,8.7392,8.7392,8.7392,8.7392,8.7381,8.7407,7.6885,7.6825,7.6764,7.6609,7.7426,7.8278,7.8912,7.9879,8.0841,8.1579,8.1815,8.1911,8.1975,8.1991,8.2022,8.2091,8.2104,8.2104,8.2104,8.1286,8.0818,8.0818,8.0078,7.9688,7.9688,7.9688,7.9739,7.9762,7.8904,7.8486,7.8477,7.7706,7.7774,7.8436,7.7595,7.7623,7.8363,7.9099,7.9422,7.95,8.0349,8.0631,8.0358,7.8932,7.8269,7.8018,7.7333,7.7059,7.7012,7.7067,7.7114,7.7114,7.7095,7.7101,7.7095,7.702,7.7004,7.7004,7.7004,7.7022,7.6999,7.6999,7.6999,7.6999,7.6999,7.6999,7.6765,7.6058,7.5785,7.526,7.386,7.336,7.2963,7.2205,7.2002,7.1876,7.1827,0.0,7.2353,7.3103,7.3367,7.3816,7.4603,7.4681,7.4759,7.4954,7.5032,7.5735,7.7212,7.8344,7.9711,8.135,8.2956,8.4608,8.6367,8.7109,8.7968,8.8906,8.9648,9.0546,9.1515,9.2255,9.2606,9.2567,9.1669,9.0888,9.0106,8.9091,8.8349,8.7763,8.7646,8.7685,8.7802,8.7802,8.7791,8.7771,7.6838,7.6821,7.6764,7.6609,7.7891,7.8936,7.9003,8.0357,8.1484,8.166,8.1757,8.1854,8.1926,8.1975,8.2007,8.2012,8.2091,8.2104,8.2104,8.1286,8.0818,8.0818,8.0662,8.0584,8.0584,8.0584,8.0584,8.0623,7.9727,7.931,7.931,7.9193,7.9181,7.9259,7.8441,7.8168,7.8324,7.8441,7.8492,7.857,7.9461,7.9354,7.8691,7.8408,7.7862,7.7199,7.7051,7.7012,7.7012,7.7067,7.7114,7.7114,7.7095,7.7101,7.7095,7.702,7.7004,7.6995,7.6983,7.6999,7.6999,7.6999,7.6999,7.6999,7.6999,7.6999,7.696,7.6843,7.6204,7.564,7.5377,7.4147,7.3172,7.3037,7.2374,7.1897,7.1827,0.0,7.3037,7.3181,7.3868,7.4662,7.5501,7.5618,7.5891,7.6672,7.7375,7.7915,7.8168,8.0353,8.2078,8.3092,8.4089,8.5444,8.7216,8.7333,8.8232,8.9794,8.9921,9.0859,9.2382,9.2539,9.2617,9.2539,9.1679,9.1211,9.0976,8.9375,8.9062,8.9531,8.8789,8.8945,8.9609,8.9609,8.9608,8.9491,7.6764,7.6764,7.6842,7.7192,7.8258,7.9183,7.9559,8.0744,8.1615,8.1698,8.1755,8.1834,8.1869,8.1959,8.2007,8.2012,8.2026,8.2039,8.2039,8.1689,8.1455,8.1455,8.1428,8.1467,8.1455,8.1468,8.1481,8.1481,8.0623,8.0195,8.0195,7.9727,7.9766,8.0156,7.8806,7.8507,7.8909,7.8455,7.8273,7.8324,7.8726,7.8659,7.823,7.7794,7.7365,7.7004,7.7014,7.7014,7.7004,7.7043,7.7059,7.7067,7.7095,7.7095,7.7082,7.7012,7.6985,7.6994,7.7011,7.6999,7.6999,7.6999,7.6999,7.6999,7.6999,7.6999,7.6999,7.6999,7.6699,7.6242,7.5785,7.5065,7.4402,7.3924,7.3495,0.0,7.3181,7.3553,7.4002,7.4489,7.4952,7.5709,7.7089,7.7212,7.757,7.8429,7.8891,7.9307,7.9729,8.1312,8.2795,8.4161,8.552,8.6594,8.7392,8.786,8.8758,9.0008,9.0486,9.1356,9.2613,9.2617,9.2617,9.2578,9.2187,9.1719,9.125,9.0429,9.0078,8.9961,8.957,8.9648,9.0,9.0,9.0,8.9922,7.6687,7.669,7.6924,7.7661,7.8463,7.9288,8.0086,8.0976,8.1591,8.1674,8.1734,8.1892,8.2162,8.2215,8.2303,8.2294,8.2294,8.2231,8.1998,8.1983,8.1983,8.1998,8.2007,8.2007,8.2012,8.2039,8.2104,8.2104,8.1442,8.1091,8.1091,8.0428,8.0455,8.1,7.926,7.8871,7.9429,7.8365,7.7936,7.7961,7.8012,7.8012,7.7935,7.7256,7.6983,7.6999,7.6983,7.7022,7.7011,7.6985,7.6995,7.7004,7.7043,7.7082,7.7059,7.7004,7.6994,7.6987,7.6999,7.6987,7.6987,7.6999,7.6999,7.6999,7.6999,7.6999,7.6999,7.6999,7.6999,7.6804,7.6126,7.5824,7.5474,7.4811,0.0,7.441,0.0,7.4566,7.4967,7.5601,7.6106,7.6911,7.8285,7.8579,7.8975,7.9633,7.9853,8.0228,8.0883,8.2114,8.3586,8.5312,8.6683,8.7518,8.772,8.8383,8.9242,9.0296,9.0999,9.1754,9.2595,9.2609,9.2615,9.2616,9.2617,9.2226,9.1601,9.1365,9.1012,9.0582,9.039,9.0429,9.0586,9.0586,9.0585,9.0582,7.6687,7.669,7.6924,7.7689,7.8476,7.9288,8.0086,8.0937,8.1553,8.1674,8.1713,8.2044,8.2941,8.3074,8.3092,8.3109,8.3182,8.2847,8.203,8.1959,8.1959,8.1991,8.1991,8.2007,8.2012,8.2012,8.2026,8.2104,8.2026,8.1987,8.1987,8.1948,8.1896,8.1856,8.0143,7.9428,7.9282,7.7676,7.6988,7.6988,7.7065,7.7116,7.7077,7.6999,7.6999,7.6999,7.6999,7.6999,7.6999,7.6994,7.7004,7.7014,7.7004,7.7012,7.7004,7.7014,7.696,7.6923,7.6987,7.6936,7.6923,7.6987,7.6999,7.6999,7.6999,7.6999,7.6999,7.6999,7.6999,7.6999,7.6921,7.622,7.5674,7.5596,0.0,0.0,7.4388,7.509,7.5647,7.5679,7.7151,7.8183,7.8363,7.9118,7.9633,7.969,8.0392,8.0844,8.0914,8.3204,8.532,8.7068,8.7291,8.7784,8.8618,8.8657,8.9555,9.1194,9.1272,9.1741,9.2606,9.2606,9.2585,9.2606,9.2616,9.2578,9.2421,9.1614,9.1748,9.234,9.1506,9.1715,9.2422,9.2422,9.2414,9.2294,7.663,7.6582,7.6978,7.8307,7.881,7.9467,8.0782,8.131,8.1553,8.1691,8.1713,8.185,8.232,8.2357,8.2392,8.2392,8.2409,8.2293,8.1943,8.1908,8.1929,8.1947,8.1943,8.1959,8.1937,8.1983,8.2012,8.2026,8.2091,8.2091,8.2026,8.2026,8.2012,8.1929,8.0201,7.9734,8.0046,7.7812,7.7181,7.765,7.7157,7.6936,7.6999,7.6999,7.6999,7.6999,7.6999,7.6999,7.6999,7.6994,7.7004,7.7014,7.6995,7.6995,7.6975,7.696,7.691,7.6922,7.6936,7.6897,7.691,7.6923,7.6987,7.6999,7.6999,7.6999,7.6999,7.6999,7.6999,7.6999,7.6999,7.6727,7.6493,7.6493,0.0,7.6025,7.6025,7.6765,7.7311,7.7323,7.8369,7.9325,7.9881,8.025,8.0649,8.1195,8.149,8.186,8.2424,8.4389,8.6077,8.7281,8.7302,8.7768,8.8696,8.9242,9.0101,9.1311,9.1819,9.2209,9.2522,9.2561,9.2606,9.258,9.259,9.2603,9.2572,9.2248,9.2306,9.2561,9.2222,9.2312,9.2599,9.2609,9.2606,9.2551,7.6598,7.6514,7.7016,7.8718,7.8989,7.9569,8.1233,8.1504,8.1553,8.1669,8.1691,8.185,8.2242,8.2279,8.2297,8.2297,8.2297,8.218,8.1908,8.1911,8.1892,8.1892,8.189,8.1908,8.1887,8.1937,8.1983,8.1998,8.2065,8.2065,8.1998,8.1998,8.2007,8.1898,8.0426,8.0115,8.0543,7.8465,7.7992,7.8543,7.7948,7.7728,7.7741,7.7793,7.7598,7.7352,7.7352,7.7157,7.6975,7.6972,7.6972,7.6983,7.6975,7.7004,7.6972,7.6923,7.6869,7.6879,7.6879,7.6855,7.6883,7.6897,7.6923,7.6987,7.6999,7.6999,7.6999,7.6999,7.6999,7.6999,7.6999,7.6999,7.6999,7.6999,7.6999,7.7116,7.7389,7.7935,7.8402,7.8636,7.9439,8.024,8.0825,8.1158,8.1568,8.2143,8.2123,8.2619,8.3738,8.5195,8.6403,8.7259,8.7554,8.8131,8.9079,8.9711,9.057,9.1663,9.2248,9.2482,9.2482,9.2561,9.2561,9.2561,9.26,9.2613,9.2595,9.2595,9.258,9.26,9.2561,9.2561,9.2606,9.2585,9.2595,9.259,7.6537,7.6514,7.7055,7.8718,7.9028,7.9569,8.1233,8.1504,8.1553,8.1669,8.1691,8.2044,8.298,8.3097,8.3097,8.3097,8.3097,8.2747,8.1931,8.1892,8.1892,8.1892,8.1892,8.1911,8.1887,8.1887,8.1943,8.1991,8.1991,8.1991,8.1991,8.1991,8.1959,8.1848,8.0992,8.0608,8.0572,7.9731,7.9398,7.9398,7.9491,7.9453,7.9423,7.9467,7.8908,7.81,7.81,7.7594,7.6908,7.6897,7.691,7.691,7.6987,7.6936,7.691,7.691,7.6855,7.6793,7.6793,7.6793,7.6809,7.6883,7.691,7.691,7.6987,7.6999,7.6999,7.6999,7.6999,7.6999,7.6999,7.6999,7.6999,7.6999,7.6999,7.7311,7.8168,7.8324,7.8636,7.9415,8.0335,8.0903,8.0903,8.1675,8.2182,8.2112,8.2112,8.2881,8.4598,8.5533,8.6403,8.7298,8.8155,8.9008,8.9914,8.9977,9.0843,9.2482,9.2482,9.2482,9.2482,9.2482,9.2482,9.2482,9.2561,9.26,9.26,9.26,9.26,9.26,9.2522,9.2522,9.26,9.26,9.26,9.26,7.6537,7.6939,7.7713,7.8796,7.9492,8.0227,8.1349,8.1504,8.1553,8.1669,8.1691,8.185,8.2242,8.2242,8.2242,8.2242,8.2242,8.2164,8.1931,8.1892,8.1892,8.1892,8.1892,8.1892,8.1911,8.1908,8.1887,8.1943,8.1975,8.1975,8.1943,8.1943,8.1926,8.1872,8.0978,8.094,8.1426,7.9968,7.9675,8.0176,7.9648,7.9408,7.9384,7.9438,7.8878,7.81,7.81,7.7944,7.775,7.7793,7.7806,7.7728,7.7182,7.6936,7.6897,7.6922,7.684,7.691,7.7499,7.7637,7.7654,7.7704,7.775,7.7764,7.7779,7.7806,7.7663,7.7079,7.6987,7.6999,7.6999,7.6999,7.6999,7.6999,7.7506,7.8012,7.8246,7.9298,8.0156,8.0389,8.122,8.1727,8.1727,8.1972,8.2128,8.2077,8.3208,8.4416,8.5533,8.639,8.7248,8.8118,8.8455,8.9298,9.0713,9.0803,9.1406,9.2498,9.2514,9.2514,9.2498,9.2514,9.2482,9.2482,9.2522,9.2522,9.2522,9.2522,9.2522,9.2522,9.2522,9.2522,9.2522,9.2522,9.2522,9.2522,7.69,7.7365,7.8099,7.926,7.9879,8.0614,8.1852,8.2006,8.2056,8.215,8.2173,8.2122,8.1893,8.1873,8.1892,8.1892,8.1892,8.1892,8.1892,8.1892,8.1892,8.1892,8.1892,8.1892,8.1892,8.189,8.189,8.189,8.1926,8.1926,8.189,8.189,8.189,8.1892,8.1349,8.1426,8.1815,8.0766,8.0629,8.1074,8.0586,8.037,8.0387,8.0403,7.9843,7.9087,7.9087,7.887,7.8559,7.866,7.8468,7.8131,7.7637,7.7196,7.6883,7.6879,7.7081,7.7382,7.7852,7.8241,7.859,7.8975,7.8854,7.8614,7.8591,7.866,7.844,7.7545,7.7403,7.7352,7.7014,7.6975,7.7065,7.7467,7.7973,7.8507,7.9196,8.0143,8.0922,8.1221,8.1741,8.2104,8.2104,8.2104,8.2221,8.2572,8.3897,8.5066,8.5962,8.7092,8.7949,8.8495,8.9222,9.0093,9.108,9.1465,9.1954,9.252,9.249,9.249,9.252,9.2498,9.2514,9.2514,9.2482,9.2482,9.2482,9.2482,9.2482,9.2482,9.2482,9.2482,9.2482,9.2482,9.2482,9.2482,7.7519,7.7751,7.8332,7.9893,8.0318,8.0962,8.2548,8.2857,8.2921,8.2995,8.3003,8.2721,8.2008,8.1893,8.1892,8.1892,8.1892,8.1892,8.1892,8.1892,8.1892,8.1892,8.1892,8.1892,8.1892,8.1892,8.1892,8.1892,8.1892,8.1892,8.1892,8.1892,8.1892,8.1892,8.1892,8.1892,8.1892,8.1892,8.1892,8.1892,8.1908,8.189,8.1892,8.1908,8.1346,8.061,8.061,8.0105,7.9424,7.947,7.9,7.839,7.8248,7.7584,7.6879,7.6809,7.7382,7.8008,7.8085,7.8746,7.9639,8.0494,8.018,7.9593,7.9509,7.9524,7.9252,7.8396,7.8202,7.7983,7.7247,7.7131,7.7417,7.8273,7.8468,7.904,8.0571,8.0857,8.1182,8.1895,8.2039,8.2104,8.2104,8.2104,8.2494,8.3429,8.4247,8.5104,8.6026,8.7624,8.8534,8.8612,9.0248,9.1158,9.1223,9.2003,9.2417,9.249,9.249,9.249,9.249,9.252,9.249,9.249,9.2514,9.2482,9.2482,9.2482,9.2482,9.2482,9.2482,9.2482,9.2482,9.2482,9.2482,9.2482,7.7446,7.8181,7.8953,7.9958,8.1234,8.2303,8.2741,8.336,8.3811,8.3847,8.3351,8.2915,8.2785,8.2242,8.1892,8.1892,8.1892,8.1892,8.1892,8.1892,8.1892,8.1892,8.1892,8.1892,8.1892,8.1892,8.1892,8.1892,8.1892,8.1892,8.1892,8.1892,8.1892,8.1892,8.1892,8.1892,8.1892,8.1892,8.1892,8.1892,8.1911,8.1911,8.1892,8.1911,8.1349,8.061,8.061,8.0494,8.0318,8.0403,7.9881,7.9105,7.8429,7.757,7.6809,7.6793,7.7382,7.8163,7.8823,7.9639,8.0533,8.1387,8.1465,8.1173,8.0473,8.0353,8.0115,7.9298,7.912,7.9073,7.8878,7.8854,7.8932,7.9127,7.971,8.0294,8.0683,8.1306,8.1788,8.1973,8.2012,8.2039,8.2104,8.2104,8.2715,8.4246,8.4518,8.5283,8.6771,8.7892,8.8803,8.9426,9.0507,9.1417,9.2132,9.2327,9.2419,9.2417,9.2479,9.2479,9.2417,9.249,9.25,9.25,9.249,9.2498,9.2498,9.2514,9.2482,9.2482,9.2482,9.2482,9.2482,9.2482,9.2482,9.2482,7.8142,7.8889,7.9855,8.113,8.2096,8.2973,8.3863,8.4366,8.4675,8.4688,8.4002,8.3374,8.3009,8.228,8.1873,8.1892,8.1873,8.1854,8.1854,8.1834,8.1834,8.1854,8.1854,8.1873,8.1892,8.1892,8.1892,8.1892,8.1892,8.1892,8.1892,8.1892,8.1873,8.1854,8.1854,8.1834,8.1814,8.1854,8.1854,8.1854,8.1892,8.1892,8.1892,8.1892,8.1621,8.1232,8.1232,8.1212,8.123,8.1243,8.0474,7.9375,7.8932,7.7836,7.6793,7.676,7.7637,7.8707,7.9173,8.0222,8.1349,8.1776,8.1892,8.1776,8.131,8.1212,8.0996,8.0141,7.9964,7.9865,7.947,7.9392,7.9548,7.9968,8.0396,8.0808,8.122,8.1703,8.1991,8.2022,8.1998,8.2026,8.2104,8.2442,8.3194,8.4504,8.4957,8.5743,8.7011,8.8351,8.9262,8.9691,9.0984,9.1895,9.2362,9.2377,9.2405,9.2419,9.2432,9.2432,9.2419,9.2456,9.2468,9.2429,9.25,9.2481,9.249,9.2507,9.2514,9.2482,9.2482,9.2482,9.2482,9.2482,9.2482,9.2482,7.9082,7.9636,8.064,8.2339,8.2764,8.3409,8.5036,8.541,8.5526,8.5526,8.4688,8.3847,8.3188,8.2311,8.1814,8.1873,8.1834,8.1755,8.1755,8.1713,8.1713,8.1755,8.1775,8.1834,8.1873,8.1892,8.1892,8.1892,8.1892,8.1892,8.1892,8.1892,8.1854,8.1814,8.1814,8.1734,8.1691,8.1755,8.1755,8.1814,8.1854,8.1873,8.1873,8.1892,8.1892,8.1892,8.1892,8.189,8.1887,8.1887,8.0854,7.9563,7.9454,7.831,7.6971,7.6764,7.793,7.929,7.929,8.0572,8.1892,8.1892,8.1892,8.1892,8.1892,8.1892,8.1698,8.096,8.0805,8.0629,7.9964,7.9848,8.0059,8.0792,8.0909,8.1142,8.1809,8.1943,8.1975,8.1991,8.2153,8.2298,8.2533,8.3116,8.3881,8.4723,8.5432,8.6177,8.7033,8.8745,8.9696,8.9696,9.1365,9.2276,9.2276,9.2362,9.2377,9.2377,9.2391,9.2391,9.2391,9.238,9.2393,9.2393,9.2468,9.25,9.2481,9.249,9.2498,9.2522,9.2482,9.2482,9.2482,9.2482,9.2482,9.2482,7.9737,7.9913,8.0473,8.213,8.3114,8.4011,8.5032,8.5898,8.6416,8.6416,8.5075,8.4079,8.3963,8.2599,8.1713,8.1713,8.1713,8.1713,8.1713,8.1691,8.1691,8.1713,8.1755,8.1775,8.1834,8.1873,8.1892,8.1892,8.1892,8.1892,8.1892,8.1854,8.1814,8.1814,8.1734,8.1713,8.1691,8.1713,8.1713,8.1713,8.1814,8.1834,8.1834,8.1873,8.1892,8.1892,8.1892,8.189,8.1887,8.1887,8.1265,8.0331,7.9632,7.8682,7.7697,7.692,7.793,7.929,7.929,8.0572,8.1892,8.1892,8.1892,8.1892,8.1892,8.1892,8.1854,8.1737,8.1737,8.1698,8.1582,8.1561,8.16,8.1717,8.1756,8.1794,8.1872,8.1911,8.1947,8.1975,8.2713,8.3507,8.4286,8.4402,8.4762,8.5588,8.5732,8.6145,8.6962,8.8672,8.9604,8.9604,9.1313,9.2187,9.2187,9.2276,9.2293,9.2293,9.2377,9.2391,9.2391,9.2391,9.2391,9.2391,9.2393,9.2417,9.2417,9.2471,9.249,9.2498,9.2514,9.2482,9.2482,9.2482,9.2482,9.2482,7.9962,8.0319,8.1137,8.2832,8.3479,8.4233,8.5642,8.623,8.6528,8.65,8.5048,8.3992,8.3992,8.2583,8.1669,8.1691,8.1669,8.1646,8.1646,8.16,8.16,8.1646,8.1669,8.1691,8.1734,8.1755,8.1814,8.1814,8.1834,8.1834,8.1814,8.1734,8.1713,8.1691,8.1646,8.1624,8.16,8.1624,8.1646,8.1646,8.1713,8.1734,8.1734,8.1834,8.1854,8.1854,8.1892,8.1911,8.189,8.189,8.1307,8.053,8.018,7.9113,7.8008,7.8124,7.8707,7.9406,7.9872,8.0921,8.1892,8.1892,8.1892,8.1892,8.1892,8.1892,8.1892,8.1892,8.1892,8.1892,8.1892,8.1892,8.1892,8.1892,8.1892,8.1892,8.1892,8.1892,8.2124,8.2637,8.3545,8.4286,8.4676,8.5049,8.5432,8.5766,8.6203,8.6613,8.6982,8.8633,8.9547,8.9547,9.1257,9.219,9.219,9.2226,9.226,9.2293,9.2347,9.2362,9.2391,9.2391,9.2391,9.2391,9.2405,9.238,9.2405,9.2451,9.252,9.249,9.2514,9.2482,9.2482,9.2482,9.2482,9.2482]},{"header":{"parameterUnit":"m.s-1","parameterCategory":1,"la1":30.6,"la2":28.766,"lo1":-90.7593,"lo2":-88.6598,"dy":0.0162,"dx":0.0183,"nx":116,"ny":114,"refTime":"2023-03-18T06:00:00:Z","depth":0,"parameterNumber":3,"parameterNumberName":"V-component_of_WINDS"},"data":[0.0,0.0,0.0,0.0,0.0,0.0,0.0,0.0,0.0,0.0,0.0,0.0,0.0,0.0,0.0,0.0,0.0,0.0,0.0,0.0,0.0,0.0,0.0,0.0,0.0,0.0,0.0,0.0,0.0,0.0,0.0,0.0,0.0,0.0,0.0,0.0,0.0,0.0,0.0,0.0,0.0,0.0,0.0,0.0,0.0,0.0,0.0,0.0,0.0,0.0,0.0,0.0,0.0,0.0,0.0,0.0,0.0,0.0,0.0,0.0,0.0,0.0,0.0,0.0,0.0,0.0,0.0,0.0,0.0,0.0,0.0,0.0,0.0,0.0,0.0,0.0,0.0,0.0,0.0,0.0,0.0,0.0,0.0,0.0,0.0,0.0,0.0,0.0,0.0,0.0,0.0,0.0,0.0,0.0,0.0,0.0,0.0,0.0,0.0,0.0,0.0,0.0,0.0,0.0,0.0,0.0,0.0,0.0,0.0,0.0,0.0,0.0,0.0,0.0,0.0,0.0,0.0,0.0,0.0,0.0,0.0,0.0,0.0,0.0,0.0,0.0,0.0,0.0,0.0,0.0,0.0,0.0,0.0,0.0,0.0,0.0,0.0,0.0,0.0,0.0,0.0,0.0,0.0,0.0,0.0,0.0,0.0,0.0,0.0,0.0,0.0,0.0,0.0,0.0,0.0,0.0,0.0,0.0,0.0,0.0,0.0,0.0,0.0,0.0,0.0,0.0,0.0,0.0,0.0,0.0,0.0,0.0,0.0,0.0,0.0,0.0,0.0,0.0,0.0,0.0,0.0,0.0,0.0,0.0,0.0,0.0,0.0,0.0,0.0,0.0,0.0,0.0,0.0,0.0,0.0,0.0,0.0,0.0,0.0,0.0,0.0,0.0,0.0,0.0,0.0,0.0,0.0,0.0,0.0,0.0,0.0,0.0,0.0,0.0,0.0,0.0,0.0,0.0,0.0,0.0,0.0,0.0,0.0,0.0,0.0,0.0,0.0,0.0,0.0,0.0,0.0,0.0,0.0,0.0,0.0,0.0,0.0,0.0,0.0,0.0,0.0,0.0,0.0,0.0,0.0,0.0,0.0,0.0,0.0,0.0,0.0,0.0,0.0,0.0,0.0,0.0,0.0,0.0,0.0,0.0,0.0,0.0,0.0,0.0,0.0,0.0,0.0,0.0,0.0,0.0,0.0,0.0,0.0,0.0,0.0,0.0,0.0,0.0,0.0,0.0,0.0,0.0,0.0,0.0,0.0,0.0,0.0,0.0,0.0,0.0,0.0,0.0,0.0,0.0,0.0,0.0,0.0,0.0,0.0,0.0,0.0,0.0,0.0,0.0,0.0,0.0,0.0,0.0,0.0,0.0,0.0,0.0,0.0,0.0,0.0,0.0,0.0,0.0,0.0,0.0,0.0,0.0,0.0,0.0,0.0,0.0,0.0,0.0,0.0,0.0,0.0,0.0,0.0,0.0,0.0,0.0,0.0,0.0,0.0,0.0,0.0,0.0,0.0,0.0,0.0,0.0,0.0,0.0,0.0,0.0,0.0,0.0,0.0,0.0,0.0,0.0,0.0,0.0,0.0,0.0,0.0,0.0,0.0,0.0,0.0,0.0,0.0,0.0,0.0,0.0,0.0,0.0,0.0,0.0,0.0,0.0,0.0,0.0,0.0,0.0,0.0,0.0,0.0,0.0,0.0,0.0,0.0,0.0,0.0,0.0,0.0,0.0,0.0,0.0,0.0,0.0,0.0,0.0,0.0,0.0,0.0,0.0,0.0,0.0,0.0,0.0,0.0,0.0,0.0,0.0,0.0,0.0,0.0,0.0,0.0,0.0,0.0,0.0,0.0,0.0,0.0,0.0,0.0,0.0,0.0,0.0,0.0,0.0,0.0,0.0,0.0,0.0,0.0,0.0,0.0,0.0,0.0,0.0,0.0,0.0,0.0,0.0,0.0,0.0,0.0,0.0,0.0,0.0,0.0,0.0,0.0,0.0,0.0,0.0,0.0,0.0,0.0,0.0,0.0,0.0,0.0,0.0,0.0,0.0,0.0,0.0,0.0,0.0,0.0,0.0,0.0,0.0,0.0,0.0,0.0,0.0,0.0,0.0,0.0,0.0,0.0,0.0,0.0,0.0,0.0,0.0,0.0,0.0,0.0,0.0,0.0,0.0,0.0,0.0,0.0,0.0,0.0,0.0,0.0,0.0,0.0,0.0,0.0,0.0,0.0,0.0,0.0,0.0,0.0,0.0,0.0,0.0,0.0,0.0,0.0,0.0,0.0,0.0,0.0,0.0,0.0,0.0,0.0,0.0,0.0,0.0,0.0,0.0,0.0,0.0,0.0,0.0,0.0,0.0,0.0,0.0,0.0,0.0,0.0,0.0,0.0,0.0,0.0,0.0,0.0,0.0,0.0,0.0,0.0,0.0,0.0,0.0,0.0,0.0,0.0,0.0,0.0,0.0,0.0,0.0,0.0,0.0,0.0,0.0,0.0,0.0,0.0,0.0,0.0,0.0,0.0,0.0,0.0,0.0,0.0,0.0,0.0,0.0,0.0,0.0,0.0,0.0,0.0,0.0,0.0,0.0,0.0,0.0,0.0,0.0,0.0,0.0,0.0,0.0,0.0,0.0,0.0,0.0,0.0,0.0,0.0,0.0,0.0,0.0,0.0,0.0,0.0,0.0,0.0,0.0,0.0,0.0,0.0,0.0,0.0,0.0,0.0,0.0,0.0,0.0,0.0,0.0,0.0,0.0,0.0,0.0,0.0,0.0,0.0,0.0,0.0,0.0,0.0,0.0,0.0,0.0,0.0,0.0,0.0,0.0,0.0,0.0,0.0,0.0,0.0,0.0,0.0,0.0,0.0,0.0,0.0,0.0,0.0,0.0,0.0,0.0,0.0,0.0,0.0,0.0,0.0,0.0,0.0,0.0,0.0,0.0,0.0,0.0,0.0,0.0,0.0,0.0,0.0,0.0,0.0,0.0,0.0,0.0,0.0,0.0,0.0,0.0,0.0,0.0,0.0,0.0,0.0,0.0,0.0,0.0,0.0,0.0,0.0,0.0,0.0,0.0,0.0,0.0,0.0,0.0,0.0,0.0,0.0,0.0,0.0,0.0,0.0,0.0,0.0,0.0,0.0,0.0,0.0,0.0,0.0,0.0,0.0,0.0,0.0,0.0,0.0,0.0,0.0,0.0,0.0,0.0,0.0,0.0,0.0,0.0,0.0,0.0,0.0,0.0,0.0,0.0,0.0,0.0,0.0,0.0,0.0,0.0,0.0,0.0,0.0,0.0,0.0,0.0,0.0,0.0,0.0,0.0,0.0,0.0,0.0,0.0,0.0,0.0,0.0,0.0,0.0,0.0,0.0,0.0,0.0,0.0,0.0,0.0,0.0,0.0,0.0,0.0,0.0,0.0,0.0,0.0,0.0,0.0,0.0,0.0,0.0,0.0,0.0,0.0,0.0,0.0,0.0,0.0,0.0,0.0,0.0,0.0,0.0,0.0,0.0,0.0,0.0,0.0,0.0,0.0,0.0,0.0,0.0,0.0,0.0,0.0,0.0,0.0,0.0,0.0,0.0,0.0,0.0,0.0,0.0,0.0,0.0,0.0,0.0,0.0,0.0,0.0,0.0,0.0,0.0,0.0,0.0,0.0,0.0,0.0,0.0,0.0,0.0,0.0,0.0,0.0,0.0,0.0,0.0,0.0,0.0,0.0,0.0,0.0,0.0,0.0,0.0,0.0,0.0,0.0,0.0,0.0,0.0,0.0,0.0,0.0,0.0,0.0,0.0,0.0,0.0,0.0,0.0,0.0,0.0,0.0,0.0,0.0,0.0,0.0,0.0,0.0,0.0,0.0,0.0,0.0,0.0,0.0,0.0,0.0,0.0,0.0,0.0,0.0,0.0,0.0,0.0,0.0,0.0,0.0,0.0,0.0,0.0,0.0,0.0,0.0,0.0,0.0,0.0,0.0,0.0,0.0,0.0,0.0,0.0,0.0,0.0,0.0,0.0,0.0,0.0,0.0,0.0,0.0,0.0,0.0,0.0,0.0,0.0,0.0,0.0,0.0,0.0,0.0,0.0,0.0,0.0,0.0,0.0,0.0,0.0,0.0,0.0,0.0,0.0,0.0,0.0,0.0,0.0,0.0,0.0,0.0,0.0,0.0,0.0,0.0,0.0,0.0,0.0,0.0,0.0,0.0,0.0,0.0,0.0,0.0,0.0,0.0,0.0,0.0,0.0,0.0,0.0,0.0,0.0,0.0,0.0,0.0,0.0,0.0,0.0,0.0,0.0,0.0,0.0,0.0,0.0,0.0,0.0,0.0,0.0,0.0,0.0,0.0,0.0,0.0,0.0,0.0,0.0,0.0,0.0,0.0,0.0,0.0,0.0,0.0,0.0,0.0,0.0,0.0,0.0,0.0,0.0,0.0,0.0,0.0,0.0,0.0,0.0,0.0,0.0,0.0,0.0,0.0,0.0,0.0,0.0,0.0,0.0,0.0,0.0,0.0,0.0,0.0,0.0,0.0,0.0,0.0,0.0,0.0,0.0,0.0,0.0,0.0,0.0,0.0,0.0,0.0,0.0,0.0,0.0,0.0,0.0,0.0,0.0,0.0,0.0,0.0,0.0,0.0,0.0,0.0,0.0,0.0,0.0,0.0,0.0,0.0,0.0,0.0,0.0,0.0,0.0,0.0,0.0,0.0,0.0,0.0,0.0,0.0,0.0,0.0,0.0,0.0,0.0,0.0,0.0,0.0,0.0,0.0,0.0,0.0,0.0,0.0,0.0,0.0,0.0,0.0,0.0,0.0,0.0,0.0,0.0,0.0,0.0,0.0,0.0,0.0,0.0,0.0,0.0,0.0,0.0,0.0,0.0,0.0,0.0,0.0,0.0,0.0,0.0,0.0,0.0,0.0,0.0,0.0,0.0,0.0,0.0,0.0,0.0,0.0,0.0,0.0,0.0,0.0,0.0,0.0,0.0,0.0,0.0,0.0,0.0,0.0,0.0,0.0,0.0,0.0,0.0,0.0,0.0,0.0,0.0,0.0,0.0,0.0,0.0,0.0,0.0,0.0,0.0,0.0,0.0,0.0,0.0,0.0,0.0,0.0,0.0,0.0,0.0,0.0,0.0,0.0,0.0,0.0,0.0,0.0,0.0,0.0,0.0,0.0,0.0,0.0,0.0,0.0,0.0,0.0,0.0,0.0,0.0,0.0,0.0,0.0,0.0,0.0,0.0,0.0,0.0,0.0,0.0,0.0,0.0,0.0,0.0,0.0,0.0,0.0,0.0,0.0,0.0,0.0,0.0,0.0,0.0,0.0,0.0,0.0,0.0,0.0,0.0,0.0,0.0,0.0,0.0,0.0,0.0,0.0,0.0,0.0,0.0,0.0,0.0,0.0,0.0,0.0,0.0,0.0,0.0,0.0,0.0,0.0,0.0,0.0,0.0,0.0,0.0,0.0,0.0,0.0,0.0,0.0,0.0,0.0,0.0,0.0,0.0,0.0,0.0,0.0,0.0,0.0,0.0,0.0,0.0,0.0,0.0,0.0,0.0,0.0,0.0,0.0,0.0,0.0,0.0,0.0,0.0,0.0,0.0,0.0,0.0,0.0,0.0,0.0,0.0,0.0,0.0,0.0,0.0,0.0,0.0,0.0,0.0,0.0,0.0,0.0,0.0,0.0,0.0,0.0,0.0,0.0,0.0,0.0,0.0,0.0,0.0,0.0,0.0,0.0,0.0,0.0,0.0,0.0,0.0,0.0,0.0,0.0,0.0,0.0,0.0,0.0,0.0,0.0,0.0,0.0,0.0,0.0,0.0,0.0,0.0,0.0,0.0,0.0,0.0,0.0,0.0,0.0,0.0,0.0,0.0,0.0,0.0,0.0,0.0,0.0,0.0,0.0,0.0,0.0,0.0,0.0,0.0,0.0,0.0,0.0,0.0,0.0,0.0,0.0,0.0,0.0,0.0,0.0,0.0,0.0,0.0,0.0,0.0,0.0,0.0,0.0,0.0,0.0,0.0,0.0,0.0,0.0,0.0,0.0,0.0,0.0,0.0,0.0,0.0,0.0,0.0,0.0,0.0,0.0,-1.2415,0.0,0.0,0.0,0.0,0.0,0.0,0.0,0.0,0.0,0.0,0.0,0.0,0.0,0.0,0.0,0.0,0.0,0.0,0.0,0.0,0.0,0.0,0.0,0.0,0.0,0.0,0.0,0.0,0.0,0.0,0.0,0.0,0.0,0.0,0.0,0.0,0.0,0.0,0.0,0.0,0.0,0.0,0.0,0.0,0.0,0.0,0.0,0.0,0.0,0.0,0.0,0.0,0.0,0.0,0.0,0.0,0.0,0.0,0.0,0.0,0.0,0.0,0.0,0.0,0.0,0.0,0.0,0.0,0.0,0.0,0.0,0.0,0.0,0.0,0.0,0.0,0.0,0.0,0.0,0.0,0.0,0.0,0.0,0.0,0.0,0.0,0.0,0.0,0.0,0.0,0.0,0.0,0.0,0.0,0.0,0.0,0.0,0.0,0.0,0.0,0.0,0.0,0.0,0.0,0.0,0.0,0.0,0.0,0.0,0.0,0.0,0.0,0.0,0.0,0.0,0.0,-1.2041,0.0,0.0,0.0,0.0,0.0,0.0,0.0,0.0,0.0,0.0,0.0,0.0,0.0,0.0,0.0,0.0,0.0,0.0,0.0,0.0,0.0,0.0,0.0,0.0,0.0,0.0,0.0,0.0,0.0,0.0,0.0,0.0,0.0,0.0,0.0,0.0,0.0,0.0,0.0,0.0,0.0,0.0,0.0,0.0,0.0,0.0,0.0,0.0,0.0,0.0,0.0,0.0,0.0,0.0,0.0,0.0,0.0,0.0,0.0,0.0,0.0,0.0,0.0,0.0,0.0,0.0,0.0,0.0,0.0,0.0,0.0,0.0,0.0,0.0,0.0,0.0,0.0,0.0,0.0,0.0,0.0,0.0,0.0,0.0,0.0,0.0,0.0,0.0,0.0,0.0,0.0,0.0,0.0,0.0,0.0,0.0,0.0,0.0,0.0,0.0,0.0,0.0,0.0,0.0,0.0,0.0,0.0,0.0,-1.2323,-1.2475,-1.2358,-1.3043,-1.3319,-1.3287,-1.2808,-1.2226,-1.1876,0.0,0.0,0.0,0.0,0.0,0.0,0.0,0.0,0.0,0.0,0.0,0.0,0.0,0.0,0.0,0.0,0.0,0.0,0.0,0.0,0.0,0.0,0.0,0.0,0.0,0.0,0.0,0.0,0.0,0.0,0.0,0.0,0.0,0.0,0.0,0.0,0.0,0.0,0.0,-0.9818,-0.9683,-0.9456,-0.9013,0.0,0.0,0.0,0.0,0.0,0.0,0.0,0.0,0.0,0.0,0.0,0.0,0.0,0.0,0.0,0.0,0.0,0.0,0.0,0.0,0.0,0.0,0.0,0.0,0.0,0.0,0.0,0.0,0.0,0.0,0.0,0.0,0.0,0.0,0.0,0.0,0.0,0.0,0.0,0.0,0.0,0.0,0.0,0.0,-1.1265,-1.1608,0.0,0.0,0.0,0.0,0.0,0.0,0.0,0.0,0.0,0.0,0.0,0.0,0.0,-1.2678,-1.2986,-1.2618,-1.2527,-1.2417,-1.244,-1.2255,-1.213,-1.2978,-1.3255,-1.3389,-1.3432,0.0,-1.2235,-1.1667,0.0,0.0,0.0,0.0,0.0,0.0,0.0,0.0,0.0,0.0,0.0,0.0,0.0,0.0,0.0,0.0,0.0,0.0,0.0,0.0,0.0,0.0,0.0,0.0,0.0,0.0,0.0,0.0,0.0,0.0,0.0,0.0,0.0,0.0,0.0,0.0,-1.0424,-1.0485,-1.0457,-1.0385,-1.0135,-0.9853,-0.9467,-0.8828,-0.7996,-0.8001,0.0,0.0,0.0,0.0,0.0,0.0,0.0,0.0,0.0,0.0,0.0,0.0,0.0,0.0,0.0,0.0,0.0,0.0,0.0,0.0,0.0,0.0,0.0,0.0,0.0,0.0,0.0,0.0,0.0,0.0,0.0,0.0,0.0,0.0,0.0,0.0,0.0,0.0,0.0,-1.1354,-1.1651,-1.2006,-1.2209,-1.2397,0.0,0.0,0.0,0.0,0.0,0.0,0.0,0.0,0.0,-1.2856,-1.2791,-1.283,-1.2988,-1.2765,-1.2649,-1.2503,-1.2453,-1.2532,-1.245,-1.3036,-1.3329,-1.3621,-1.3978,-1.3697,-1.3125,-1.2383,-1.1627,-1.076,0.0,0.0,0.0,0.0,-0.9246,-0.9761,0.0,0.0,0.0,0.0,0.0,0.0,0.0,0.0,0.0,0.0,0.0,0.0,0.0,0.0,0.0,-0.9593,0.0,0.0,0.0,0.0,0.0,0.0,0.0,0.0,0.0,0.0,0.0,0.0,-1.0873,-1.0987,-1.1031,-1.1103,-1.0992,-1.0562,-1.0562,-0.984,-0.8673,-0.8654,-0.8331,0.0,0.0,0.0,0.0,0.0,0.0,0.0,0.0,0.0,0.0,0.0,0.0,0.0,0.0,0.0,0.0,0.0,0.0,0.0,0.0,0.0,0.0,0.0,0.0,0.0,0.0,0.0,0.0,0.0,0.0,0.0,0.0,0.0,0.0,0.0,0.0,0.0,0.0,-1.1638,-1.1996,-1.2208,-1.2423,-1.2738,0.0,0.0,0.0,0.0,0.0,0.0,-1.2564,-1.2656,-1.2847,-1.3022,-1.3052,-1.2948,-1.2993,-1.2947,-1.2647,-1.2543,-1.2515,-1.2592,-1.2627,-1.3079,-1.3529,-1.3829,-1.4223,-1.4351,-1.4058,-1.3109,-1.2254,-1.1473,-1.0802,-1.0071,-0.9583,-0.9676,-0.9882,-1.0154,0.0,0.0,0.0,0.0,0.0,0.0,0.0,0.0,0.0,0.0,0.0,0.0,0.0,0.0,-0.9155,-0.9303,-0.9075,-0.9081,0.0,0.0,0.0,0.0,0.0,0.0,0.0,0.0,0.0,-1.0717,-1.1294,-1.1586,-1.1613,-1.1898,-1.1878,-1.1431,-1.1431,-1.068,-0.9457,-0.9618,-0.9162,-0.8361,0.0,0.0,0.0,0.0,0.0,0.0,0.0,0.0,0.0,0.0,0.0,0.0,0.0,0.0,0.0,0.0,0.0,0.0,0.0,0.0,0.0,0.0,0.0,0.0,0.0,0.0,0.0,0.0,0.0,0.0,0.0,0.0,0.0,0.0,0.0,0.0,0.0,0.0,0.0,-1.2483,-1.2639,0.0,0.0,0.0,0.0,-1.2925,-1.258,-1.2359,-1.2538,-1.2444,-1.2552,-1.2708,-1.2887,-1.3051,-1.3215,-1.2784,-1.2721,-1.2877,-1.2429,-1.2352,-1.2481,-1.3252,-1.3714,-1.3707,-1.4462,-1.4684,-1.4627,-1.3641,-1.2943,-1.2224,-1.1233,-1.0853,-1.0548,-1.0412,-1.0451,-1.058,0.0,0.0,0.0,0.0,0.0,0.0,0.0,0.0,0.0,0.0,0.0,0.0,0.0,-0.92,-0.9271,-0.9342,-0.9076,-0.8857,-0.8986,0.0,0.0,0.0,0.0,0.0,0.0,0.0,-1.0812,-1.1002,-1.1416,-1.1714,-1.1911,-1.2115,-1.221,-1.2059,-1.2059,-1.1586,-1.0705,-1.0432,-0.9811,-0.9174,-0.908,-0.8783,0.0,0.0,0.0,0.0,0.0,0.0,0.0,0.0,0.0,0.0,0.0,0.0,0.0,0.0,0.0,0.0,0.0,0.0,0.0,0.0,0.0,0.0,0.0,0.0,0.0,0.0,0.0,0.0,0.0,0.0,0.0,0.0,0.0,0.0,0.0,0.0,0.0,-1.3043,-1.3161,0.0,-1.321,-1.3161,-1.3152,-1.2941,-1.2838,-1.2743,-1.2625,-1.2708,-1.2757,-1.3073,-1.294,-1.2899,-1.295,-1.2754,-1.2525,-1.258,-1.2427,-1.2454,-1.2501,-1.3274,-1.3744,-1.3737,-1.4597,-1.4814,-1.4692,-1.4348,-1.3704,-1.2989,-1.2263,-1.1753,-1.1289,-1.1104,-1.104,-1.1168,0.0,0.0,0.0,0.0,0.0,0.0,0.0,0.0,0.0,0.0,0.0,-0.9202,-0.9303,-0.9262,-0.9233,-0.924,-0.8961,-0.871,-0.8927,0.0,0.0,0.0,0.0,0.0,0.0,-1.0846,-1.107,-1.1314,-1.1619,-1.1898,-1.2142,-1.2291,-1.2359,-1.2359,-1.2359,-1.2152,-1.1743,-1.1347,-1.0662,-0.9912,-0.9868,-0.9546,-0.9038,0.0,0.0,0.0,0.0,0.0,0.0,0.0,0.0,0.0,0.0,0.0,0.0,0.0,0.0,0.0,0.0,0.0,0.0,0.0,0.0,0.0,0.0,0.0,0.0,0.0,0.0,0.0,0.0,0.0,0.0,0.0,0.0,0.0,0.0,0.0,-1.3011,-1.349,-1.3498,-1.3514,-1.3636,-1.3587,-1.3432,-1.3076,-1.3043,-1.2896,-1.2619,-1.264,-1.2777,-1.2885,-1.274,-1.2845,-1.2888,-1.2683,-1.2603,-1.2657,-1.2657,-1.2657,-1.2657,-1.344,-1.3567,-1.3671,-1.4439,-1.4806,-1.4646,-1.4797,-1.4404,-1.372,-1.2971,-1.2415,-1.203,-1.1605,-1.1531,-1.1619,0.0,0.0,0.0,0.0,0.0,0.0,0.0,0.0,0.0,0.0,-0.898,-0.9181,-0.922,-0.9215,-0.9134,-0.9146,-0.8979,-0.8774,-0.8774,-0.866,0.0,0.0,0.0,0.0,-1.0812,-1.1246,-1.147,-1.1619,-1.1925,-1.2142,-1.2291,-1.2433,-1.2501,-1.2501,-1.2508,-1.2508,-1.2501,-1.2366,-1.1599,-1.0599,-1.0741,-1.0238,-0.9577,0.0,0.0,0.0,0.0,0.0,0.0,0.0,0.0,0.0,0.0,0.0,0.0,0.0,0.0,0.0,0.0,0.0,0.0,0.0,0.0,0.0,0.0,0.0,0.0,0.0,0.0,0.0,0.0,0.0,0.0,0.0,0.0,0.0,-1.266,-1.2724,-1.3133,-1.3823,-1.3766,-1.3807,-1.4156,-1.4026,-1.385,-1.3582,-1.3167,-1.2941,-1.2657,-1.2368,-1.2305,-1.2305,-1.244,-1.2589,-1.2732,-1.2739,-1.2813,-1.2963,-1.2963,-1.2963,-1.2963,-1.3429,-1.3504,-1.3369,-1.414,-1.4516,-1.4376,-1.4814,-1.4862,-1.4549,-1.3626,-1.2962,-1.2664,-1.221,-1.206,-1.206,0.0,0.0,0.0,0.0,0.0,0.0,0.0,0.0,0.0,0.0,-0.8987,-0.9048,-0.8991,-0.9121,-0.9109,-0.9104,-0.8856,-0.8807,-0.8894,0.0,0.0,0.0,0.0,0.0,-1.0541,-1.1208,-1.1435,-1.1188,-1.1878,-1.225,-1.2291,-1.2433,-1.2501,-1.2508,-1.2617,-1.2664,-1.2671,-1.2745,-1.2576,-1.2361,-1.1701,-1.1147,-1.0677,0.0,0.0,0.0,0.0,0.0,0.0,0.0,0.0,0.0,0.0,0.0,0.0,0.0,0.0,0.0,0.0,0.0,0.0,0.0,0.0,0.0,0.0,0.0,0.0,0.0,0.0,0.0,0.0,0.0,0.0,0.0,0.0,-1.2242,-1.2602,-1.2674,-1.302,-1.3625,-1.3735,-1.3969,-1.4351,-1.4318,-1.4016,-1.3333,-1.329,-1.3079,-1.2374,-1.2467,-1.261,-1.261,-1.2759,-1.2854,-1.2895,-1.2895,-1.2922,-1.2963,-1.2963,-1.2963,-1.2963,-1.3429,-1.3561,-1.3518,-1.4042,-1.4274,-1.4532,-1.4562,-1.4637,-1.4879,-1.3793,-1.3207,-1.2955,-1.2359,-1.206,-1.2081,0.0,0.0,0.0,0.0,0.0,0.0,0.0,0.0,0.0,0.0,-0.8816,-0.8793,-0.8886,-0.9012,-0.8988,-0.9111,-0.8959,-0.8878,-0.8948,0.0,0.0,0.0,0.0,-1.0272,-1.0392,-1.0973,-1.1186,-1.1308,-1.1861,-1.2166,-1.2379,-1.2461,-1.2501,-1.2508,-1.2664,-1.2766,-1.2834,-1.3082,-1.3366,-1.3369,-1.2806,-1.2315,-1.1881,-1.1365,-1.0946,-1.0404,-0.9999,-0.9602,-0.9343,-0.9137,0.0,0.0,0.0,0.0,0.0,0.0,0.0,0.0,0.0,0.0,0.0,0.0,0.0,0.0,0.0,0.0,0.0,0.0,0.0,0.0,0.0,0.0,0.0,0.0,-1.218,-1.2285,-1.2313,-1.2574,-1.2865,-1.3466,-1.3744,-1.3987,-1.435,-1.4509,-1.4358,-1.3461,-1.3543,-1.3319,-1.2474,-1.2637,-1.2759,-1.2827,-1.2915,-1.299,-1.3051,-1.3051,-1.3085,-1.3146,-1.3146,-1.3146,-1.3146,-1.3464,-1.3394,0.0,-1.3656,-1.4013,-1.4182,-1.44,-1.4669,0.0,0.0,0.0,0.0,0.0,-1.2244,-1.2257,0.0,0.0,0.0,0.0,0.0,0.0,0.0,0.0,0.0,0.0,0.0,-0.8386,-0.8768,-0.8861,-0.8981,-0.9106,-0.9003,-0.8932,0.0,0.0,0.0,-0.9325,-0.9745,-1.0217,-1.0317,-1.0474,-1.0971,-1.1682,-1.1695,-1.1919,-1.2501,-1.2501,-1.2501,-1.2508,-1.2678,-1.2834,-1.3123,-1.3472,-1.3872,-1.3951,-1.4005,-1.3589,-1.2842,-1.2343,-1.1949,-1.1546,-1.0699,-1.0287,-1.0176,-0.977,0.0,0.0,0.0,0.0,0.0,0.0,0.0,0.0,0.0,0.0,0.0,0.0,0.0,0.0,0.0,0.0,0.0,0.0,0.0,0.0,0.0,0.0,0.0,0.0,-1.2255,-1.2328,-1.2079,-1.2395,-1.2853,-1.3439,-1.3809,-1.4189,-1.4353,-1.4814,-1.4661,-1.3737,-1.3744,-1.3346,-1.2725,0.0,0.0,0.0,0.0,-1.3071,-1.32,-1.32,-1.3268,-1.3403,-1.3403,-1.3403,-1.3403,-1.3403,-1.3247,-1.2983,-1.3436,-1.3576,-1.3612,-1.4237,-1.4692,-1.4992,-1.4523,-1.4053,-1.359,-1.2811,-1.2501,-1.2501,0.0,0.0,0.0,0.0,0.0,0.0,0.0,0.0,0.0,-0.8307,-0.8248,-0.8392,-0.8508,-0.8649,-0.8856,-0.8976,-0.8872,-0.8807,0.0,0.0,-0.9058,-0.9463,-0.9824,-0.997,-0.9879,-1.0512,-1.1018,-1.1225,-1.1638,-1.2011,-1.2501,-1.2501,-1.2501,-1.2515,-1.2793,-1.3089,-1.3443,-1.3867,-1.4572,-1.544,-1.5337,-1.4649,-1.3491,-1.2924,-1.2671,-1.2433,-1.1724,-1.133,-1.1288,-1.0766,-1.0571,-1.0505,-1.0397,0.0,0.0,0.0,0.0,0.0,0.0,0.0,0.0,0.0,0.0,0.0,0.0,0.0,0.0,0.0,0.0,0.0,0.0,0.0,0.0,-1.2037,-1.2095,-1.21,-1.2086,-1.223,-1.2491,-1.3022,-1.3457,-1.4014,-1.4361,-1.4814,-1.4661,-1.3737,-1.3744,-1.3346,-1.2725,-1.2847,0.0,-1.3125,-1.3254,-1.3329,-1.3356,-1.3356,-1.337,-1.3403,0.0,0.0,-1.3403,-1.3403,-1.3302,-1.3125,-1.3171,-1.3172,-1.3468,-1.3938,-1.4555,-1.5015,-1.4253,-1.359,-1.312,-1.2656,-1.2501,-1.2501,0.0,0.0,0.0,0.0,0.0,0.0,0.0,0.0,0.0,0.0,-0.7641,-0.7777,-0.7689,-0.8055,-0.8397,-0.857,-0.867,0.0,0.0,-0.8769,-0.9015,-0.94,-0.9529,-0.968,-0.9859,-1.0201,-1.0638,-1.1164,-1.1541,-1.1882,-1.2501,-1.2501,-1.2501,-1.2515,-1.2745,-1.32,-1.3604,-1.4334,-1.5093,-1.5902,-1.6299,-1.604,-1.5171,-1.4247,-1.3751,-1.3418,-1.2596,-1.2175,-1.2102,-1.1746,-1.153,-1.1302,-1.1142,-1.1045,-1.0955,0.0,0.0,0.0,0.0,0.0,0.0,0.0,0.0,0.0,0.0,0.0,0.0,0.0,0.0,-1.3465,0.0,0.0,-1.2647,-1.235,-1.2309,-1.236,-1.2142,-1.2305,-1.2393,-1.2692,-1.3231,-1.3744,-1.4053,-1.4661,-1.4814,-1.4053,-1.3898,-1.3538,-1.3144,-1.3075,-1.3064,-1.3281,-1.3363,-1.3403,-1.3403,-1.3403,-1.3403,-1.3403,-1.3403,-1.3403,-1.3403,-1.3403,-1.3315,-1.3166,-1.3098,-1.3304,-1.3475,-1.4102,-1.4688,-1.5072,-1.4361,-1.3811,-1.3274,-1.2656,-1.2501,-1.2501,0.0,0.0,0.0,0.0,0.0,0.0,0.0,0.0,0.0,0.0,-0.7065,-0.7049,-0.7122,-0.7463,-0.7928,0.0,0.0,0.0,0.0,-0.8812,-0.8992,-0.9323,-0.9383,-0.9541,-0.9829,-0.9862,-1.0229,-1.1107,-1.1262,-1.1727,-1.2347,-1.2501,-1.2501,-1.2508,-1.2664,-1.313,-1.3756,-1.4885,-1.5715,-1.6361,-1.7016,-1.7146,-1.6889,-1.5761,-1.4861,-1.4188,-1.329,-1.2843,-1.2708,-1.2567,-1.233,-1.1934,-1.1905,-1.1819,-1.1682,-1.1524,-1.1863,0.0,0.0,0.0,0.0,0.0,0.0,0.0,0.0,0.0,-1.5179,-1.4162,-1.3784,-1.3552,-1.3311,-1.2934,-1.2688,-1.2701,-1.259,-1.2414,-1.2271,-1.2413,-1.2501,-1.2501,-1.3274,-1.3744,-1.3744,-1.4507,-1.4814,-1.4361,-1.3898,-1.373,-1.3568,-1.3276,-1.3098,-1.339,-1.3403,-1.3403,-1.3403,-1.3403,-1.3403,-1.3403,-1.3403,-1.3403,-1.3403,-1.3403,-1.3315,-1.3173,-1.3146,-1.3401,-1.3792,-1.4403,-1.4963,-1.5342,-1.4829,-1.4422,-1.3834,-1.3021,-1.2562,-1.2589,0.0,0.0,0.0,0.0,0.0,0.0,0.0,0.0,0.0,0.0,0.0,-0.6909,-0.6903,-0.7229,0.0,0.0,0.0,0.0,-0.8758,-0.8976,-0.9204,-0.9454,-0.9666,-0.9796,-0.9835,-0.9943,-1.0164,-1.0641,-1.1107,-1.1572,-1.2037,-1.2347,-1.2501,-1.2508,-1.2977,-1.3605,-1.4244,-1.5377,-1.6366,-1.7363,-1.7656,-1.7907,-1.7864,-1.7144,-1.608,-1.4826,-1.3913,-1.345,-1.3159,-1.2873,-1.2716,-1.2671,-1.2537,-1.2337,-1.2432,-1.2536,0.0,-1.2405,-1.3046,-1.357,-1.4382,-1.5594,-1.6055,-1.6257,0.0,0.0,-1.5673,-1.4594,-1.4078,-1.3832,-1.3448,-1.292,-1.2544,-1.2723,-1.245,-1.2115,-1.2271,-1.2413,-1.2501,-1.2501,-1.3274,-1.3744,-1.3744,-1.4507,-1.4814,-1.4361,-1.3898,-1.373,-1.3568,-1.3276,-1.3098,-1.339,-1.3403,-1.3403,-1.3403,-1.3403,-1.3403,-1.3403,-1.3403,-1.3403,-1.3403,-1.3403,-1.3315,-1.3166,-1.3037,-1.3535,-1.4437,-1.4288,-1.4784,-1.5699,-1.5066,-1.4828,-1.4638,-1.354,-1.3109,-1.2908,0.0,0.0,0.0,0.0,0.0,0.0,0.0,0.0,0.0,0.0,0.0,-0.6224,-0.6147,0.0,0.0,0.0,0.0,0.0,-0.8753,-0.8997,-0.9269,-0.9579,-0.9753,-0.9873,-0.9943,-0.9992,-1.0175,-1.0641,-1.0796,-1.1262,-1.1882,-1.2037,-1.2347,-1.2501,-1.3035,-1.3676,-1.4396,-1.5585,-1.6598,-1.7527,-1.8183,-1.8332,-1.8201,-1.752,-1.6762,-1.5755,-1.4709,-1.405,0.0,0.0,-1.3325,-1.3024,-1.2963,-1.294,-1.2887,-1.2897,-1.299,0.0,-1.3961,-1.4262,0.0,0.0,-1.6305,-1.6395,-1.635,-1.637,-1.6089,-1.4728,-1.4414,-1.4215,-1.3669,-1.3334,-1.3146,0.0,-1.2791,-1.2539,-1.2393,-1.2467,-1.2501,-1.2501,-1.2965,-1.3428,-1.3737,-1.4507,-1.4814,-1.4361,-1.4144,-1.3833,-1.3575,-1.3353,-1.318,-1.3397,-1.3403,-1.3569,-1.3735,-1.3569,-1.3569,-1.3735,-1.3569,-1.3403,-1.3403,-1.3403,-1.3363,-1.3302,-1.3241,-1.3739,-1.4609,-1.4542,-1.4985,-1.5764,-1.553,-1.5184,-1.4846,-1.4191,-1.3858,-1.3756,0.0,0.0,0.0,0.0,0.0,0.0,0.0,0.0,0.0,0.0,0.0,0.0,0.0,0.0,0.0,0.0,0.0,0.0,0.0,-0.8981,-0.9296,-0.9655,-0.9775,-0.9894,-1.0019,-1.0019,-1.0175,-1.0486,-1.0486,-1.0952,-1.1727,-1.1882,-1.2037,-1.2501,-1.2965,-1.3581,-1.432,-1.5806,-1.6647,-1.7448,-1.8482,-1.8675,-1.8408,-1.8097,-1.7461,-1.6536,-1.5302,-1.4593,0.0,0.0,-1.3899,-1.3609,-1.3609,-1.3609,-1.356,-1.3303,-1.3642,-1.4283,-1.4638,0.0,0.0,-1.6021,-1.6509,-1.6686,-1.6559,-1.6549,-1.6265,-1.5027,-1.4727,-1.4412,-1.3858,-1.3682,-1.3498,-1.323,-1.3086,-1.2782,-1.2481,-1.2501,-1.2501,-1.2501,-1.2811,-1.3274,-1.359,-1.4353,-1.4669,-1.4361,-1.4213,-1.3907,-1.3575,-1.3415,-1.3241,-1.3397,-1.3403,-1.3569,-1.4066,-1.3569,-1.3569,-1.4066,-1.3569,-1.3403,-1.3403,-1.3403,-1.3403,-1.3403,-1.3403,-1.3894,-1.4713,-1.4713,-1.5139,-1.5845,-1.5845,-1.569,-1.5349,-1.49,-1.4693,-1.4363,0.0,0.0,0.0,0.0,0.0,0.0,0.0,0.0,0.0,0.0,0.0,0.0,0.0,0.0,0.0,0.0,0.0,0.0,0.0,-0.8793,-0.9296,-0.9655,-0.9775,-0.9894,-1.0019,-1.0019,-1.0019,-1.0019,-1.0486,-1.0796,-1.1262,-1.1727,-1.2037,-1.2501,-1.3274,-1.3834,-1.4155,-1.6064,-1.6898,-1.7252,-1.8741,-1.9062,-1.8681,-1.9143,-1.8439,-1.7214,-1.5831,0.0,0.0,0.0,-1.4353,-1.4353,-1.4353,-1.4353,0.0,-1.4336,-1.46,0.0,0.0,0.0,-1.5986,-1.6273,-1.6847,-1.7288,-1.7288,-1.6997,-1.6433,-1.5726,-1.5026,-1.4324,-1.4039,-1.3762,-1.3498,-1.323,-1.3086,-1.2782,-1.2481,-1.2501,-1.2501,-1.2501,-1.2811,-1.3274,0.0,-1.4207,-1.4368,-1.4368,-1.4213,-1.3907,-1.3575,-1.3415,-1.3241,-1.3397,-1.3403,-1.3569,-1.4066,-1.3569,-1.3569,-1.4066,-1.3569,-1.3403,-1.3403,-1.3403,-1.3403,-1.3403,-1.3403,-1.3894,-1.4713,-1.4713,-1.5208,-1.604,-1.604,-1.604,-1.604,-1.6032,-1.5365,-1.4698,0.0,0.0,0.0,0.0,0.0,0.0,0.0,0.0,0.0,0.0,0.0,0.0,0.0,0.0,0.0,0.0,0.0,0.0,0.0,-0.7991,-0.8566,-0.9123,-0.9318,-0.944,-0.9786,-0.9862,-0.99,-0.99,-1.0136,-1.0641,-1.1262,-1.1417,-1.1882,-1.2501,-1.3274,-1.3826,-1.414,-1.5929,-1.6696,-1.704,-1.8379,-1.8798,-1.8642,-1.8822,-1.8431,-1.7802,0.0,0.0,0.0,0.0,0.0,0.0,-1.4336,0.0,0.0,-1.4737,0.0,0.0,0.0,0.0,-1.6103,-1.6387,-1.6865,-1.7309,-1.703,-1.702,-1.6836,-1.5983,-1.5381,-1.4949,-1.4508,-1.4221,-1.3956,-1.3537,-1.3398,-1.3216,-1.2649,-1.2501,-1.2501,-1.2501,-1.2656,0.0,0.0,0.0,0.0,-1.4213,-1.4057,-1.3902,-1.3415,-1.3404,-1.3349,-1.3397,-1.3403,-1.3569,-1.4066,-1.3901,-1.3901,-1.4066,-1.3569,-1.3403,-1.3403,-1.3403,-1.3403,-1.3403,-1.3403,-1.3894,-1.4713,-1.4713,-1.5216,-1.6048,-1.6048,-1.6048,-1.6048,-1.6048,-1.5711,-1.5051,0.0,0.0,0.0,0.0,0.0,0.0,0.0,0.0,0.0,0.0,0.0,0.0,0.0,0.0,0.0,0.0,0.0,0.0,0.0,0.0,-0.7975,-0.8514,-0.8846,-0.9112,-0.9457,-0.972,-0.9775,-0.9775,-0.9856,-1.0355,-1.1121,-1.1121,-1.1606,-1.2427,-1.3348,-1.3744,-1.4049,-1.5827,-1.6555,-1.6844,-1.8327,-1.874,-1.8727,-1.8907,-1.8798,0.0,0.0,0.0,0.0,0.0,0.0,0.0,0.0,0.0,0.0,0.0,0.0,0.0,0.0,-1.6188,-1.6434,-1.6566,-1.699,-1.738,-1.7096,-1.7233,-1.7175,-1.6239,-1.5768,-1.5307,-1.4805,-1.4504,-1.4244,-1.3529,-1.3543,-1.3363,-1.2649,-1.2501,-1.2501,-1.2501,-1.2501,-1.2677,0.0,0.0,0.0,-1.3826,-1.3873,-1.3879,-1.3166,-1.3315,-1.3403,-1.3403,-1.3403,-1.3569,-1.4066,-1.4066,-1.4066,-1.4066,-1.3735,-1.3569,-1.3403,-1.3403,-1.3403,-1.3403,-1.3403,-1.3894,-1.4713,-1.4713,-1.5216,-1.6048,-1.6048,-1.6048,-1.6048,-1.6048,-1.5711,-1.5051,0.0,0.0,0.0,0.0,0.0,0.0,0.0,0.0,0.0,0.0,0.0,0.0,0.0,0.0,0.0,0.0,0.0,0.0,0.0,0.0,0.0,-0.8101,-0.8499,-0.876,-0.8872,-0.943,-0.9644,-0.9644,-0.965,-1.0099,-1.0847,-1.0853,-1.1377,-1.2271,-1.3173,-1.3565,-1.3883,-1.5743,-1.6441,-1.6614,-1.8514,-1.8967,-1.8744,-1.9478,0.0,0.0,0.0,0.0,0.0,0.0,0.0,0.0,0.0,0.0,0.0,0.0,0.0,-1.6188,-1.6207,-1.6509,-1.6821,-1.6821,-1.7115,-1.7419,-1.7419,-1.7419,-1.7204,-1.6692,-1.6211,-1.5578,0.0,0.0,-1.4367,-1.3386,-1.3394,-1.3246,-1.2635,-1.2501,-1.2501,0.0,0.0,0.0,0.0,0.0,0.0,-1.3225,0.0,-1.3669,-1.3186,-1.3322,-1.3403,-1.3403,-1.3403,-1.3569,-1.4066,-1.4066,-1.4066,-1.4066,-1.4066,-1.3908,-1.341,-1.341,-1.341,-1.341,-1.341,-1.3901,-1.4713,-1.4713,-1.5216,-1.6048,-1.6048,-1.6048,-1.6048,-1.6048,-1.5381,-1.4713,0.0,0.0,0.0,0.0,0.0,0.0,0.0,0.0,0.0,0.0,0.0,0.0,0.0,0.0,0.0,0.0,0.0,0.0,0.0,0.0,0.0,0.0,-0.7465,-0.785,-0.8237,0.0,0.0,-0.8832,-0.9205,-0.9831,-1.0559,-1.0663,-1.1321,-1.2395,-1.2962,-1.3633,-1.4271,-1.5368,-1.6142,-1.6749,0.0,-1.8433,-1.8746,0.0,0.0,0.0,0.0,0.0,0.0,0.0,0.0,0.0,0.0,0.0,-1.5536,0.0,0.0,-1.6254,-1.6556,-1.6831,-1.7029,-1.7029,-1.7152,-1.7416,-1.7416,-1.7416,-1.7311,-1.6793,-1.6424,-1.5922,0.0,0.0,0.0,-1.3529,-1.3468,0.0,-1.2635,-1.2501,0.0,0.0,0.0,-1.2684,-1.2883,-1.3089,0.0,0.0,-1.3619,-1.3711,-1.3336,-1.3376,-1.3403,-1.3403,-1.3403,-1.3403,-1.3569,-1.3901,-1.4232,-1.4555,-1.4232,-1.3964,-1.3573,-1.3573,-1.3573,-1.3573,-1.3573,-1.4006,-1.4713,-1.4713,-1.5216,-1.6048,-1.6048,-1.6048,-1.6048,-1.6048,-1.5381,-1.4713,0.0,0.0,0.0,0.0,0.0,0.0,0.0,0.0,0.0,0.0,0.0,0.0,0.0,0.0,0.0,0.0,0.0,0.0,0.0,0.0,0.0,0.0,-0.6951,-0.7161,-0.7491,0.0,0.0,0.0,0.0,0.0,-0.9912,-1.0272,-1.0941,-1.1928,-1.2598,-1.3405,-1.4196,-1.5223,-1.5949,0.0,0.0,0.0,0.0,0.0,0.0,0.0,0.0,0.0,0.0,0.0,0.0,-1.5795,-1.5481,-1.5583,-1.5876,-1.6112,0.0,-1.6642,-1.6868,-1.7086,-1.7246,-1.7246,-1.7341,-1.7398,-1.7303,-1.7284,-1.7161,-1.6745,-1.6515,0.0,0.0,0.0,0.0,0.0,0.0,0.0,-1.2628,-1.2501,-1.2528,0.0,-1.2678,0.0,-1.2915,-1.3078,-1.32,0.0,-1.3439,-1.3638,-1.3397,-1.3403,-1.3403,-1.3403,-1.3403,-1.3569,-1.3735,-1.3901,-1.4232,-1.439,-1.4297,-1.4048,-1.3634,-1.3695,-1.3688,-1.3627,0.0,-1.4202,-1.4713,-1.4878,-1.5381,-1.6048,-1.6048,-1.6048,-1.6048,-1.6048,-1.5381,-1.4713,0.0,0.0,0.0,0.0,0.0,0.0,0.0,0.0,0.0,0.0,0.0,0.0,0.0,0.0,0.0,0.0,0.0,0.0,0.0,0.0,0.0,0.0,-0.6498,-0.6805,0.0,0.0,0.0,0.0,0.0,0.0,0.0,-0.9654,-1.0346,-1.1301,-1.216,-1.2959,-1.3831,-1.4956,-1.5671,-1.6234,-1.7228,0.0,0.0,0.0,0.0,0.0,0.0,0.0,0.0,0.0,-1.6111,-1.5893,-1.5681,-1.5886,-1.6226,-1.6254,-1.666,-1.7114,-1.7142,-1.7284,-1.7426,-1.7426,-1.7407,-1.7331,-1.7142,-1.7086,-1.6944,-1.6528,0.0,-1.609,-1.5186,-1.5008,-1.4567,-1.3318,0.0,-1.3057,-1.2587,-1.2488,-1.2556,-1.2712,-1.2745,-1.2868,-1.3146,-1.3193,-1.3261,-1.339,-1.3403,-1.3403,-1.3403,-1.3403,-1.3403,-1.3403,-1.3403,-1.3569,-1.4066,-1.4066,-1.4081,-1.4102,-1.423,-1.4147,-1.3695,-1.3817,-1.379,-1.3654,0.0,0.0,-1.4713,-1.5216,-1.5546,-1.6048,-1.6048,-1.6048,-1.6048,-1.6048,-1.5546,-1.4713,0.0,0.0,0.0,0.0,0.0,0.0,0.0,0.0,0.0,0.0,-0.3649,-0.348,0.0,0.0,0.0,0.0,0.0,0.0,0.0,0.0,0.0,0.0,0.0,-0.626,0.0,0.0,0.0,0.0,0.0,0.0,0.0,0.0,-1.0009,-1.098,-1.1774,-1.2741,-1.388,-1.4423,-1.5385,-1.6479,-1.6752,0.0,0.0,0.0,0.0,0.0,0.0,0.0,0.0,0.0,-1.6712,-1.6736,-1.6077,-1.6093,-1.6462,-1.6642,-1.6887,-1.7142,-1.7322,-1.7398,-1.7426,-1.7426,-1.7294,-1.7152,-1.7114,-1.6972,0.0,0.0,0.0,-1.5886,-1.4982,-1.4806,0.0,-1.3283,0.0,0.0,0.0,0.0,-1.2556,0.0,0.0,0.0,0.0,0.0,0.0,0.0,0.0,-1.3403,-1.3403,-1.3403,-1.3403,-1.3403,-1.3403,-1.3569,-1.4066,-1.4066,-1.413,-1.4251,-1.428,-1.4259,-1.3994,-1.4021,-1.3946,-1.3804,-1.3804,0.0,-1.4713,-1.4713,-1.5216,-1.6048,-1.6048,-1.6048,-1.6048,-1.6048,-1.5711,-1.5216,0.0,0.0,0.0,0.0,0.0,0.0,0.0,-0.4961,-0.4425,-0.4092,-0.3457,-0.3141,-0.349,-0.3353,0.0,0.0,0.0,0.0,0.0,0.0,0.0,0.0,0.0,0.0,0.0,0.0,0.0,0.0,0.0,0.0,0.0,0.0,0.0,0.0,0.0,0.0,0.0,0.0,0.0,0.0,0.0,0.0,0.0,0.0,0.0,0.0,0.0,0.0,0.0,0.0,-1.6566,-1.6599,-1.6253,-1.6396,-1.6689,-1.6897,-1.7105,-1.7294,-1.7398,-1.7426,-1.7426,-1.7426,-1.7265,-1.7076,-1.6972,0.0,0.0,0.0,0.0,-1.5441,-1.4745,0.0,0.0,0.0,0.0,0.0,0.0,0.0,0.0,0.0,0.0,0.0,0.0,0.0,0.0,0.0,0.0,-1.3403,-1.3403,-1.3403,-1.3403,-1.3403,-1.3403,-1.3569,-1.3735,-1.3735,-1.3811,-1.3964,-1.4034,-1.4022,-1.4075,-1.4075,-1.3987,-1.3838,-1.3926,0.0,-1.4713,-1.4878,-1.5381,-1.6048,-1.6048,-1.6048,-1.6048,-1.6048,-1.5711,-1.5381,0.0,0.0,0.0,0.0,0.0,0.0,0.0,-0.4885,-0.4478,-0.4023,-0.3274,-0.2941,-0.3123,-0.2988,-0.3039,0.0,0.0,0.0,0.0,0.0,0.0,0.0,0.0,0.0,0.0,0.0,0.0,0.0,0.0,0.0,0.0,0.0,0.0,0.0,0.0,0.0,0.0,0.0,0.0,0.0,0.0,0.0,0.0,0.0,0.0,0.0,0.0,0.0,0.0,0.0,-1.6271,-1.6225,-1.6415,-1.6594,-1.6831,-1.6991,-1.7227,-1.7426,-1.7426,-1.7426,-1.7426,-1.7426,-1.7237,-1.7001,-1.684,-1.6481,0.0,0.0,-1.5385,-1.49,-1.4604,0.0,0.0,0.0,0.0,0.0,0.0,0.0,0.0,0.0,0.0,0.0,0.0,0.0,0.0,0.0,0.0,0.0,-1.3403,-1.3403,-1.3403,-1.3403,-1.3403,-1.3403,-1.3403,-1.3403,-1.3478,-1.3634,-1.3777,-1.3905,-1.4021,-1.4055,-1.3973,-1.379,-1.4006,0.0,0.0,-1.5051,-1.5546,-1.5883,-1.6048,-1.6048,-1.6048,-1.6048,-1.5875,-1.5381,0.0,0.0,0.0,0.0,0.0,0.0,0.0,-0.4545,-0.4364,-0.3793,-0.3187,-0.287,-0.2823,-0.2596,-0.2719,0.0,0.0,0.0,0.0,0.0,0.0,0.0,0.0,0.0,0.0,0.0,0.0,0.0,0.0,0.0,0.0,0.0,0.0,0.0,0.0,0.0,0.0,0.0,0.0,0.0,0.0,0.0,0.0,0.0,0.0,0.0,0.0,0.0,0.0,0.0,0.0,-1.5394,-1.6018,-1.6481,-1.6802,-1.6831,0.0,0.0,-1.7426,-1.7426,-1.7426,-1.7426,-1.7123,-1.6831,-1.6812,0.0,0.0,-1.5668,-1.5292,-1.4819,-1.4396,0.0,0.0,0.0,0.0,-1.2332,0.0,0.0,0.0,0.0,0.0,0.0,0.0,0.0,0.0,0.0,0.0,0.0,-1.3403,-1.3403,-1.3403,-1.3403,-1.3403,-1.3403,-1.3403,-1.3403,-1.3478,-1.3634,-1.3777,-1.3844,-1.3865,-1.4007,-1.3919,-1.3648,-1.3634,0.0,0.0,-1.4555,-1.5051,-1.5546,-1.5875,-1.6048,-1.6048,-1.6048,-1.6048,-1.5883,0.0,0.0,0.0,0.0,0.0,0.0,-0.4704,-0.4468,-0.4196,-0.385,-0.3477,-0.316,-0.287,-0.2607,-0.2592,0.0,0.0,0.0,0.0,0.0,0.0,0.0,0.0,0.0,0.0,0.0,0.0,0.0,0.0,0.0,0.0,0.0,0.0,0.0,0.0,0.0,0.0,0.0,0.0,0.0,0.0,0.0,0.0,0.0,0.0,0.0,0.0,0.0,0.0,0.0,0.0,0.0,-1.5687,-1.6093,0.0,0.0,-1.7105,-1.7256,-1.7388,-1.7426,-1.7426,-1.7426,-1.7114,-1.6802,-1.6802,0.0,-1.5763,-1.5593,-1.4953,-1.4254,-1.4165,-1.3382,0.0,-1.2492,-1.2137,0.0,0.0,0.0,0.0,0.0,0.0,0.0,0.0,0.0,0.0,0.0,0.0,0.0,-1.3403,-1.3403,-1.3403,-1.3403,-1.3403,-1.3403,-1.3403,-1.3403,-1.3519,-1.3756,-1.3817,-1.3885,-1.398,-1.3946,-1.3824,-1.3627,-1.3532,0.0,0.0,-1.4232,-1.4721,-1.5381,-1.5546,-1.5719,-1.6048,-1.6048,-1.5883,-1.5546,0.0,0.0,0.0,0.0,0.0,-0.5485,-0.4592,-0.436,-0.4088,-0.3624,-0.3487,-0.3169,-0.2759,-0.2492,-0.2353,-0.2573,0.0,0.0,0.0,0.0,0.0,0.0,0.0,0.0,0.0,0.0,0.0,0.0,0.0,0.0,0.0,0.0,0.0,0.0,0.0,0.0,0.0,0.0,0.0,0.0,0.0,0.0,0.0,0.0,0.0,0.0,0.0,0.0,0.0,0.0,0.0,0.0,0.0,0.0,0.0,0.0,-1.701,-1.7133,-1.7294,-1.7379,-1.7426,-1.7426,-1.7114,-1.6802,0.0,0.0,-1.5706,-1.5583,-1.4782,-1.4059,-1.4086,-1.307,-1.2306,-1.2425,-1.1917,-1.1721,-1.202,0.0,0.0,0.0,0.0,0.0,0.0,0.0,0.0,0.0,0.0,0.0,0.0,-1.3403,-1.3403,-1.3403,-1.3403,-1.3403,-1.3403,-1.3444,-1.3573,-1.3777,-1.3865,-1.3939,-1.4,-1.3892,-1.3763,-1.362,0.0,0.0,0.0,-1.4066,-1.4397,-1.5051,-1.5216,-1.5381,-1.5546,-1.5546,-1.5381,-1.5051,0.0,0.0,0.0,0.0,0.0,0.0,-0.4592,-0.4322,-0.3908,-0.3332,-0.3074,-0.2757,-0.248,-0.2122,-0.199,-0.2305,0.0,0.0,0.0,0.0,0.0,0.0,0.0,0.0,0.0,0.0,0.0,0.0,0.0,0.0,0.0,0.0,0.0,0.0,0.0,0.0,0.0,0.0,0.0,0.0,0.0,0.0,-1.5836,0.0,0.0,0.0,0.0,0.0,0.0,0.0,0.0,0.0,0.0,0.0,0.0,0.0,-1.6783,-1.7105,-1.7105,-1.7265,-1.7426,-1.7426,-1.7114,-1.6802,0.0,0.0,-1.6056,-1.5649,-1.5001,-1.4332,-1.3954,-1.2982,-1.2261,-1.2268,-1.1839,-1.1721,-1.202,0.0,0.0,0.0,0.0,0.0,0.0,0.0,0.0,0.0,0.0,0.0,0.0,-1.3403,-1.3403,-1.3403,-1.3403,-1.3403,-1.3403,-1.3553,-1.3627,-1.3634,-1.3926,-1.3987,-1.3844,-1.3838,-1.3763,0.0,0.0,0.0,0.0,-1.3901,-1.4066,-1.4232,-1.4555,-1.4713,-1.4713,-1.4713,-1.4713,-1.4713,0.0,0.0,0.0,0.0,0.0,0.0,0.0,-0.3978,-0.3446,-0.3217,-0.3043,-0.2723,-0.2476,-0.2218,-0.2083,-0.1957,0.0,0.0,0.0,0.0,0.0,0.0,0.0,0.0,0.0,0.0,0.0,0.0,0.0,0.0,0.0,0.0,0.0,0.0,0.0,0.0,0.0,0.0,0.0,0.0,0.0,-1.4654,-1.4602,0.0,0.0,0.0,0.0,0.0,0.0,0.0,0.0,0.0,0.0,0.0,0.0,0.0,0.0,0.0,-1.7029,-1.7057,-1.7029,-1.7171,-1.6887,-1.6585,-1.6585,0.0,-1.5715,-1.5593,-1.4791,-1.4024,-1.3901,-1.2982,-1.2261,-1.2261,-1.1839,-1.1721,0.0,0.0,0.0,0.0,0.0,0.0,0.0,0.0,0.0,0.0,0.0,0.0,0.0,-1.3403,-1.3403,-1.3403,-1.3403,-1.3451,-1.3553,-1.3607,-1.3729,-1.3933,-1.4027,-1.4048,-1.4,-1.4,0.0,0.0,0.0,0.0,0.0,-1.361,-1.3735,-1.4066,-1.4232,-1.439,-1.4713,-1.4713,-1.4555,-1.4232,0.0,0.0,0.0,0.0,0.0,0.0,0.0,-0.3729,-0.3075,-0.3075,-0.2772,-0.2562,-0.22,-0.2192,-0.207,-0.184,0.0,0.0,0.0,0.0,0.0,0.0,0.0,0.0,0.0,0.0,0.0,0.0,0.0,0.0,0.0,0.0,0.0,0.0,0.0,0.0,0.0,0.0,0.0,0.0,-1.3653,-1.4098,-1.4127,0.0,0.0,0.0,0.0,0.0,0.0,0.0,0.0,0.0,0.0,0.0,0.0,0.0,0.0,0.0,0.0,-1.6693,-1.6831,-1.6805,-1.658,0.0,0.0,0.0,0.0,-1.547,-1.4691,-1.3963,0.0,0.0,0.0,0.0,0.0,0.0,0.0,0.0,0.0,0.0,0.0,0.0,0.0,0.0,0.0,0.0,0.0,0.0,0.0,-1.3403,-1.3403,-1.3403,-1.3458,-1.3532,-1.3627,-1.3743,-1.3892,-1.4075,-1.4129,-1.4156,-1.4156,-1.4095,0.0,0.0,0.0,0.0,0.0,-1.3607,-1.3707,-1.3992,-1.3992,-1.395,-1.4225,-1.4225,-1.4059,-1.3901,0.0,0.0,0.0,0.0,0.0,0.0,0.0,0.0,-0.3026,-0.2692,-0.2502,-0.2169,-0.1798,-0.1823,-0.184,-0.184,0.0,0.0,0.0,0.0,0.0,0.0,0.0,0.0,0.0,0.0,0.0,0.0,-0.5754,-0.6093,-0.6428,0.0,0.0,0.0,0.0,0.0,0.0,0.0,0.0,0.0,-1.2891,-1.3373,0.0,0.0,0.0,0.0,0.0,0.0,0.0,0.0,0.0,0.0,0.0,0.0,0.0,0.0,0.0,0.0,0.0,0.0,0.0,0.0,0.0,0.0,0.0,0.0,0.0,0.0,0.0,0.0,0.0,0.0,0.0,0.0,0.0,0.0,0.0,0.0,0.0,0.0,0.0,0.0,0.0,0.0,0.0,0.0,0.0,0.0,0.0,-1.3403,-1.3403,-1.3417,-1.3566,-1.3648,-1.3648,-1.3926,-1.4075,-1.4089,-1.4231,-1.4299,-1.4292,-1.415,0.0,0.0,0.0,0.0,0.0,-1.3844,-1.3763,-1.3641,-1.3634,-1.3546,-1.3417,-1.3403,-1.3403,-1.3403,0.0,0.0,0.0,0.0,0.0,0.0,0.0,0.0,0.0,0.0,-0.2253,-0.1916,-0.1795,-0.1823,-0.184,0.0,0.0,0.0,0.0,0.0,0.0,0.0,0.0,0.0,0.0,0.0,0.0,-0.5208,-0.5786,-0.6031,-0.6181,-0.6629,0.0,0.0,0.0,0.0,0.0,0.0,0.0,0.0,-1.2593,-1.3048,0.0,0.0,0.0,0.0,-1.4347,-1.4547,0.0,0.0,0.0,0.0,0.0,0.0,0.0,0.0,-1.395,0.0,0.0,0.0,0.0,0.0,0.0,0.0,0.0,0.0,0.0,0.0,0.0,0.0,0.0,0.0,0.0,0.0,0.0,0.0,0.0,0.0,0.0,0.0,0.0,0.0,0.0,0.0,0.0,0.0,0.0,0.0,0.0,-1.3403,-1.3458,-1.3573,-1.3715,-1.379,-1.379,-1.398,-1.4129,-1.4245,-1.4285,-1.4299,-1.4299,-1.4265,0.0,0.0,0.0,0.0,-1.4007,-1.3885,-1.3824,-1.3783,-1.3675,-1.3607,-1.3559,-1.3444,-1.3403,-1.3403,0.0,0.0,0.0,0.0,0.0,0.0,0.0,0.0,0.0,0.0,0.0,0.0,0.0,0.0,0.0,0.0,0.0,0.0,0.0,0.0,0.0,0.0,0.0,0.0,0.0,0.0,0.0,0.0,0.0,-0.582,0.0,0.0,0.0,0.0,0.0,0.0,0.0,0.0,0.0,-1.1405,-1.2109,0.0,0.0,0.0,0.0,0.0,-1.4355,-1.4534,0.0,-1.4865,-1.4408,-1.3892,0.0,0.0,0.0,0.0,-1.3775,-1.3833,-1.4115,-1.4617,0.0,0.0,0.0,0.0,0.0,0.0,0.0,0.0,0.0,0.0,0.0,0.0,0.0,0.0,0.0,0.0,0.0,0.0,0.0,0.0,0.0,0.0,0.0,0.0,0.0,0.0,0.0,0.0,0.0,-1.3403,-1.3471,-1.3627,-1.377,-1.3871,-1.3946,-1.4102,-1.4217,-1.4299,-1.4299,-1.4299,-1.4299,-1.4299,-1.4299,0.0,0.0,0.0,-1.417,-1.4089,-1.4007,-1.3939,-1.3865,-1.3749,-1.362,-1.3539,-1.3458,-1.3403,0.0,0.0,0.0,0.0,0.0,0.0,0.0,0.0,0.0,0.0,0.0,0.0,0.0,0.0,0.0,0.0,0.0,0.0,0.0,0.0,0.0,0.0,0.0,0.0,0.0,0.0,0.0,0.0,0.0,0.0,0.0,0.0,-0.6976,0.0,0.0,0.0,0.0,0.0,0.0,-1.1269,-1.1631,0.0,0.0,0.0,0.0,0.0,0.0,0.0,0.0,-1.4874,-1.4539,-1.4041,-1.4086,0.0,0.0,0.0,0.0,0.0,-1.3847,-1.4332,-1.4759,0.0,0.0,0.0,0.0,0.0,0.0,0.0,0.0,0.0,0.0,0.0,0.0,0.0,0.0,0.0,0.0,0.0,0.0,0.0,0.0,0.0,0.0,0.0,0.0,0.0,0.0,0.0,0.0,-1.3403,-1.3485,-1.3654,-1.3777,-1.3926,-1.4102,-1.4238,-1.4299,-1.4299,-1.4299,-1.4122,-1.4122,-1.4122,-1.4122,-1.4122,0.0,0.0,-1.4299,-1.4299,-1.4048,-1.4102,-1.4082,-1.3747,-1.3519,-1.3648,-1.3546,-1.3264,0.0,0.0,0.0,0.0,0.0,0.0,0.0,0.0,0.0,0.0,0.0,0.0,0.0,0.0,0.0,0.0,0.0,0.0,0.0,0.0,0.0,0.0,0.0,0.0,0.0,0.0,0.0,0.0,0.0,0.0,-0.5781,-0.6257,-0.7008,0.0,0.0,0.0,0.0,0.0,0.0,-1.0906,-1.1511,0.0,0.0,0.0,0.0,0.0,0.0,0.0,0.0,-1.4941,-1.4828,-1.4716,-1.4086,0.0,0.0,0.0,0.0,0.0,-1.3815,-1.4047,-1.4047,0.0,0.0,0.0,0.0,0.0,0.0,0.0,0.0,0.0,0.0,0.0,0.0,0.0,0.0,0.0,0.0,0.0,0.0,0.0,0.0,0.0,0.0,0.0,0.0,0.0,0.0,0.0,0.0,-1.3403,-1.3526,-1.3797,-1.3831,-1.3973,-1.4265,-1.4285,-1.4299,-1.4299,-1.3945,-1.3768,-1.3768,-1.3768,-1.3768,-1.3768,0.0,-1.4299,-1.4299,-1.3945,-1.3755,-1.3722,-1.3591,-1.352,-1.3454,-1.3552,-1.3445,-1.2901,0.0,0.0,0.0,0.0,0.0,0.0,0.0,0.0,0.0,0.0,0.0,0.0,0.0,0.0,0.0,0.0,0.0,0.0,0.0,0.0,0.0,0.0,0.0,0.0,0.0,0.0,0.0,0.0,0.0,-0.5388,-0.5597,-0.6614,-0.7199,-0.7463,0.0,0.0,0.0,0.0,0.0,-1.0301,0.0,0.0,0.0,0.0,0.0,0.0,0.0,0.0,0.0,0.0,-1.4688,-1.4313,-1.4024,0.0,0.0,0.0,0.0,0.0,-1.3831,-1.3904,-1.3904,0.0,0.0,0.0,0.0,0.0,0.0,0.0,0.0,0.0,0.0,0.0,0.0,0.0,0.0,0.0,0.0,0.0,0.0,0.0,0.0,0.0,0.0,0.0,0.0,0.0,0.0,0.0,0.0,0.0,-1.3539,-1.3831,-1.3838,-1.3987,-1.4299,-1.4299,-1.4122,-1.3945,-1.3768,-1.3413,-1.323,-1.323,-1.323,-1.323,0.0,-1.3591,-1.3591,-1.323,-1.323,-1.3224,-1.3161,-1.3267,-1.3346,-1.3311,-1.3232,-1.2873,0.0,0.0,0.0,0.0,0.0,0.0,0.0,0.0,0.0,0.0,0.0,0.0,0.0,0.0,0.0,0.0,0.0,0.0,0.0,0.0,0.0,0.0,0.0,0.0,0.0,0.0,-0.3951,-0.4055,-0.4571,-0.5069,-0.5541,-0.6821,-0.7388,0.0,0.0,0.0,0.0,0.0,0.0,-0.9863,0.0,0.0,0.0,0.0,0.0,0.0,0.0,0.0,0.0,0.0,0.0,0.0,0.0,0.0,0.0,-1.3133,-1.3408,-1.3768,-1.394,-1.3872,-1.3904,0.0,0.0,0.0,0.0,0.0,0.0,0.0,0.0,0.0,0.0,0.0,0.0,0.0,0.0,0.0,0.0,0.0,0.0,0.0,0.0,0.0,0.0,0.0,0.0,0.0,0.0,0.0,0.0,0.0,-1.3573,-1.3831,-1.3878,-1.4027,-1.4299,-1.4299,-1.4122,-1.3591,-1.3413,-1.323,-1.2698,-1.2698,-1.2698,-1.2698,-1.2875,-1.2875,-1.2875,-1.2698,-1.2698,-1.2698,-1.2698,-1.2972,-1.3184,-1.2897,-1.2841,-1.2625,0.0,0.0,0.0,0.0,0.0,0.0,0.0,0.0,0.0,0.0,0.0,0.0,0.0,0.0,0.0,0.0,0.0,0.0,0.0,0.0,0.0,0.0,0.0,0.0,0.0,-0.3967,-0.4055,-0.412,-0.4504,-0.5137,-0.5891,-0.6305,-0.6888,-0.7486,0.0,0.0,0.0,0.0,0.0,-0.9751,-0.9869,0.0,0.0,0.0,0.0,0.0,0.0,0.0,0.0,0.0,0.0,0.0,0.0,0.0,-1.2773,-1.2396,-1.2846,-1.3449,-1.3768,-1.3924,-1.3904,0.0,0.0,0.0,0.0,0.0,0.0,0.0,0.0,0.0,0.0,0.0,0.0,0.0,0.0,0.0,0.0,0.0,0.0,0.0,0.0,0.0,0.0,0.0,0.0,0.0,0.0,0.0,-1.3403,-1.3539,-1.3682,-1.3838,-1.398,-1.4136,-1.4299,-1.4299,-1.4122,-1.3591,-1.323,-1.2698,-1.2165,-1.2165,-1.2165,-1.2343,-1.2698,-1.2875,-1.2875,-1.2343,-1.2165,-1.2165,-1.2165,-1.2437,-1.2667,-1.2312,-1.2062,-1.179,0.0,0.0,0.0,0.0,0.0,0.0,0.0,0.0,0.0,0.0,0.0,0.0,0.0,0.0,0.0,0.0,0.0,0.0,0.0,0.0,0.0,0.0,0.0,-0.3956,-0.3844,-0.4011,-0.4101,-0.424,-0.4806,-0.5162,-0.5144,-0.611,0.0,0.0,0.0,0.0,0.0,0.0,0.0,0.0,-1.0114,-1.0369,0.0,0.0,0.0,0.0,0.0,0.0,0.0,0.0,-1.2816,-1.2684,-1.2025,-1.1622,-1.1519,-1.1397,-1.1983,-1.272,-1.3029,-1.3342,-1.3642,0.0,0.0,0.0,0.0,0.0,0.0,0.0,0.0,0.0,0.0,0.0,0.0,0.0,0.0,0.0,0.0,0.0,0.0,0.0,0.0,0.0,0.0,0.0,0.0,0.0,0.0,0.0,0.0,-1.2875,-1.2841,-1.3317,-1.3641,-1.3793,-1.3945,-1.4122,-1.4122,-1.3591,-1.3053,-1.2698,-1.2165,-1.1988,-1.181,-1.181,-1.1988,-1.1988,-1.1988,-1.181,-1.181,-1.181,-1.2165,-1.2314,-1.2443,-1.2267,-1.2061,-1.2015,0.0,0.0,0.0,0.0,0.0,0.0,0.0,0.0,0.0,0.0,0.0,0.0,0.0,0.0,0.0,0.0,0.0,0.0,0.0,0.0,-0.2671,0.0,0.0,-0.3862,-0.3936,-0.4063,-0.4145,-0.4174,-0.5026,-0.5232,-0.5045,0.0,0.0,0.0,0.0,0.0,0.0,0.0,0.0,0.0,0.0,-1.0337,0.0,0.0,0.0,0.0,0.0,0.0,0.0,0.0,-1.2824,-1.2692,-1.2033,-1.1358,-1.0843,-1.086,-1.1295,-1.1877,-1.2315,-1.2768,-1.3228,0.0,0.0,0.0,0.0,0.0,0.0,0.0,0.0,0.0,0.0,0.0,0.0,0.0,0.0,0.0,0.0,0.0,0.0,0.0,0.0,0.0,0.0,0.0,0.0,0.0,0.0,0.0,0.0,-1.2427,-1.2563,-1.3044,-1.3191,-1.3312,-1.3584,-1.3945,-1.3945,-1.3768,-1.3413,-1.2875,-1.2165,-1.181,-1.1632,-1.1455,-1.1455,-1.1455,-1.1455,-1.1455,-1.1455,-1.1455,-1.181,-1.1988,-1.1988,-1.1988,-1.1988,-1.1976,0.0,0.0,0.0,0.0,0.0,0.0,0.0,0.0,0.0,0.0,0.0,0.0,0.0,0.0,0.0,0.0,0.0,0.0,0.0,-0.1929,-0.2185,-0.2958,-0.3579,-0.4006,-0.4123,-0.4128,-0.4057,-0.4174,-0.498,-0.5467,-0.5604,-0.6218,0.0,0.0,0.0,0.0,0.0,0.0,0.0,0.0,0.0,-1.0324,0.0,0.0,0.0,0.0,0.0,0.0,0.0,0.0,-1.284,-1.27,-1.2048,-1.1644,-1.1401,-1.1028,-1.1036,-1.1317,-1.1461,-1.2194,0.0,0.0,0.0,0.0,0.0,0.0,0.0,0.0,0.0,0.0,0.0,0.0,0.0,0.0,0.0,0.0,0.0,0.0,0.0,0.0,0.0,0.0,0.0,0.0,0.0,0.0,0.0,0.0,0.0,-1.2399,-1.2533,-1.2667,-1.2808,-1.3053,-1.3591,-1.3591,-1.3768,-1.4299,-1.3768,-1.3053,-1.2165,-1.2165,-1.1988,-1.1455,-1.1455,-1.1455,-1.1455,-1.1455,-1.1455,-1.1455,-1.1455,-1.1455,-1.1455,-1.1455,-1.1455,-1.1455,0.0,0.0,0.0,0.0,0.0,0.0,0.0,0.0,0.0,0.0,0.0,0.0,0.0,0.0,0.0,0.0,0.0,0.0,0.0,-0.2207,-0.2578,-0.296,-0.3579,-0.4006,-0.4123,-0.4251,-0.4468,-0.4777,-0.514,-0.558,-0.6214,0.0,0.0,-0.7799,0.0,0.0,0.0,0.0,0.0,0.0,-0.9929,-1.0117,0.0,0.0,0.0,0.0,0.0,0.0,0.0,0.0,0.0,0.0,-1.1909,-1.1512,-1.1276,-1.1035,-1.1043,-1.1331,-1.1762,0.0,0.0,0.0,0.0,0.0,0.0,0.0,0.0,0.0,0.0,0.0,0.0,0.0,0.0,0.0,0.0,0.0,0.0,0.0,0.0,0.0,0.0,0.0,0.0,0.0,0.0,0.0,0.0,0.0,0.0,-1.1624,-1.1754,-1.2144,-1.2273,-1.252,-1.252,-1.3236,-1.3591,-1.3768,-1.3945,-1.3768,-1.323,-1.2875,-1.2698,-1.252,-1.2165,-1.1988,-1.1988,-1.1632,-1.1455,-1.1455,-1.1455,-1.1455,-1.1455,-1.1455,-1.1455,-1.1455,0.0,0.0,0.0,0.0,0.0,0.0,0.0,0.0,0.0,0.0,0.0,0.0,0.0,0.0,0.0,0.0,0.0,0.0,0.0,0.0,-0.296,-0.3332,-0.3704,-0.4006,-0.4123,-0.4281,-0.4496,-0.5036,-0.525,-0.5815,-0.6449,0.0,0.0,-0.7583,0.0,-0.8418,0.0,0.0,-0.9198,-0.918,-0.9401,-0.9802,-1.0174,0.0,0.0,0.0,0.0,0.0,0.0,0.0,0.0,0.0,-1.1644,-1.138,-1.1157,-1.1111,-1.1097,-1.1351,-1.1705,0.0,0.0,0.0,0.0,0.0,0.0,0.0,0.0,0.0,0.0,0.0,0.0,0.0,0.0,0.0,0.0,0.0,0.0,0.0,0.0,0.0,0.0,0.0,0.0,0.0,0.0,0.0,0.0,0.0,0.0,-1.1367,-1.1467,-1.1692,-1.1948,-1.1988,-1.2165,-1.2875,-1.3413,-1.3591,-1.4122,-1.4122,-1.3945,-1.3413,-1.3053,-1.2875,-1.2343,-1.2165,-1.1988,-1.1632,-1.1455,-1.1455,-1.1455,-1.1455,-1.1455,-1.1455,-1.1455,-1.1455,0.0,0.0,0.0,0.0,0.0,0.0,0.0,0.0,0.0,0.0,0.0,0.0,0.0,0.0,0.0,0.0,0.0,0.0,0.0,0.0,-0.3332,-0.3828,-0.3962,-0.4019,-0.4131,-0.4248,-0.444,-0.4839,-0.5451,-0.5895,0.0,0.0,-0.6914,-0.7674,0.0,-0.8158,-0.8943,-0.8834,-0.8922,-0.9307,-0.9065,-0.9438,-1.0193,-1.0437,0.0,0.0,0.0,0.0,0.0,0.0,0.0,0.0,-1.138,-1.1115,-1.1178,-1.1193,-1.1151,-1.1226,0.0,0.0,0.0,0.0,0.0,0.0,0.0,0.0,0.0,0.0,0.0,0.0,0.0,0.0,0.0,0.0,0.0,0.0,0.0,0.0,0.0,0.0,0.0,0.0,0.0,0.0,0.0,0.0,0.0,0.0,0.0,-1.1281,-1.134,-1.1449,-1.1455,-1.1632,-1.2165,-1.2698,-1.3053,-1.3591,-1.4122,-1.4299,-1.4299,-1.3945,-1.3413,-1.2875,-1.2343,-1.1988,-1.1455,-1.1455,-1.1455,-1.1455,-1.1455,-1.1455,-1.1455,-1.1455,-1.1455,-1.1455,0.0,0.0,0.0,0.0,0.0,0.0,0.0,0.0,0.0,0.0,0.0,0.0,0.0,0.0,0.0,0.0,0.0,0.0,0.0,0.0,-0.3455,-0.3828,-0.4038,-0.4123,-0.4196,-0.427,-0.444,-0.4839,-0.5262,0.0,0.0,0.0,0.0,-0.7679,0.0,-0.8228,-0.8948,-0.8921,-0.891,-0.9038,-0.9154,-0.9514,-0.993,-1.0199,0.0,0.0,0.0,0.0,0.0,0.0,0.0,0.0,-1.1247,-1.0982,-1.0891,-1.0941,-1.1077,-1.1206,0.0,0.0,0.0,0.0,0.0,0.0,0.0,0.0,0.0,0.0,0.0,0.0,0.0,0.0,0.0,0.0,0.0,0.0,0.0,0.0,0.0,0.0,0.0,0.0,0.0,0.0,0.0,0.0,0.0,0.0,-1.1264,-1.1362,-1.1427,-1.1455,-1.1455,-1.1632,-1.1632,-1.252,-1.2875,0.0,-1.3945,-1.4299,-1.4299,-1.4122,-1.3768,-1.2875,-1.2343,-1.1988,-1.1455,-1.1455,-1.1455,-1.1455,-1.1455,-1.1455,-1.1455,-1.1455,-1.1455,-1.1455,0.0,0.0,0.0,0.0,0.0,0.0,0.0,0.0,0.0,0.0,0.0,0.0,0.0,0.0,0.0,0.0,0.0,0.0,0.0,0.0,0.0,-0.3989,-0.4106,-0.4185,-0.4215,-0.4275,-0.444,-0.4839,-0.5245,0.0,0.0,0.0,0.0,-0.7755,0.0,-0.8359,-0.9117,-0.9063,-0.9041,-0.903,-0.9043,-0.9228,-0.9573,0.0,0.0,0.0,0.0,0.0,0.0,0.0,0.0,0.0,0.0,0.0,-1.0219,-1.0631,-1.0639,-1.0644,0.0,0.0,0.0,0.0,0.0,0.0,0.0,0.0,0.0,0.0,0.0,0.0,0.0,0.0,0.0,0.0,0.0,0.0,0.0,0.0,0.0,0.0,0.0,0.0,0.0,0.0,0.0,0.0,0.0,-1.1177,-1.1351,-1.1362,-1.1395,-1.1455,-1.14,-1.1395,-1.1455,-1.2165,-1.2698,-1.2875,-1.3591,-1.3945,-1.3945,-1.3945,-1.3591,-1.2875,-1.2343,-1.1988,-1.1455,-1.1455,-1.1455,-1.1455,-1.1455,-1.1455,-1.1455,-1.1455,-1.1455,-1.1455,0.0,0.0,0.0,0.0,0.0,0.0,0.0,0.0,0.0,0.0,0.0,0.0,0.0,0.0,0.0,0.0,0.0,0.0,0.0,0.0,0.0,-0.4049,-0.4158,-0.4215,-0.4215,-0.4275,-0.4434,-0.469,0.0,0.0,0.0,0.0,0.0,-0.7841,0.0,-0.8499,-0.9152,-0.9204,-0.9166,-0.9155,-0.903,-0.906,0.0,0.0,0.0,0.0,0.0,0.0,0.0,0.0,0.0,0.0,0.0,0.0,-0.9819,-1.0194,-1.0191,-1.0191,0.0,0.0,0.0,0.0,0.0,0.0,0.0,0.0,0.0,0.0,0.0,0.0,0.0,0.0,0.0,0.0,0.0,0.0,0.0,0.0,0.0,0.0,0.0,0.0,0.0,0.0,0.0,0.0,0.0,-1.1199,-1.1411,-1.133,-1.1319,-1.1422,-1.1324,-1.133,-1.1455,-1.1988,-1.2343,-1.2698,-1.323,-1.3413,-1.3413,-1.3413,-1.323,-1.2698,-1.2343,-1.181,-1.1455,-1.1455,-1.1455,-1.1455,-1.1455,-1.1455,-1.1455,-1.1455,-1.1455,-1.1455,0.0,0.0,0.0,0.0,0.0,0.0,0.0,0.0,0.0,0.0,0.0,0.0,0.0,0.0,0.0,0.0,0.0,0.0,0.0,0.0,0.0,-0.4112,-0.418,-0.4215,-0.4215,-0.4275,-0.4281,-0.4229,0.0,0.0,0.0,0.0,0.0,-0.7427,0.0,0.0,-0.8874,-0.9141,-0.928,-0.9269,-0.9155,-0.9242,0.0,0.0,0.0,0.0,0.0,0.0,0.0,0.0,0.0,0.0,0.0,0.0,-0.9667,-0.9819,-0.9912,-0.9912,0.0,0.0,0.0,0.0,0.0,0.0,0.0,0.0,0.0,0.0,0.0,0.0,0.0,0.0,0.0,0.0,0.0,0.0,0.0,0.0,0.0,0.0,0.0,0.0,0.0,0.0,0.0,0.0,-1.0751,-1.1161,-1.1291,-1.1281,-1.1281,-1.1297,-1.1281,-1.133,-1.1455,-1.1988,-1.2165,-1.2343,-1.2698,-1.3053,-1.3053,-1.252,-1.2343,-1.2343,-1.181,-1.1632,-1.1455,-1.1455,-1.1455,-1.1455,-1.1455,-1.1455,-1.1455,-1.1455,-1.1455,-1.1455,0.0,0.0,0.0,0.0,0.0,0.0,0.0,0.0,0.0,0.0,0.0,0.0,0.0,0.0,0.0,0.0,-0.2346,-0.2723,0.0,0.0,0.0,-0.4174,-0.4234,-0.4251,-0.4218,-0.4243,-0.4375,0.0,0.0,0.0,0.0,-0.6407,-0.6894,0.0,0.0,0.0,0.0,0.0,0.0,0.0,0.0,0.0,0.0,0.0,0.0,0.0,0.0,0.0,0.0,0.0,0.0,0.0,-0.9123,0.0,0.0,0.0,0.0,0.0,0.0,0.0,0.0,0.0,0.0,0.0,0.0,0.0,0.0,0.0,0.0,0.0,0.0,0.0,0.0,0.0,0.0,0.0,0.0,0.0,0.0,0.0,0.0,0.0,0.0,0.0,0.0,0.0,-1.0809,-1.1221,-1.127,-1.121,-1.1177,-1.1177,-1.1177,-1.1232,-1.1351,-1.1599,-1.1988,-1.2165,-1.2343,-1.252,-1.252,-1.1988,-1.1988,-1.2165,-1.1632,-1.1455,-1.1455,-1.1455,-1.1455,-1.1455,-1.1455,-1.1455,-1.1455,-1.1455,-1.1455,-1.1455,0.0,0.0,0.0,0.0,0.0,0.0,0.0,0.0,0.0,0.0,0.0,0.0,0.0,0.0,0.0,0.0,-0.2354,-0.2747,-0.3297,0.0,0.0,-0.4081,-0.4275,-0.4278,-0.4218,-0.4232,0.0,0.0,0.0,0.0,-0.5931,-0.6414,-0.694,0.0,-0.7837,0.0,0.0,0.0,0.0,0.0,0.0,0.0,0.0,0.0,0.0,0.0,0.0,0.0,0.0,0.0,0.0,0.0,0.0,0.0,0.0,0.0,0.0,0.0,0.0,0.0,0.0,0.0,0.0,0.0,0.0,0.0,0.0,0.0,0.0,0.0,0.0,0.0,0.0,0.0,0.0,0.0,0.0,0.0,0.0,0.0,0.0,0.0,0.0,0.0,0.0,0.0,-1.0672,-1.1052,-1.1232,-1.1118,-1.1058,-1.1058,-1.1085,-1.1156,-1.127,-1.1395,-1.1632,-1.1988,-1.1988,-1.1988,-1.1988,-1.1632,-1.1632,-1.1988,-1.1632,-1.1455,-1.1455,-1.1455,-1.1455,-1.1455,-1.1455,-1.1455,-1.1455,-1.1455,-1.1455,-1.1455,0.0,0.0,0.0,0.0,0.0,0.0,0.0,0.0,0.0,0.0,0.0,0.0,0.0,0.0,-0.1358,-0.1977,-0.2251,-0.2664,-0.3091,-0.3525,-0.3684,-0.3689,-0.4139,0.0,-0.4218,-0.4273,0.0,0.0,0.0,0.0,-0.5594,-0.6302,-0.6864,-0.7109,-0.746,-0.7566,-0.7711,0.0,0.0,0.0,0.0,0.0,0.0,0.0,0.0,0.0,0.0,0.0,0.0,0.0,0.0,0.0,0.0,0.0,0.0,0.0,0.0,0.0,0.0,0.0,0.0,0.0,0.0,0.0,0.0,0.0,0.0,0.0,0.0,0.0,0.0,0.0,0.0,0.0,0.0,0.0,0.0,0.0,0.0,0.0,0.0,0.0,0.0,0.0,0.0,0.0,-1.0304,-1.0594,-1.1112,-1.0998,-1.0927,-1.0927,-1.1041,-1.1156,-1.127,-1.1395,-1.1455,-1.1455,-1.1455,-1.1455,-1.1455,-1.1455,-1.1455,-1.1455,-1.1455,-1.1455,-1.1455,-1.1455,-1.1455,-1.1455,-1.1455,-1.1455,-1.1455,-1.1455,-1.1455,-1.1455,0.0,0.0,0.0,0.0,0.0,0.0,0.0,0.0,0.0,0.0,0.0,0.0,0.0,0.0,-0.1397,-0.2033,-0.2425,-0.2576,-0.2746,-0.3154,-0.3307,-0.3337,-0.3488,-0.361,-0.356,0.0,0.0,0.0,0.0,-0.5406,-0.56,-0.6497,-0.6921,-0.7125,-0.753,-0.7694,-0.7756,-0.8202,0.0,0.0,0.0,-0.8353,0.0,0.0,0.0,0.0,0.0,0.0,0.0,0.0,0.0,0.0,0.0,0.0,0.0,0.0,0.0,0.0,0.0,0.0,0.0,0.0,0.0,0.0,0.0,0.0,0.0,0.0,0.0,0.0,0.0,0.0,0.0,0.0,0.0,0.0,0.0,0.0,0.0,0.0,0.0,0.0,0.0,0.0,0.0,0.0,0.0,-1.0135,-1.0239,-1.0475,-1.0546,-1.0472,-1.0827,-1.1194,-1.1389,-1.1433,-1.1455,-1.1455,-1.1455,-1.1455,-1.1455,-1.1455,-1.1455,-1.1455,-1.1455,-1.1455,-1.1455,-1.1455,-1.1455,-1.1455,-1.1455,-1.1455,-1.1455,-1.1455,-1.1277,-1.0921,0.0,0.0,0.0,0.0,0.0,0.0,0.0,0.0,0.0,0.0,0.0,0.0,0.0,0.0,0.0,-0.2078,-0.2339,-0.2485,-0.252,-0.2789,-0.2933,-0.3094,-0.3094,-0.3216,-0.3187,0.0,0.0,0.0,0.0,0.0,0.0,0.0,-0.6793,-0.717,-0.7468,0.0,0.0,0.0,0.0,-0.7909,0.0,0.0,-0.7961,0.0,0.0,0.0,0.0,0.0,0.0,0.0,0.0,0.0,0.0,0.0,0.0,0.0,0.0,0.0,0.0,0.0,0.0,0.0,0.0,-0.7276,0.0,0.0,0.0,0.0,0.0,0.0,0.0,0.0,0.0,0.0,0.0,0.0,0.0,0.0,0.0,0.0,0.0,0.0,0.0,0.0,0.0,0.0,0.0,0.0,-0.9669,-0.9904,-1.0018,-1.0013,-1.0501,-1.1041,-1.1277,-1.1632,-1.1632,-1.1455,-1.1632,-1.1632,-1.1277,-1.1455,-1.1455,-1.1277,-1.1455,-1.1455,-1.1455,-1.1455,-1.1455,-1.1455,-1.1455,-1.1455,-1.1455,-1.1455,-1.1099,-1.0743,0.0,0.0,0.0,0.0,0.0,0.0,0.0,0.0,0.0,0.0,0.0,0.0,0.0,0.0,0.0,-0.211,-0.2113,-0.2125,-0.2155,-0.2562,-0.2697,-0.2696,-0.2963,-0.323,-0.3228,0.0,0.0,0.0,0.0,0.0,0.0,0.0,-0.663,0.0,-0.7264,-0.7268,-0.7272,0.0,-0.7268,-0.7268,0.0,-0.7712,-0.7849,0.0,0.0,0.0,-0.8775,-0.8663,0.0,0.0,0.0,0.0,0.0,0.0,0.0,0.0,0.0,0.0,0.0,0.0,0.0,0.0,0.0,0.0,-0.7369,0.0,0.0,0.0,0.0,0.0,0.0,0.0,0.0,0.0,0.0,0.0,0.0,0.0,0.0,0.0,0.0,0.0,0.0,0.0,0.0,0.0,-0.9021,-0.9153,-0.9569,-0.9469,-0.9502,-0.9707,-1.0234,-1.0513,-1.0738,-1.1632,-1.1988,-1.1455,-1.1988,-1.1632,-1.0743,-1.1277,-1.1099,-1.0743,-1.1277,-1.1455,-1.1455,-1.1455,-1.1455,-1.1455,-1.1455,-1.1455,-1.1455,-1.1455,-1.1099,-1.0565,0.0,0.0,0.0,0.0,0.0,0.0,0.0,0.0,0.0,0.0,0.0,0.0,0.0,0.0,0.0,0.0,-0.2207,-0.2211,-0.2219,-0.2221,-0.2349,-0.2325,-0.246,-0.2449,-0.2425,0.0,0.0,0.0,0.0,0.0,0.0,0.0,0.0,0.0,-0.7173,-0.739,-0.7452,-0.7452,0.0,0.0,-0.7506,-0.7469,0.0,0.0,0.0,0.0,0.0,-0.8387,0.0,0.0,-0.7243,-0.6617,0.0,0.0,0.0,0.0,0.0,0.0,-0.4189,0.0,0.0,0.0,0.0,0.0,0.0,0.0,0.0,0.0,0.0,0.0,0.0,0.0,0.0,0.0,0.0,0.0,0.0,0.0,0.0,0.0,0.0,0.0,0.0,0.0,0.0,0.0,-0.8452,-0.8402,-0.8548,-0.8857,-0.9233,-0.9707,-0.9961,-1.0244,-1.0743,-1.0921,-1.1277,-1.1455,-1.1277,-1.0921,-1.0743,-1.0565,-1.0387,-1.0209,-1.0387,-1.0565,-1.0921,-1.1277,-1.1455,-1.1455,-1.1455,-1.1277,-1.0921,-1.0921,-1.0387,-0.9674,0.0,0.0,0.0,0.0,0.0,0.0,0.0,0.0,0.0,0.0,0.0,0.0,0.0,0.0,0.0,0.0,-0.1544,-0.1824,-0.2245,-0.2245,-0.2237,-0.2219,-0.2207,-0.2192,-0.2174,-0.2566,0.0,0.0,0.0,0.0,0.0,0.0,0.0,0.0,0.0,0.0,0.0,0.0,0.0,0.0,-0.7444,0.0,0.0,-0.7329,-0.7621,0.0,0.0,0.0,-0.798,-0.7391,-0.6598,0.0,0.0,0.0,0.0,0.0,0.0,0.0,0.0,0.0,0.0,0.0,0.0,0.0,-0.5777,-0.6492,0.0,0.0,0.0,0.0,0.0,0.0,0.0,0.0,0.0,0.0,0.0,0.0,0.0,0.0,0.0,0.0,0.0,-0.6306,-0.7184,-0.7719,-0.7704,-0.7847,-0.8154,-0.8518,-0.8753,-0.9021,-0.9467,-0.9749,-1.003,-1.0565,-1.0743,-1.0921,-1.0743,-1.0565,-1.003,-1.003,-0.9852,-0.9674,-0.9852,-1.0209,-1.0387,-1.0743,-1.1099,-1.1455,-1.1455,-1.1099,-1.0743,-1.0743,-1.003,-0.9322,0.0,0.0,0.0,0.0,0.0,0.0,0.0,0.0,0.0,0.0,0.0,0.0,0.0,0.0,0.0,0.0,-0.0564,-0.1269,-0.1973,-0.1973,-0.2113,-0.211,-0.2086,-0.207,-0.2068,-0.2178,0.0,0.0,0.0,0.0,0.0,0.0,0.0,0.0,0.0,0.0,0.0,0.0,0.0,-0.7525,-0.7525,-0.7525,0.0,0.0,-0.7561,0.0,-0.7664,-0.759,-0.7564,-0.6877,-0.5777,0.0,0.0,0.0,0.0,0.0,-0.3275,0.0,0.0,0.0,0.0,0.0,0.0,0.0,-0.4561,-0.5829,-0.6378,0.0,0.0,0.0,0.0,0.0,0.0,0.0,0.0,0.0,0.0,0.0,0.0,0.0,0.0,0.0,-0.5379,-0.5428,-0.5778,-0.6563,-0.6785,-0.7134,-0.8076,-0.8162,-0.8252,-0.8334,-0.8782,-0.9229,-0.9317,-1.0209,-1.0387,-1.003,-1.0387,-1.003,-0.9322,-0.9674,-0.9674,-0.9322,-0.9674,-0.9852,-0.9852,-0.9852,-1.0565,-1.1455,-1.1277,-1.1099,-1.0565,-1.0565,-1.003,-0.9143,0.0,0.0,0.0,0.0,0.0,0.0,0.0,0.0,0.0,0.0,0.0,0.0,0.0,0.0,0.0,0.0,-0.0145,-0.029,-0.0435,-0.1014,-0.1442,-0.1426,-0.1422,-0.1413,-0.1258,-0.195,-0.2225,0.0,0.0,0.0,0.0,0.0,0.0,0.0,0.0,0.0,0.0,0.0,0.0,-0.7525,-0.7525,0.0,-0.7525,-0.7197,-0.7189,-0.764,-0.7374,-0.7141,-0.6758,0.0,-0.4915,-0.429,0.0,0.0,0.0,0.0,0.0,0.0,0.0,0.0,0.0,0.0,0.0,0.0,-0.4427,-0.4918,-0.5134,0.0,-0.4771,-0.4804,-0.5004,-0.5024,-0.5032,-0.5035,0.0,0.0,0.0,0.0,0.0,0.0,0.0,0.0,-0.5384,-0.5392,-0.5395,-0.572,-0.5729,-0.6401,-0.8072,-0.8223,-0.8313,-0.8334,-0.8493,-0.8943,-0.9322,-0.9496,-0.9674,-1.003,-0.9674,-0.9496,-0.9322,-0.8964,-0.8786,-0.8786,-0.8786,-0.9143,-0.9496,-0.9496,-1.003,-1.0743,-1.0387,-1.0209,-1.003,-0.9674,-0.9143,-0.8786,0.0,0.0,0.0,0.0,0.0,0.0,0.0,0.0,0.0,0.0,0.0,0.0,0.0,0.0,0.0,0.0,0.0,0.0,0.0,-0.0438,-0.0582,-0.0578,-0.0574,-0.0571,-0.0567,-0.0844,-0.1402,-0.2244,0.0,0.0,0.0,0.0,0.0,0.0,0.0,0.0,0.0,0.0,-0.7525,-0.7525,-0.7525,0.0,-0.7213,-0.6904,-0.706,-0.7045,-0.6965,-0.655,-0.6138,-0.5471,-0.4673,0.0,0.0,-0.2719,-0.2692,0.0,-0.2397,-0.2524,0.0,0.0,0.0,-0.2244,0.0,0.0,0.0,-0.3465,-0.365,-0.3969,-0.4438,-0.4763,-0.4796,0.0,-0.4845,-0.4845,-0.3499,-0.2459,-0.2506,-0.3365,-0.4245,-0.5286,-0.5322,-0.5352,-0.5382,-0.5384,-0.5384,-0.5384,-0.5382,-0.6221,-0.8076,-0.8069,-0.7988,-0.8334,-0.8513,-0.8786,-0.8964,-0.8964,-0.9143,-0.9322,-0.9143,-0.8964,-0.8964,-0.8786,-0.8607,-0.8607,-0.8607,-0.8786,-0.8964,-0.8964,-0.9322,-1.003,-1.003,-0.9674,-0.9313,-0.9317,-0.8782,-0.8246,0.0,0.0,0.0,0.0,0.0,0.0,0.0,0.0,0.0,0.0,0.0,0.0,0.0,0.0,0.0,0.0,0.0,0.0,0.0,0.0,0.0,0.0,0.0,0.0,0.0,0.0,-0.0566,-0.1839,0.0,0.0,0.0,0.0,0.0,0.0,0.0,0.0,0.0,0.0,0.0,-0.7525,0.0,-0.7373,-0.706,-0.6904,-0.6747,-0.6577,-0.6505,-0.6091,-0.5537,-0.536,0.0,-0.322,-0.2481,-0.2318,0.0,0.0,0.0,0.0,0.0,0.0,0.0,0.0,0.0,-0.2296,0.0,0.0,0.0,-0.3052,0.0,0.0,0.0,0.0,0.0,0.0,0.0,0.0,0.0,-0.2658,0.0,-0.4752,-0.5113,-0.5479,-0.5363,-0.5376,-0.5384,-0.5384,-0.5382,-0.6221,-0.7913,-0.773,-0.7818,-0.8334,-0.8513,-0.8607,-0.8607,-0.8607,-0.8607,-0.8607,-0.8607,-0.8607,-0.8607,-0.8607,-0.8607,-0.8607,-0.8607,-0.8615,-0.8632,-0.8632,-0.8823,-0.9191,-0.9514,-0.9313,-0.8599,-0.896,-0.8603,-0.7889,0.0,0.0,0.0,0.0,0.0,0.0,0.0,0.0,0.0,0.0,0.0,0.0,0.0,0.0,0.0,0.0,0.0,0.0,0.0,0.0,0.0,0.0,0.0,0.0,0.0,0.0,-0.0145,-0.0291,-0.1163,0.0,0.0,0.0,0.0,0.0,-0.5584,0.0,0.0,0.0,-0.706,0.0,-0.7533,-0.7533,0.0,-0.6587,-0.6431,-0.642,-0.6347,-0.5848,-0.4894,0.0,-0.3269,-0.3109,0.0,-0.2331,0.0,0.0,0.0,0.0,0.0,0.0,0.0,0.0,-0.2327,0.0,0.0,0.0,-0.2324,-0.2298,0.0,0.0,0.0,0.0,0.0,0.0,0.0,0.0,-0.2384,-0.3052,-0.3439,-0.2879,-0.4411,-0.5462,-0.5468,-0.5354,-0.5384,-0.5384,-0.5382,-0.5885,-0.7234,-0.7384,-0.7818,-0.8334,-0.8513,-0.8607,-0.8607,-0.8607,-0.8607,-0.8607,-0.8607,-0.8607,-0.8607,-0.8607,-0.8607,-0.8607,-0.8607,-0.8648,-0.8717,-0.8717,-0.8766,-0.9011,-0.8848,-0.8782,-0.8599,-0.8607,-0.8425,-0.7889,0.0,0.0,0.0,0.0,0.0,0.0,0.0,0.0,0.0,0.0,0.0,0.0,0.0,0.0,0.0,0.0,0.0,0.0,0.0,0.0,0.0,0.0,0.0,0.0,0.0,0.0,0.0,-0.0,-0.0441,-0.118,0.0,0.0,0.0,0.0,-0.5142,0.0,-0.5805,0.0,0.0,0.0,0.0,0.0,0.0,-0.5805,-0.5962,-0.5486,-0.5618,-0.4962,-0.4155,0.0,-0.2707,0.0,0.0,0.0,0.0,0.0,0.0,0.0,0.0,0.0,0.0,0.0,0.0,0.0,0.0,0.0,-0.233,0.0,0.0,0.0,0.0,0.0,0.0,0.0,-0.276,0.0,0.0,0.0,-0.3057,0.0,0.0,0.0,-0.5454,-0.5482,-0.5346,-0.5382,-0.5717,-0.6221,-0.7234,-0.7384,-0.7818,-0.8334,-0.8513,-0.8607,-0.8607,-0.8607,-0.8429,-0.8246,-0.8246,-0.8067,-0.7713,-0.7713,-0.7713,-0.7713,-0.7761,-0.7801,-0.7834,-0.7882,-0.7922,-0.7948,-0.7878,-0.7823,-0.7772,-0.7728,-0.7531,-0.717,0.0,0.0,0.0,0.0,0.0,0.0,0.0,0.0,0.0,0.0,0.0,0.0,0.2512,0.2495,0.0,0.0,0.0,0.1833,0.0,0.0,0.0,0.0,0.0,0.0,0.0,0.0299,0.0,0.0,0.0,-0.0598,0.0,0.0,0.0,0.0,0.0,-0.5022,-0.5022,0.0,0.0,-0.6434,-0.5176,-0.3762,-0.2822,-0.5022,-0.5495,-0.5019,-0.4709,-0.4213,-0.3562,-0.2777,-0.2438,0.0,-0.2383,0.0,0.0,0.0,0.0,0.0,-0.1606,0.0,0.0,0.0,0.0,0.0,0.0,0.0,0.0,0.0,0.0,0.0,0.0,0.0,0.0,0.0,0.0,-0.2331,0.0,0.0,0.0,0.0,0.0,0.0,0.0,-0.5267,-0.5286,-0.533,-0.5849,-0.6526,-0.7034,-0.7373,-0.7818,-0.8334,-0.8513,-0.8607,-0.8607,-0.8429,-0.8246,-0.7885,-0.771,-0.7531,-0.7173,-0.7173,-0.7173,-0.718,-0.7255,-0.7299,-0.7323,-0.7398,-0.7442,-0.7459,-0.7253,-0.7214,-0.7154,-0.7241,-0.6832,-0.6633,0.0,-0.2881,0.0,0.0,0.0,0.0,0.0,0.0,0.0,0.0,0.0,0.0,0.0,0.0,0.0,0.0,0.0,0.2499,0.2469,0.0,0.0,0.0,0.0,0.0,0.0,0.0,0.0,0.0,0.0,-0.0,0.0,0.0,0.0,0.0,0.0,-0.5025,-0.5022,-0.5022,-0.4709,-0.3925,-0.3925,-0.3295,-0.2668,0.0,-0.5025,-0.4865,-0.4081,0.0,0.0,-0.2633,-0.2467,0.0,0.0,0.0,0.0,0.0,0.0,0.0,0.0,0.0,0.0,-0.0,0.0,0.0,0.0,0.0,-0.1455,0.0,0.0,0.0,0.0,0.0,0.0,0.0,0.0,0.0,0.0,0.0,0.0,0.0,0.0,0.0,0.0,-0.5042,-0.5042,-0.5045,-0.559,-0.612,-0.6618,-0.734,-0.7818,-0.8334,-0.8513,-0.8607,-0.8607,-0.8067,-0.7885,-0.7885,-0.7352,-0.7173,-0.7173,-0.7173,-0.7173,-0.718,-0.7255,-0.7327,-0.7395,-0.7473,-0.7548,-0.7606,-0.697,-0.6755,-0.6926,-0.7154,-0.6874,-0.6633,0.0,0.0,0.0,0.0,0.0,0.0,0.0,0.1947,0.0,0.0,0.0,0.0,0.0,0.0,0.2564,0.0,0.0,0.2532,0.2502,0.1405,0.0,0.0,0.0,0.2009,0.0,0.0,0.0,0.0,0.0,0.0,-0.0,-0.0621,-0.1405,0.0,0.0,-0.3925,0.0,0.0,0.0,0.0,0.0,-0.3214,-0.3531,0.0,0.0,-0.3925,-0.4081,-0.3768,0.0,-0.2969,-0.2796,-0.2465,-0.2444,-0.241,-0.2079,-0.0444,-0.0441,0.0,0.0,0.0,0.146,0.0876,0.0,0.0,0.0,0.0,0.0,0.0,0.0,0.0,0.0,0.0,0.0,0.0,0.0,0.0,0.0,0.0,0.0,0.0,0.0,0.0,0.0,0.0,-0.5,-0.5526,-0.6079,-0.6612,-0.7106,-0.7677,-0.8161,-0.8334,-0.8513,-0.8429,-0.8067,-0.8067,-0.7527,-0.6991,-0.6812,-0.6633,-0.6279,-0.6279,-0.6302,-0.6347,-0.6416,-0.6481,-0.6547,-0.6609,-0.6648,-0.6666,-0.6456,-0.6232,-0.619,-0.6291,-0.6244,-0.6044,-0.1313,0.0,0.0,0.0,0.0,0.0,0.0,0.0,0.0,0.0,0.237,0.0,0.2574,0.0,0.2594,0.0,0.2575,0.2562,0.2533,0.2056,0.0,0.174,0.174,0.0,0.0,0.0,0.0,0.0,0.0,0.0,0.0,0.0,-0.0942,0.0,0.0,0.0,0.0,0.0,-0.3676,0.0,0.0,-0.2928,0.0,0.0,-0.3965,-0.3634,0.0,-0.3465,-0.3139,-0.2983,-0.2656,-0.2484,-0.2473,-0.2442,-0.2108,-0.1049,-0.0,0.1029,0.2058,0.2352,0.0,0.1763,0.1622,0.0,0.1618,0.0,0.0,0.0,0.0,0.0,0.0,0.0,0.0,0.0,0.0,0.0,0.0,-0.2275,0.0,0.0,0.0,0.0,0.0,0.0,-0.4752,-0.5425,-0.6152,-0.6707,0.0,-0.78,-0.8301,-0.8334,-0.8333,-0.8246,-0.7885,-0.7527,-0.717,-0.6454,-0.6276,-0.6097,-0.5741,-0.5741,-0.5774,-0.5834,-0.5897,-0.5957,-0.6016,-0.6074,-0.6098,-0.6098,-0.6098,-0.6076,-0.6036,-0.5976,-0.5943,-0.5927,0.0,0.0,0.0,0.0,-0.0876,0.0,0.0,0.0,0.2295,0.0,0.2541,0.2732,0.2764,0.2768,0.2768,0.2766,0.2604,0.0,0.2563,0.2562,0.0,0.0,0.2562,0.2562,0.256,0.0,0.0,0.0,0.0,0.0,0.0,0.0,-0.0942,-0.2514,-0.2514,0.0,-0.3303,-0.3342,-0.3362,-0.3208,-0.2756,-0.2607,-0.2607,-0.3095,-0.3397,-0.3681,-0.3358,-0.3173,-0.2985,-0.2671,-0.2514,-0.251,-0.248,-0.247,-0.2463,-0.2283,-0.0,0.2234,0.2234,0.2382,0.238,0.238,0.0,0.0,0.0,0.0,0.1927,0.0,0.0,0.0,0.0,0.0,0.0,0.0,0.0,0.0,0.0,0.0,0.0,0.0,0.0,0.0,0.0,-0.3977,-0.447,-0.4935,-0.5827,-0.6418,0.0,-0.7547,-0.8236,-0.8157,-0.7972,-0.7881,-0.7885,-0.6991,-0.6454,-0.6454,-0.5918,-0.5741,-0.5744,-0.5744,-0.5779,-0.5845,-0.5902,-0.5962,-0.6022,-0.6076,-0.6098,-0.6098,-0.6098,-0.6098,-0.609,-0.6038,-0.5981,-0.5755,-0.1188,-0.0147,0.1171,0.0,0.1479,0.1782,0.0,0.0,0.0,0.0,0.4538,0.4108,0.28,0.2656,0.266,0.2638,0.2635,0.0,0.0,0.0,0.0,0.259,0.259,0.2581,0.256,0.256,0.0,0.22,0.0,0.0,0.0,0.0,-0.0942,-0.2514,0.0,0.0,-0.2865,-0.274,-0.2781,-0.2824,-0.2667,-0.2669,0.0,0.0,-0.2816,-0.2944,-0.3056,-0.3032,-0.2703,-0.2522,-0.2514,-0.2512,-0.2506,-0.2487,-0.2313,-0.0922,0.0913,0.2413,0.2413,0.2413,0.2412,0.2412,0.2417,0.2421,0.0,0.0,0.0,0.0,0.0,0.0,0.0,0.0,0.0,0.0,0.0,0.0,0.0,0.0,0.0,0.0,0.0,0.0,-0.3131,-0.3625,-0.4121,-0.4929,-0.5471,-0.6046,0.0,0.0,-0.7156,-0.7288,-0.7216,-0.7115,-0.6812,-0.6633,-0.6276,-0.5918,-0.5741,-0.5766,-0.5809,-0.5809,-0.5867,-0.5967,-0.5984,-0.6022,-0.6076,-0.609,-0.5908,-0.553,-0.553,-0.5337,-0.5144,-0.5892,-0.5879,-0.549,-0.0301,0.0,0.0,0.2395,0.0,0.0,0.244,0.0,0.0,0.4984,0.524,0.0,0.3997,0.3186,0.2686,0.2668,0.2667,0.0,0.0,0.0,0.0,0.2622,0.2622,0.2615,0.2598,0.2585,0.0,0.2534,0.0,0.0,0.0,0.0,-0.0471,-0.1414,0.0,-0.2066,0.0,-0.1954,-0.2319,-0.2692,-0.2692,0.0,0.0,-0.2692,-0.2682,-0.2658,-0.2925,-0.273,-0.2555,-0.2525,-0.2514,-0.2514,-0.2514,-0.2033,-0.1089,0.0622,0.1542,0.1985,0.229,0.2596,0.275,0.275,0.2759,0.2767,0.2753,0.2596,0.2431,0.0,0.0,0.0,0.0,0.0,0.0,0.0,0.0,0.0,0.0,0.0,0.0,0.0,0.0,0.0,-0.2648,-0.3131,-0.3773,-0.4583,-0.5103,0.0,0.0,0.0,-0.6731,-0.6846,-0.6815,-0.6728,-0.6412,-0.6261,-0.5918,-0.5741,-0.5769,-0.5798,-0.5831,-0.5858,-0.5924,-0.6014,-0.6014,-0.6046,-0.6098,-0.5908,-0.553,-0.5339,-0.5149,-0.4766,-0.4575,-0.5147,-0.5337,-0.4956,0.0,0.0,0.0,0.0,0.0,0.0,0.0,0.3916,0.0,0.5364,0.0,0.533,0.539,0.3709,0.2699,0.2703,0.0,0.2692,0.2667,0.2661,0.2658,0.2658,0.2656,0.2652,0.2647,0.2622,0.0,0.0,0.0,0.0,0.0,0.0,0.0,-0.0,0.0,0.0,0.0,-0.1316,-0.1668,-0.2356,-0.2524,-0.2524,-0.2524,-0.2692,-0.2692,-0.2686,-0.2631,-0.2592,-0.256,-0.2526,-0.2514,-0.2514,-0.22,-0.1099,0.0314,0.2043,0.2027,0.1547,0.232,0.2783,0.3094,0.3094,0.3116,0.3132,0.3101,0.2783,0.2459,0.2402,0.2089,0.1633,0.0,0.0,0.0,0.0,0.0,0.0,0.0,0.0,0.0,0.0,0.0,0.0,-0.233,-0.2652,-0.328,-0.4075,0.0,0.0,0.0,0.0,-0.6473,-0.6556,-0.6416,-0.635,-0.6359,-0.5889,-0.5744,-0.5752,-0.5807,-0.5839,-0.5858,-0.591,-0.5967,-0.6025,-0.6025,-0.5863,-0.5908,-0.5339,-0.5149,-0.5149,-0.4575,-0.4385,-0.4385,-0.4385,-0.4385,-0.4385,0.0,0.0,0.0,0.0,0.0,0.2511,0.2537,0.385,0.5034,0.5434,0.533,0.5392,0.5452,0.375,0.2737,0.2765,0.2767,0.0,0.0,0.0,0.0,0.2721,0.2698,0.2673,0.2647,0.2642,0.2613,0.0,0.0,0.0,0.0,0.0,0.0,-0.0,0.0,0.0,-0.0329,-0.1001,0.0,-0.0505,-0.1178,-0.1514,-0.1682,-0.2356,-0.2692,-0.2688,-0.2654,-0.2623,-0.2589,-0.2533,-0.2514,-0.22,-0.0942,-0.0314,0.0314,0.2043,0.2353,0.2349,0.2506,0.2819,0.313,0.313,0.3135,0.3137,0.3132,0.2819,0.2496,0.2461,0.2433,0.2256,0.2079,0.0,0.0,0.0,0.0,0.0,0.0,0.0,0.0,0.0,0.0,0.0,0.0,0.0,0.0,0.0,0.0,0.0,0.0,0.0,-0.5434,0.0,-0.5682,0.0,0.0,0.0,-0.5766,-0.5815,-0.5826,-0.5883,-0.5981,-0.5992,-0.603,-0.6082,-0.5705,-0.552,-0.5339,-0.4956,-0.4387,-0.4006,-0.3624,-0.3434,-0.3434,-0.3434,-0.3434,-0.3434,0.0,0.0,0.0,0.0,0.0,0.0,0.0,0.4739,0.0,0.5454,0.5373,0.5442,0.5472,0.378,0.2765,0.2782,0.2784,0.2784,0.2784,0.277,0.2754,0.2739,0.2724,0.0,0.2671,0.2656,0.2632,0.2605,0.0,0.0,0.0,0.0,0.0,0.0,0.0,0.0,0.0,0.0,0.0,-0.0,-0.0505,-0.0673,-0.0673,-0.1178,-0.1515,-0.2016,-0.2495,-0.2631,-0.2598,-0.2553,-0.1895,-0.1099,-0.0314,0.0,0.0314,0.1571,0.22,0.2514,0.2514,0.2983,0.3454,0.3454,0.3454,0.3454,0.3454,0.2983,0.2506,0.2476,0.2444,0.2409,0.2363,0.2308,0.0,0.0,0.0,0.0,0.0,0.0,0.0,0.0,0.0,0.0,0.0,0.0,0.0,0.0,0.0,0.0,0.0,0.0,-0.5066,0.0,0.0,0.0,-0.5255,0.0,-0.5231,-0.5106,-0.5132,-0.5184,-0.5261,-0.5289,-0.5316,-0.5337,-0.4956,-0.4956,-0.4956,-0.4387,-0.3815,-0.3434,-0.3243,-0.3052,-0.3052,-0.3052,-0.3052,-0.3052,0.0,0.2519,0.0,0.0,0.2566,0.0,0.5113,0.5811,0.5826,0.5496,0.5414,0.5485,0.551,0.4338,0.3317,0.2977,0.2977,0.2803,0.2803,0.2971,0.2952,0.2748,0.2913,0.2894,0.2862,0.2835,0.2819,0.0,0.0,0.0,0.0,0.0,0.0,0.0,0.0,0.0,0.0,0.0,0.0169,0.0,0.0,0.0,0.0,0.0,-0.0506,-0.1345,-0.2335,-0.2641,-0.2611,-0.2096,-0.1113,0.0,0.0,0.0,0.0157,0.1099,0.1886,0.2514,0.2671,0.314,0.3768,0.3925,0.3925,0.3925,0.3768,0.314,0.2664,0.2484,0.245,0.2406,0.2352,0.2315,0.0,0.0,0.0,0.0,0.0,0.0,0.0,0.0,0.0,0.0,0.0,0.0,0.0,0.0,0.0,0.0,-0.4146,0.0,0.0,0.0,0.0,-0.5041,-0.4694,0.0,-0.4706,-0.4391,-0.4436,-0.4479,-0.4522,-0.4559,-0.4575,-0.4575,-0.4385,-0.4385,-0.4194,-0.3815,-0.3434,-0.3052,-0.3052,-0.3052,-0.3052,-0.3052,-0.3052,-0.3052,0.0,0.0,0.0,0.0,0.0,0.0,0.5121,0.6727,0.7329,0.5623,0.5461,0.5512,0.5627,0.547,0.4783,0.3039,0.2864,0.2866,0.2866,0.3193,0.3161,0.278,0.361,0.3743,0.3367,0.3696,0.3675,0.0,0.0,0.0,0.0,0.0,0.0,0.0,0.0,0.0,0.0,0.1191,0.0854,0.0,0.0,0.0,0.0,0.0,-0.051,-0.1347,-0.2356,-0.2672,-0.2477,-0.0816,-0.016,0.0,0.0,0.0,0.0157,0.1099,0.1886,0.2514,0.2983,0.3454,0.3925,0.4241,0.4397,0.4241,0.3925,0.3454,0.2982,0.251,0.2463,0.2413,0.238,0.2328,0.229,0.0,0.0,0.0,0.0,0.0,0.0,0.0,0.0,0.0,0.0,-0.146,0.0,0.0,-0.2809,0.0,0.0,0.0,0.0,-0.4065,-0.4248,-0.4344,-0.4173,-0.4303,-0.4393,-0.4438,-0.4481,-0.4524,-0.4569,-0.4573,-0.4575,-0.4575,-0.4006,-0.3624,-0.3243,-0.3243,-0.3052,-0.3052,-0.3052,-0.3052,-0.3052,-0.3052,-0.3052,-0.3052,0.0,0.0,0.0,0.0,0.0,0.0,0.0,0.765,0.7902,0.7306,0.6274,0.5597,0.5649,0.462,0.3752,0.3049,0.2872,0.3053,0.3411,0.3554,0.3515,0.3653,0.3956,0.3913,0.3701,0.3868,0.386,0.0,0.0,0.0,0.0,0.0,0.0,0.0,0.0,0.2157,0.2189,0.2213,0.2053,0.1713,0.1039,0.0868,0.0864,0.0858,0.0512,0.017,-0.0169,-0.0668,-0.0992,-0.0163,0.0,0.0,0.0,0.0,0.0157,0.1099,0.1886,0.2514,0.2983,0.3454,0.3925,0.4241,0.4397,0.4241,0.3925,0.3454,0.2983,0.2514,0.248,0.2436,0.2387,0.2358,0.2337,0.0,0.0,0.0,0.0,0.0,0.0,0.0,0.0,0.0,0.0,0.0,0.0,0.0,0.0,0.0,0.0,0.0,0.0,-0.3903,0.0,-0.4011,-0.3861,-0.396,-0.3861,-0.355,-0.3563,-0.3589,-0.3623,-0.3623,-0.3623,-0.3623,-0.3434,-0.3243,-0.3052,-0.3052,-0.3052,-0.3052,-0.3052,-0.3052,-0.3052,-0.3052,-0.3052,-0.3052,0.455,0.0,0.2456,0.0,0.4477,0.6693,0.8017,0.8232,0.8301,0.8628,0.7434,0.6384,0.5676,0.4285,0.323,0.323,0.3052,0.3053,0.359,0.3554,0.3868,0.4001,0.4302,0.0,0.4206,0.4372,0.4372,0.4204,0.3671,0.0,0.0,0.0,0.0,0.0,0.2649,0.2665,0.2695,0.2735,0.2751,0.2755,0.2095,0.1927,0.1921,0.1732,0.172,0.1709,0.1696,0.1343,0.083,0.0493,0.0325,0.0321,0.0158,0.0314,0.0785,0.1256,0.1886,0.2671,0.314,0.3611,0.3929,0.4416,0.4576,0.4424,0.3963,0.3638,0.3154,0.2672,0.2491,0.2454,0.2401,0.2384,0.2368,0.2338,0.0,0.0,0.0,0.0,0.0,0.0,0.0,0.0882,0.0148,0.0,0.0,0.0,0.0,0.0,0.0,0.0,0.0,0.0,0.0,0.0,-0.3372,-0.3443,-0.3325,-0.3006,-0.3016,-0.3031,-0.3052,-0.3052,-0.3052,-0.3052,-0.3052,-0.3052,-0.3052,-0.3052,-0.3052,-0.3052,-0.3052,-0.3052,-0.3052,-0.3052,-0.3052,-0.3052,0.5039,0.3772,0.2478,0.2478,0.5507,0.8109,0.8539,0.8624,0.8544,0.8636,0.855,0.7885,0.5912,0.4843,0.4128,0.3769,0.3231,0.2874,0.2874,0.3734,0.4044,0.0,0.0,0.5274,0.471,0.5216,0.5216,0.471,0.0,0.0,0.3365,0.0,0.2646,0.2647,0.2647,0.2664,0.2697,0.2757,0.2782,0.2788,0.2848,0.2855,0.2827,0.2827,0.2791,0.2737,0.2737,0.2717,0.2519,0.1662,0.1314,0.1135,0.0317,0.1099,0.2357,0.1571,0.1886,0.2671,0.3611,0.3768,0.3935,0.4936,0.5112,0.4806,0.4055,0.3868,0.3664,0.2678,0.2491,0.2459,0.2429,0.2398,0.2368,0.2338,0.0,0.0,0.0,0.0,0.0,0.0,0.1635,0.0896,0.0151,0.0,0.0,0.0,0.0,0.0,0.0,0.0,0.0,-0.2643,-0.2735,0.0,-0.2872,-0.2931,-0.2976,-0.3007,-0.3037,-0.3052,-0.3052,-0.3052,-0.3052,-0.3052,-0.3052,-0.3052,-0.3052,-0.3052,-0.3052,-0.3052,-0.3052,-0.3052,-0.3052,-0.3052,-0.3052,-0.3052,0.5327,0.4838,0.4848,0.6022,0.7383,0.8125,0.8444,0.8494,0.8565,0.8546,0.823,0.7527,0.6454,0.5739,0.5025,0.0,0.359,0.359,0.0,0.406,0.4361,0.4867,0.5296,0.5403,0.5216,0.5384,0.5384,0.5216,0.0,0.0,0.0,0.2683,0.2846,0.3181,0.3181,0.3187,0.3202,0.3275,0.3132,0.2788,0.2849,0.2868,0.2857,0.2837,0.2804,0.2766,0.2746,0.2718,0.2688,0.2326,0.2312,0.2136,0.1941,0.1751,0.1728,0.2043,0.2357,0.2677,0.3648,0.3815,0.4143,0.4997,0.5175,0.5016,0.4548,0.3868,0.3193,0.2706,0.2521,0.2491,0.2461,0.2429,0.2399,0.2369,0.2659,0.0,0.0,0.0,0.0,0.0,0.2258,0.1507,0.0,0.0,0.0,0.0,0.0,0.0,0.0,0.0,0.0,0.0,-0.2736,0.0,-0.2904,-0.2943,-0.2988,-0.3037,-0.3048,-0.3052,-0.3052,-0.3052,-0.3052,-0.3052,-0.3052,-0.3052,-0.3052,-0.3052,-0.3052,-0.3052,-0.3052,-0.3052,-0.3052,-0.3052,-0.3052,-0.3052,0.5384,0.5382,0.6221,0.8588,0.8751,0.864,0.8999,0.8852,0.8748,0.8939,0.8425,0.771,0.6994,0.6458,0.0,0.4666,0.4128,0.3949,0.4307,0.4399,0.4694,0.5214,0.5447,0.5384,0.5384,0.5384,0.0,0.5384,0.4542,0.3532,0.2692,0.2861,0.3197,0.3367,0.3533,0.3701,0.3539,0.3619,0.3305,0.3138,0.3027,0.2874,0.2871,0.284,0.281,0.278,0.2748,0.2718,0.269,0.2671,0.2657,0.2646,0.2627,0.2263,0.191,0.2389,0.2707,0.303,0.3693,0.4023,0.4356,0.5058,0.5237,0.5074,0.4744,0.4069,0.3392,0.2883,0.2862,0.2675,0.2477,0.2454,0.2431,0.2701,0.2844,0.2994,0.2842,0.0,0.0,0.0,0.0,0.0,0.0,0.0612,0.0306,0.0,0.0,0.0,0.0,0.0,0.0,-0.2178,-0.2242,-0.2311,-0.2202,-0.2409,-0.2441,-0.2479,-0.2872,-0.3069,-0.307,-0.3081,-0.3086,-0.3085,-0.3074,-0.3069,-0.3069,-0.3056,-0.3052,-0.3052,-0.3052,-0.3052,-0.3052,-0.3052,-0.3052,-0.3052,0.5384,0.5382,0.6556,0.0,0.9938,0.0,1.0209,0.9553,0.91,0.9295,0.8786,0.825,0.7352,0.7173,0.6637,0.5201,0.0,0.0,0.0,0.4575,0.4867,0.4867,0.5282,0.539,0.539,0.5395,0.5395,0.539,0.4542,0.37,0.2861,0.3197,0.3533,0.3535,0.3868,0.4036,0.4042,0.3791,0.3653,0.3486,0.3027,0.2872,0.2867,0.284,0.2808,0.2776,0.2748,0.2718,0.2692,0.2692,0.2673,0.265,0.265,0.2631,0.2608,0.2605,0.2929,0.3415,0.3909,0.4232,0.4732,0.5119,0.53,0.5134,0.4801,0.4303,0.3948,0.3379,0.32,0.3016,0.264,0.2472,0.2613,0.304,0.3186,0.3336,0.3637,0.0,0.0,0.0,0.0,0.0,0.0,0.1868,0.1088,0.0,0.0,0.0,0.0,0.0,-0.0164,-0.1196,-0.1224,-0.1257,-0.1296,-0.1309,-0.1322,-0.1336,-0.2506,-0.3099,-0.3101,-0.313,-0.3142,-0.3141,-0.3111,-0.3097,-0.3095,-0.3065,-0.3052,-0.3052,-0.3052,-0.3052,-0.3052,-0.3052,-0.3052,-0.3052,0.0,0.0,0.605,0.8403,0.9651,1.0264,0.9692,0.9614,0.936,0.8765,0.8603,0.825,0.7352,0.7173,0.6815,0.5559,0.5022,0.4843,0.4843,0.4751,0.5041,0.5388,0.5491,0.5452,0.5452,0.5496,0.5325,0.4942,0.4729,0.4204,0.37,0.3868,0.4036,0.4374,0.4542,0.4542,0.4549,0.448,0.4346,0.4007,0.3559,0.3394,0.3369,0.3008,0.2796,0.2747,0.274,0.2718,0.2692,0.2692,0.2687,0.2682,0.2682,0.2676,0.2662,0.3106,0.3253,0.3422,0.4274,0.4612,0.4789,0.5179,0.5363,0.5195,0.4858,0.466,0.4459,0.3944,0.3561,0.3191,0.3014,0.2811,0.262,0.3076,0.3379,0.3531,0.3684,0.3715,0.343,0.0,0.2816,0.2515,0.2547,0.2384,0.2232,0.0,0.0,0.0,0.0,0.2318,0.1342,-0.0171,-0.0352,-0.0362,-0.037,-0.0374,-0.0379,-0.0386,-0.2127,-0.311,-0.3133,-0.314,-0.3142,-0.3141,-0.3111,-0.3097,-0.3095,-0.3065,-0.3052,-0.3052,-0.3052,-0.3052,-0.3052,-0.3052,-0.3052,-0.3052,0.5379,0.605,0.6888,0.7889,0.9497,1.0635,1.0219,1.0334,1.0097,0.9121,0.8782,0.825,0.7352,0.7173,0.6815,0.5741,0.538,0.538,0.538,0.5301,0.5428,0.5602,0.5545,0.5515,0.5515,0.5545,0.5372,0.4824,0.4772,0.4576,0.4066,0.4214,0.4553,0.4746,0.489,0.5061,0.5092,0.4834,0.4694,0.4353,0.4071,0.3906,0.3705,0.3322,0.3112,0.3249,0.3063,0.3213,0.3197,0.3029,0.3029,0.3029,0.2692,0.2692,0.2853,0.3481,0.3634,0.3803,0.4493,0.4833,0.5007,0.5376,0.5384,0.5384,0.5046,0.5023,0.4826,0.4473,0.4095,0.3723,0.3362,0.3006,0.2974,0.3426,0.3578,0.3886,0.4197,0.4064,0.3776,0.348,0.2851,0.2547,0.2577,0.2579,0.2586,0.2604,0.2116,0.0,0.2668,0.2698,0.2392,0.1389,0.0535,0.0,0.0,0.0,0.0,-0.0,-0.1166,-0.1958,-0.2372,-0.2384,-0.2388,-0.2387,-0.2364,-0.2348,-0.2336,-0.2314,-0.2298,-0.2288,-0.2288,-0.2288,-0.2288,-0.2288,-0.267,-0.3052,0.5882,0.7059,0.8068,0.8052,0.9507,1.0827,1.109,1.1226,1.0822,0.9655,0.896,0.8429,0.7352,0.7173,0.6815,0.592,0.5741,0.5741,0.5741,0.5684,0.5651,0.5651,0.56,0.5572,0.5572,0.5572,0.5401,0.5053,0.4999,0.48,0.4284,0.4753,0.4927,0.4969,0.5256,0.5428,0.548,0.5011,0.4858,0.4862,0.4387,0.4226,0.4211,0.3791,0.376,0.4089,0.3715,0.3701,0.3868,0.3533,0.3367,0.3367,0.2861,0.2692,0.2861,0.37,0.4036,0.4036,0.471,0.5048,0.5384,0.5384,0.5384,0.5384,0.5384,0.5384,0.5368,0.4819,0.4801,0.4438,0.3548,0.3363,0.3505,0.3784,0.3931,0.4081,0.4865,0.0,0.395,0.3831,0.3203,0.2739,0.2605,0.2608,0.2611,0.2617,0.262,0.2645,0.2865,0.2907,0.2958,0.3019,0.1448,0.0369,0.0188,0.019,0.0192,0.0194,0.0,-0.0395,-0.1198,-0.1409,-0.1414,-0.1414,-0.14,-0.1388,-0.1376,-0.1361,-0.1349,-0.134,-0.1339,-0.1339,-0.1341,-0.1341,-0.1916,-0.2682,0.7737,0.7905,0.8068,0.8052,0.9564,1.0918,1.1279,1.1472,1.0728,0.8943,0.9134,0.8964,0.7889,0.7352,0.6994,0.6454,0.592,0.5741,0.5741,0.5684,0.5651,0.5651,0.564,0.5635,0.5635,0.5635,0.5635,0.5638,0.5575,0.5372,0.5372,0.5364,0.5537,0.5542,0.5485,0.5466,0.5477,0.5485,0.5317,0.5322,0.486,0.468,0.4641,0.4109,0.4081,0.4046,0.387,0.3868,0.3868,0.3533,0.3367,0.3367,0.2861,0.2692,0.2861,0.37,0.4036,0.4204,0.5046,0.5384,0.5384,0.5384,0.5384,0.5384,0.5384,0.5384,0.5382,0.5373,0.4995,0.4626,0.4445,0.4048,0.3995,0.4307,0.4268,0.4397,0.4865,0.0,0.4307,0.3835,0.3387,0.3097,0.2637,0.2641,0.265,0.2677,0.2702,0.2891,0.3413,0.3508,0.3404,0.3446,0.2936,0.2051,0.1332,0.1334,0.1348,0.1371,0.0392,-0.0,-0.0202,-0.0202,-0.0202,-0.0202,-0.02,-0.0199,-0.0198,-0.0195,-0.0194,-0.0195,-0.0194,-0.0194,-0.0195,-0.0195,-0.0391,-0.039,0.8068,0.8068,0.8076,0.8113,0.9782,1.1128,1.1535,1.1527,1.0926,0.9308,0.9496,0.9143,0.8063,0.7531,0.6994,0.6454,0.6276,0.6097,0.6097,0.6071,0.6053,0.6053,0.6408,0.6412,0.6053,0.5875,0.5698,0.5698,0.5638,0.5608,0.5608,0.5575,0.5578,0.5605,0.5856,0.5662,0.5518,0.583,0.5645,0.5477,0.5332,0.5156,0.5127,0.4588,0.4562,0.471,0.4542,0.4542,0.471,0.4038,0.3701,0.3533,0.2861,0.2861,0.3197,0.3868,0.4372,0.4878,0.5216,0.5384,0.5384,0.5384,0.5384,0.5384,0.5384,0.5384,0.5384,0.5384,0.5195,0.4997,0.4801,0.4427,0.4388,0.4521,0.4495,0.0,0.5117,0.4821,0.4526,0.423,0.36,0.3306,0.3029,0.2865,0.2709,0.2739,0.2927,0.3289,0.3481,0.3906,0.3977,0.4043,0.336,0.2835,0.2288,0.2301,0.2324,0.2357,0.1974,0.1395,0.0808,0.0202,0.0,0.0,0.0,0.0,0.0,0.0,0.0,0.0,0.0,0.0,0.0,0.0,0.0,0.0,0.806,0.8399,0.8764,0.8848,1.033,1.1496,1.1434,1.1561,1.1104,0.9847,0.9674,0.933,0.8273,0.7735,0.7201,0.6838,0.6838,0.6652,0.6633,0.6812,0.6812,0.6633,0.6994,0.6994,0.6454,0.6097,0.5741,0.5741,0.5695,0.567,0.567,0.5624,0.5802,0.5842,0.6064,0.6034,0.5903,0.5995,0.5963,0.5623,0.5455,0.5455,0.545,0.5064,0.5046,0.5384,0.5046,0.5048,0.5216,0.4372,0.4204,0.4036,0.3195,0.3197,0.3701,0.4036,0.4878,0.5552,0.5384,0.5552,0.5552,0.5384,0.5384,0.5384,0.5384,0.5384,0.5384,0.5384,0.5384,0.5371,0.499,0.4804,0.4781,0.4739,0.0,0.4877,0.0,0.4887,0.4749,0.4624,0.3989,0.3526,0.3418,0.2916,0.2758,0.2955,0.3312,0.3678,0.3885,0.4303,0.4563,0.4471,0.3595,0.3247,0.3063,0.3086,0.3116,0.3153,0.3178,0.2803,0.202,0.1212,0.0606,0.0404,0.0202,0.0,0.0,0.0598,0.0794,0.079,0.0394,0.0197,0.0,0.0,0.0395,0.079,0.806,0.9416,1.064,1.1091,1.1378,1.1496,1.1434,1.1555,1.1099,0.9847,0.9852,0.9711,0.8717,0.8182,0.8001,0.782,0.746,0.7248,0.7177,0.7531,0.7531,0.7173,0.7173,0.6994,0.6454,0.6454,0.6276,0.5741,0.5736,0.5733,0.5733,0.573,0.5906,0.6442,0.6307,0.6425,0.6762,0.6284,0.6059,0.6059,0.5558,0.5392,0.539,0.5384,0.5384,0.5384,0.5384,0.5384,0.5384,0.4878,0.471,0.4542,0.4036,0.3868,0.4036,0.4542,0.5382,0.5885,0.5552,0.5717,0.5885,0.5552,0.5384,0.5384,0.5384,0.5384,0.5384,0.5384,0.5384,0.5384,0.5379,0.533,0.5292,0.5286,0.0,0.0,0.5202,0.5251,0.5124,0.4629,0.4212,0.3926,0.3421,0.3109,0.2955,0.3479,0.351,0.3883,0.4772,0.5089,0.5032,0.4563,0.4002,0.3449,0.3095,0.3096,0.3127,0.3185,0.3187,0.3204,0.3032,0.3032,0.2424,0.1414,0.0404,0.0,0.0202,0.2199,0.3004,0.2821,0.1797,0.08,0.0,0.0,0.121,0.3021,0.9579,1.0252,1.0819,1.118,1.1251,1.1345,1.1533,1.1427,1.1099,1.003,0.9852,0.9688,0.8652,0.8293,0.7933,0.7933,0.7754,0.7743,0.771,0.8067,0.825,0.8071,0.771,0.7531,0.7349,0.6812,0.6454,0.6276,0.592,0.592,0.6276,0.6276,0.6454,0.6988,0.7017,0.6976,0.7003,0.6979,0.6583,0.6111,0.5903,0.5717,0.5384,0.5384,0.5384,0.5384,0.5384,0.5384,0.5384,0.4878,0.471,0.4542,0.4204,0.4204,0.4539,0.5382,0.6053,0.6392,0.6224,0.6221,0.6053,0.5885,0.5552,0.5384,0.5384,0.5384,0.5384,0.5384,0.5384,0.5384,0.5384,0.5365,0.5349,0.5349,0.0,0.5316,0.5316,0.5368,0.5406,0.5237,0.4793,0.4504,0.4361,0.403,0.3874,0.39,0.4271,0.4648,0.5041,0.5531,0.5453,0.4956,0.4575,0.3832,0.3097,0.3116,0.3146,0.3189,0.3206,0.322,0.3231,0.3232,0.3032,0.2626,0.2222,0.1616,0.101,0.1812,0.2619,0.3232,0.2818,0.2417,0.1818,0.1212,0.1414,0.2221,1.0425,1.0753,1.0824,1.1063,1.1101,1.1183,1.1417,1.1455,1.1099,1.0209,1.003,0.9688,0.8644,0.8285,0.8106,0.8106,0.8106,0.8094,0.8067,0.8429,0.8607,0.8607,0.8246,0.8067,0.7885,0.7349,0.6812,0.6633,0.6279,0.6279,0.6633,0.6633,0.6994,0.7345,0.7567,0.7538,0.7578,0.7555,0.7166,0.6699,0.6306,0.6117,0.5948,0.5781,0.5767,0.5918,0.5918,0.5903,0.572,0.5214,0.5214,0.5046,0.4539,0.471,0.5214,0.5885,0.6556,0.6895,0.6895,0.6724,0.6389,0.6221,0.5885,0.5552,0.5384,0.5384,0.5384,0.5384,0.5384,0.5384,0.5384,0.5384,0.5384,0.5384,0.5384,0.5392,0.5412,0.545,0.5482,0.5499,0.5207,0.4908,0.4943,0.4608,0.4275,0.4485,0.4843,0.5053,0.5305,0.5771,0.5853,0.5337,0.4972,0.4426,0.3305,0.3133,0.3163,0.3201,0.3221,0.323,0.323,0.3232,0.3232,0.3232,0.3234,0.283,0.202,0.202,0.2626,0.3234,0.3232,0.3232,0.3032,0.2424,0.202,0.2222,1.0586,1.0753,1.0829,1.1063,1.1107,1.1183,1.1417,1.1455,1.1099,1.0209,1.003,0.9711,0.8722,0.8734,0.8734,0.8734,0.8734,0.8697,0.8611,0.8607,0.8607,0.8607,0.8607,0.8429,0.7885,0.7885,0.771,0.7173,0.7173,0.7173,0.7173,0.7173,0.7531,0.7881,0.7799,0.8117,0.8468,0.7853,0.7645,0.7645,0.6605,0.6602,0.6949,0.6429,0.6557,0.6833,0.6833,0.6789,0.656,0.6221,0.6053,0.6053,0.5552,0.5717,0.6053,0.6053,0.6724,0.7394,0.7394,0.7394,0.7227,0.6389,0.6053,0.6053,0.5552,0.5384,0.5384,0.5384,0.5384,0.5384,0.5384,0.5384,0.5384,0.5384,0.5384,0.5406,0.5466,0.5477,0.5499,0.5553,0.5265,0.4948,0.4948,0.4459,0.4487,0.5022,0.5022,0.5251,0.5916,0.5981,0.5853,0.5339,0.5392,0.4859,0.3926,0.3339,0.3172,0.323,0.323,0.323,0.323,0.323,0.323,0.323,0.3232,0.3234,0.3234,0.3234,0.3234,0.3234,0.3231,0.3231,0.3234,0.3234,0.3234,0.3234,1.0586,1.0813,1.0922,1.1074,1.1172,1.1275,1.1433,1.1455,1.1099,1.0209,1.003,0.9688,0.8644,0.8644,0.8644,0.8644,0.8644,0.8636,0.8611,0.8607,0.8607,0.8607,0.8607,0.8607,0.8429,0.8067,0.7885,0.771,0.7352,0.7352,0.771,0.771,0.7889,0.8425,0.8333,0.8329,0.8558,0.8229,0.8023,0.772,0.7494,0.7122,0.6945,0.6775,0.6901,0.6833,0.6833,0.6819,0.6802,0.6293,0.6123,0.6117,0.5566,0.5717,0.6221,0.6392,0.6892,0.7406,0.7804,0.7989,0.7819,0.7311,0.6802,0.6633,0.6463,0.6123,0.5942,0.5897,0.5552,0.5384,0.5384,0.5384,0.5384,0.5384,0.542,0.5455,0.5472,0.5545,0.5605,0.5621,0.5501,0.5536,0.5536,0.5373,0.5383,0.5559,0.5636,0.5718,0.5981,0.6041,0.6101,0.5969,0.5604,0.5266,0.5151,0.4163,0.3791,0.3836,0.3433,0.3433,0.3836,0.3433,0.323,0.323,0.3231,0.3231,0.3231,0.3231,0.3231,0.3231,0.3231,0.3231,0.3231,0.3231,0.3231,0.3231,1.0808,1.0873,1.0976,1.1139,1.1226,1.133,1.1504,1.1525,1.1167,1.0451,1.0272,0.972,0.8969,0.8786,0.8607,0.8607,0.8607,0.8607,0.8607,0.8607,0.8607,0.8607,0.8607,0.8607,0.8607,0.8246,0.8246,0.8246,0.7889,0.7889,0.8246,0.8246,0.8246,0.8607,0.855,0.8558,0.8599,0.8489,0.8297,0.8164,0.7937,0.7739,0.7563,0.7388,0.7512,0.7615,0.7615,0.7421,0.7391,0.6709,0.6176,0.5978,0.5769,0.5906,0.6389,0.6895,0.7252,0.7792,0.8183,0.8223,0.826,0.7952,0.7593,0.7224,0.7049,0.6709,0.6518,0.6443,0.6262,0.5918,0.5723,0.572,0.5558,0.5417,0.5452,0.5662,0.5885,0.578,0.5836,0.6036,0.5895,0.5741,0.5741,0.5741,0.5749,0.5774,0.5867,0.5948,0.6011,0.609,0.615,0.6188,0.5848,0.5708,0.5571,0.4994,0.4618,0.4242,0.4038,0.4038,0.4242,0.3836,0.3433,0.3433,0.323,0.323,0.323,0.323,0.323,0.323,0.323,0.323,0.323,0.323,0.323,0.323,1.0895,1.0927,1.1009,1.1406,1.1467,1.1378,1.1601,1.1645,1.1469,1.0926,1.0559,0.9974,0.9344,0.8969,0.8607,0.8607,0.8607,0.8607,0.8607,0.8607,0.8607,0.8607,0.8607,0.8607,0.8607,0.8607,0.8607,0.8607,0.8607,0.8607,0.8607,0.8607,0.8607,0.8607,0.8607,0.8607,0.8607,0.8607,0.8607,0.8607,0.8067,0.8246,0.8607,0.8067,0.8191,0.8473,0.8473,0.8419,0.8173,0.7302,0.6391,0.5653,0.5986,0.6447,0.6895,0.7227,0.7792,0.8199,0.8207,0.8277,0.837,0.846,0.8074,0.7664,0.7306,0.7132,0.7108,0.7031,0.7014,0.6823,0.6249,0.624,0.6093,0.5645,0.5659,0.5874,0.6341,0.6186,0.6033,0.6445,0.6097,0.5741,0.5741,0.5741,0.5769,0.5834,0.5891,0.5951,0.6204,0.6319,0.6191,0.6196,0.6311,0.6175,0.5779,0.5829,0.545,0.4847,0.4847,0.4847,0.4847,0.4242,0.4038,0.4038,0.3433,0.323,0.323,0.323,0.323,0.323,0.323,0.323,0.323,0.323,0.323,0.323,1.1402,1.151,1.1624,1.1772,1.1959,1.1933,1.1629,1.1716,1.1593,1.1039,1.0604,0.9997,0.9432,0.9007,0.8607,0.8607,0.8607,0.8607,0.8607,0.8607,0.8607,0.8607,0.8607,0.8607,0.8607,0.8607,0.8607,0.8607,0.8607,0.8607,0.8607,0.8607,0.8607,0.8607,0.8607,0.8607,0.8607,0.8607,0.8607,0.8607,0.8429,0.8429,0.8607,0.8429,0.855,0.8473,0.8473,0.846,0.8265,0.7388,0.6638,0.6052,0.6173,0.6616,0.7227,0.7394,0.7792,0.8215,0.8285,0.837,0.8464,0.8554,0.8562,0.8353,0.8281,0.7914,0.7538,0.7461,0.727,0.6918,0.6901,0.6726,0.6732,0.6749,0.6799,0.6848,0.6882,0.6935,0.6796,0.6451,0.6454,0.6097,0.5741,0.5741,0.5965,0.6445,0.6466,0.6712,0.721,0.6917,0.6794,0.6842,0.6527,0.6393,0.6241,0.6254,0.6057,0.545,0.5049,0.5049,0.545,0.4847,0.4645,0.4645,0.4038,0.3836,0.3836,0.3433,0.323,0.323,0.323,0.323,0.323,0.323,0.323,0.323,1.1504,1.179,1.1934,1.2125,1.2269,1.2215,1.1786,1.1857,1.19,1.1526,1.1059,1.0422,1.0192,0.9375,0.8786,0.8607,0.8786,0.8964,0.8964,0.9143,0.9143,0.8964,0.8964,0.8786,0.8607,0.8607,0.8607,0.8607,0.8607,0.8607,0.8607,0.8607,0.8786,0.8964,0.8964,0.9143,0.9322,0.8964,0.8964,0.8964,0.8607,0.8607,0.8607,0.8607,0.8579,0.8538,0.8538,0.8357,0.8179,0.7644,0.7041,0.6596,0.6732,0.7152,0.7394,0.7729,0.7989,0.8272,0.8321,0.8432,0.855,0.8595,0.8607,0.8595,0.8546,0.8357,0.8156,0.807,0.7876,0.769,0.7302,0.7295,0.7309,0.6996,0.7034,0.7247,0.7463,0.7328,0.7173,0.6815,0.6633,0.6276,0.5741,0.5946,0.6365,0.6651,0.6873,0.7313,0.7612,0.7536,0.7417,0.7453,0.6961,0.6829,0.6864,0.6662,0.6259,0.6057,0.5856,0.5856,0.6057,0.5452,0.5251,0.5248,0.4645,0.424,0.4038,0.3635,0.3433,0.323,0.323,0.323,0.323,0.323,0.323,0.323,1.1819,1.2079,1.2232,1.2489,1.2554,1.2466,1.214,1.2004,1.202,1.202,1.1526,1.1039,1.0952,1.0107,0.9322,0.8786,0.9143,0.9496,0.9496,0.9852,0.9852,0.9496,0.9317,0.9143,0.8786,0.8607,0.8607,0.8607,0.8607,0.8607,0.8607,0.8607,0.8964,0.9322,0.9322,0.9674,1.003,0.9496,0.9496,0.9322,0.8964,0.8786,0.8786,0.8607,0.8607,0.8607,0.8607,0.8246,0.7885,0.7885,0.7607,0.7136,0.7476,0.754,0.7581,0.8068,0.8191,0.8334,0.8334,0.8468,0.8607,0.8607,0.8607,0.8607,0.8607,0.8607,0.8587,0.8509,0.8493,0.8297,0.7876,0.7864,0.7709,0.7424,0.7434,0.7456,0.7877,0.771,0.7352,0.7173,0.6646,0.6296,0.5771,0.6359,0.6602,0.6854,0.7287,0.7729,0.7806,0.7959,0.7847,0.7847,0.7592,0.7465,0.7465,0.6864,0.6662,0.6662,0.6461,0.6461,0.6461,0.6055,0.5853,0.5853,0.5251,0.4645,0.424,0.4038,0.3836,0.3231,0.323,0.323,0.323,0.323,0.323,0.323,1.2451,1.2836,1.3286,1.356,1.335,1.293,1.2708,1.2455,1.2145,1.2145,1.1578,1.1069,1.1054,1.0325,0.9852,0.9852,0.9852,0.9852,0.9852,1.003,1.003,0.9852,0.9496,0.9317,0.9143,0.8786,0.8607,0.8607,0.8607,0.8607,0.8607,0.8964,0.9322,0.9322,0.9674,0.9852,1.003,0.9852,0.9852,0.9852,0.9322,0.9143,0.9143,0.8786,0.8607,0.8607,0.8607,0.8246,0.7885,0.7885,0.7825,0.7735,0.7668,0.7749,0.8166,0.8085,0.8191,0.8334,0.8334,0.8468,0.8607,0.8607,0.8607,0.8607,0.8607,0.8607,0.8603,0.8591,0.8591,0.8587,0.8575,0.8393,0.8397,0.8409,0.8413,0.8417,0.8425,0.8429,0.8071,0.7352,0.651,0.5839,0.5894,0.6457,0.6857,0.73,0.7878,0.8485,0.8948,0.8733,0.8431,0.8431,0.819,0.8065,0.8065,0.7465,0.7264,0.7264,0.6662,0.6461,0.6461,0.6461,0.6461,0.6461,0.5853,0.545,0.545,0.4442,0.4038,0.3836,0.3433,0.323,0.323,0.323,0.323,0.323,1.3023,1.3261,1.3578,1.3861,1.3782,1.353,1.3373,1.2887,1.2739,1.2928,1.2331,1.1991,1.1991,1.1056,1.0209,1.003,1.0209,1.0387,1.0387,1.0743,1.0743,1.0387,1.0209,1.003,0.9674,0.9496,0.9322,0.9322,0.9143,0.9143,0.9322,0.9674,0.9852,1.003,1.0387,1.0565,1.0743,1.0565,1.0387,1.0387,0.9852,0.9674,0.9674,0.9143,0.8964,0.8964,0.8607,0.8429,0.8246,0.8246,0.8187,0.8109,0.8074,0.8141,0.8199,0.8211,0.8272,0.8346,0.8395,0.8505,0.8607,0.8607,0.8607,0.8607,0.8607,0.8607,0.8607,0.8607,0.8607,0.8607,0.8607,0.8607,0.8607,0.8607,0.8607,0.8607,0.8607,0.8607,0.8269,0.7411,0.6392,0.5894,0.5921,0.6694,0.7287,0.7504,0.83,0.8912,0.9142,0.912,0.9017,0.9017,0.8787,0.8471,0.8471,0.8069,0.7666,0.7264,0.7065,0.6864,0.6461,0.6461,0.6461,0.6461,0.6259,0.6055,0.5652,0.4845,0.4242,0.4038,0.3433,0.323,0.323,0.323,0.323,0.323]}]]